Wetterdaten: Mittwoch, 01.08.2018
Datum Zeit Temp. A. Pool Temp. Temp. 5cm Feuchte A. Luftdruck Regen Wind Richtung Richtung Sonnenschein ET UV Solar Taupunkt Windchill Windben Empfang
01.08.2018 00:00 23,1 C 27,8 C 21,7 C 65 % 1014,3 hPa 0,0 l/m 7,4 km/h (2 Bft) S 189 0 min 0,000 mm 0,0 UV-I 0 W/m 16,2 C 22,8 C 9,7 km/h (2 Bft) 96,00 %
01.08.2018 00:02 22,9 C 27,8 C 21,7 C 65 % 1014,3 hPa 0,0 l/m 6,9 km/h (2 Bft) SW 220 0 min 0,000 mm 0,0 UV-I 0 W/m 16,0 C 22,7 C 9,7 km/h (2 Bft) 97,30 %
01.08.2018 00:04 22,9 C 27,8 C 21,7 C 66 % 1014,2 hPa 0,0 l/m 7,1 km/h (2 Bft) S-SW 209 0 min 0,000 mm 0,0 UV-I 0 W/m 16,2 C 22,7 C 9,7 km/h (2 Bft) 95,74 %
01.08.2018 00:06 22,8 C 27,8 C 21,7 C 66 % 1014,3 hPa 0,0 l/m 6,4 km/h (2 Bft) S-SW 209 0 min 0,000 mm 0,0 UV-I 0 W/m 16,1 C 22,8 C 9,7 km/h (2 Bft) 93,62 %
01.08.2018 00:08 22,9 C 27,8 C 21,7 C 65 % 1014,2 hPa 0,0 l/m 6,5 km/h (2 Bft) S 183 0 min 0,000 mm 0,0 UV-I 0 W/m 16,0 C 22,9 C 8,0 km/h (2 Bft) 96,00 %
01.08.2018 00:10 22,9 C 27,8 C 21,7 C 65 % 1014,3 hPa 0,0 l/m 5,9 km/h (2 Bft) S-SW 207 0 min 0,000 mm 0,0 UV-I 0 W/m 16,0 C 22,9 C 8,0 km/h (2 Bft) 95,74 %
01.08.2018 00:12 22,9 C 27,8 C 21,7 C 65 % 1014,3 hPa 0,0 l/m 6,3 km/h (2 Bft) S-SW 210 0 min 0,000 mm 0,0 UV-I 0 W/m 16,0 C 22,9 C 8,0 km/h (2 Bft) 95,74 %
01.08.2018 00:14 22,9 C 27,8 C 21,7 C 65 % 1014,2 hPa 0,0 l/m 6,7 km/h (2 Bft) S-SW 213 0 min 0,000 mm 0,0 UV-I 0 W/m 16,0 C 22,8 C 8,0 km/h (2 Bft) 93,62 %
01.08.2018 00:16 22,9 C 27,8 C 21,7 C 65 % 1014,2 hPa 0,0 l/m 6,6 km/h (2 Bft) S-SW 211 0 min 0,000 mm 0,0 UV-I 0 W/m 16,0 C 22,8 C 8,0 km/h (2 Bft) 97,87 %
01.08.2018 00:18 22,9 C 27,8 C 21,7 C 65 % 1014,1 hPa 0,0 l/m 7,5 km/h (2 Bft) S-SW 208 0 min 0,000 mm 0,0 UV-I 0 W/m 16,0 C 22,5 C 9,7 km/h (2 Bft) 98,00 %
01.08.2018 00:20 22,8 C 27,8 C 21,7 C 65 % 1014,1 hPa 0,0 l/m 7,8 km/h (2 Bft) S-SW 206 0 min 0,000 mm 0,0 UV-I 0 W/m 15,9 C 22,4 C 9,7 km/h (2 Bft) 97,87 %
01.08.2018 00:22 22,8 C 27,8 C 21,7 C 66 % 1014,1 hPa 0,0 l/m 7,3 km/h (2 Bft) SW 229 0 min 0,000 mm 0,0 UV-I 0 W/m 16,1 C 22,5 C 11,3 km/h (2 Bft) 97,87 %
01.08.2018 00:24 22,7 C 27,8 C 21,7 C 65 % 1014,2 hPa 0,0 l/m 7,3 km/h (2 Bft) S-SW 204 0 min 0,000 mm 0,0 UV-I 0 W/m 15,8 C 22,4 C 9,7 km/h (2 Bft) 97,87 %
01.08.2018 00:26 22,7 C 27,8 C 21,7 C 65 % 1014,1 hPa 0,0 l/m 7,5 km/h (2 Bft) S-SW 200 0 min 0,000 mm 0,0 UV-I 0 W/m 15,8 C 22,3 C 9,7 km/h (2 Bft) 95,74 %
01.08.2018 00:28 22,8 C 27,8 C 21,7 C 65 % 1014,2 hPa 0,0 l/m 6,6 km/h (2 Bft) S-SW 209 0 min 0,000 mm 0,0 UV-I 0 W/m 15,9 C 22,7 C 9,7 km/h (2 Bft) 94,74 %
01.08.2018 00:30 22,8 C 27,8 C 21,7 C 65 % 1014,1 hPa 0,0 l/m 6,8 km/h (2 Bft) SW 236 0 min 0,000 mm 0,0 UV-I 0 W/m 15,9 C 22,7 C 9,7 km/h (2 Bft) 95,83 %
01.08.2018 00:32 22,7 C 27,2 C 21,1 C 65 % 1014,1 hPa 0,0 l/m 6,9 km/h (2 Bft) S-SW 207 0 min 0,000 mm 0,0 UV-I 0 W/m 15,8 C 22,5 C 9,7 km/h (2 Bft) 97,87 %
01.08.2018 00:34 22,7 C 27,2 C 21,1 C 65 % 1014,1 hPa 0,0 l/m 6,6 km/h (2 Bft) S-SW 211 0 min 0,000 mm 0,0 UV-I 0 W/m 15,8 C 22,6 C 8,0 km/h (2 Bft) 95,74 %
01.08.2018 00:36 22,7 C 27,2 C 21,1 C 65 % 1014,2 hPa 0,0 l/m 6,7 km/h (2 Bft) SW 217 0 min 0,000 mm 0,0 UV-I 0 W/m 15,8 C 22,6 C 9,7 km/h (2 Bft) 95,74 %
01.08.2018 00:38 22,8 C 27,2 C 21,1 C 65 % 1014,1 hPa 0,0 l/m 7,2 km/h (2 Bft) S-SW 211 0 min 0,000 mm 0,0 UV-I 0 W/m 15,9 C 22,5 C 11,3 km/h (2 Bft) 97,87 %
01.08.2018 00:40 22,8 C 27,2 C 21,1 C 65 % 1014,2 hPa 0,0 l/m 7,9 km/h (2 Bft) S 190 0 min 0,000 mm 0,0 UV-I 0 W/m 15,9 C 22,3 C 11,3 km/h (2 Bft) 94,44 %
01.08.2018 00:42 22,8 C 27,2 C 21,1 C 65 % 1014,1 hPa 0,0 l/m 7,0 km/h (2 Bft) SW 218 0 min 0,000 mm 0,0 UV-I 0 W/m 15,9 C 22,6 C 9,7 km/h (2 Bft) 96,83 %
01.08.2018 00:44 22,7 C 27,2 C 21,1 C 65 % 1014,2 hPa 0,0 l/m 5,4 km/h (1 Bft) S-SW 209 0 min 0,000 mm 0,0 UV-I 0 W/m 15,8 C 22,7 C 9,7 km/h (2 Bft) 100,00 %
01.08.2018 00:46 22,7 C 27,2 C 21,1 C 65 % 1014,1 hPa 0,0 l/m 6,4 km/h (2 Bft) S-SW 209 0 min 0,000 mm 0,0 UV-I 0 W/m 15,8 C 22,7 C 9,7 km/h (2 Bft) 96,08 %
01.08.2018 00:48 22,7 C 27,2 C 21,1 C 65 % 1014,1 hPa 0,0 l/m 5,8 km/h (2 Bft) S-SW 207 0 min 0,000 mm 0,0 UV-I 0 W/m 15,8 C 22,7 C 9,7 km/h (2 Bft) 95,74 %
01.08.2018 00:50 22,7 C 27,2 C 21,1 C 65 % 1014,1 hPa 0,0 l/m 5,4 km/h (1 Bft) SW 216 0 min 0,000 mm 0,0 UV-I 0 W/m 15,8 C 22,7 C 8,0 km/h (2 Bft) 97,87 %
01.08.2018 00:52 22,7 C 27,2 C 21,1 C 65 % 1014,1 hPa 0,0 l/m 5,1 km/h (1 Bft) SW 215 0 min 0,000 mm 0,0 UV-I 0 W/m 15,8 C 22,7 C 8,0 km/h (2 Bft) 95,74 %
01.08.2018 00:54 22,6 C 27,2 C 21,1 C 65 % 1014,1 hPa 0,0 l/m 5,2 km/h (1 Bft) SW 222 0 min 0,000 mm 0,0 UV-I 0 W/m 15,7 C 22,6 C 8,0 km/h (2 Bft) 97,87 %
01.08.2018 00:56 22,5 C 27,2 C 21,1 C 66 % 1014,1 hPa 0,0 l/m 5,4 km/h (1 Bft) SW 217 0 min 0,000 mm 0,0 UV-I 0 W/m 15,8 C 22,5 C 8,0 km/h (2 Bft) 97,87 %
01.08.2018 00:58 22,4 C 27,2 C 21,1 C 66 % 1014,1 hPa 0,0 l/m 6,5 km/h (2 Bft) SW 215 0 min 0,000 mm 0,0 UV-I 0 W/m 15,7 C 22,4 C 8,0 km/h (2 Bft) 97,87 %
01.08.2018 01:00 22,4 C 27,2 C 21,1 C 66 % 1014,1 hPa 0,0 l/m 6,5 km/h (2 Bft) SW 228 0 min 0,051 mm 0,0 UV-I 0 W/m 15,7 C 22,4 C 8,0 km/h (2 Bft) 95,74 %
01.08.2018 01:02 22,3 C 27,2 C 20,6 C 66 % 1014,1 hPa 0,0 l/m 7,0 km/h (2 Bft) SW 218 0 min 0,000 mm 0,0 UV-I 0 W/m 15,6 C 22,1 C 8,0 km/h (2 Bft) 97,87 %
01.08.2018 01:04 22,3 C 27,2 C 21,1 C 67 % 1014,1 hPa 0,0 l/m 6,2 km/h (2 Bft) S-SW 204 0 min 0,000 mm 0,0 UV-I 0 W/m 15,9 C 22,3 C 8,0 km/h (2 Bft) 95,74 %
01.08.2018 01:06 22,3 C 27,2 C 21,1 C 67 % 1014,2 hPa 0,0 l/m 6,0 km/h (2 Bft) S-SW 198 0 min 0,000 mm 0,0 UV-I 0 W/m 15,9 C 22,3 C 9,7 km/h (2 Bft) 95,74 %
01.08.2018 01:08 22,3 C 27,2 C 20,6 C 67 % 1014,3 hPa 0,0 l/m 3,8 km/h (1 Bft) S-SW 197 0 min 0,000 mm 0,0 UV-I 0 W/m 15,9 C 22,3 C 6,4 km/h (2 Bft) 95,74 %
01.08.2018 01:10 22,3 C 27,2 C 20,6 C 66 % 1014,4 hPa 0,0 l/m 8,2 km/h (2 Bft) O-NO 76 0 min 0,000 mm 0,0 UV-I 0 W/m 15,6 C 21,7 C 16,1 km/h (3 Bft) 97,92 %
01.08.2018 01:12 22,2 C 27,2 C 20,6 C 67 % 1014,5 hPa 0,0 l/m 11,5 km/h (2 Bft) O 88 0 min 0,000 mm 0,0 UV-I 0 W/m 15,8 C 20,7 C 16,1 km/h (3 Bft) 98,00 %
01.08.2018 01:14 21,9 C 27,2 C 20,6 C 68 % 1014,4 hPa 0,0 l/m 7,6 km/h (2 Bft) NO 51 0 min 0,000 mm 0,0 UV-I 0 W/m 15,7 C 21,5 C 9,7 km/h (2 Bft) 100,00 %
01.08.2018 01:16 21,7 C 27,2 C 20,6 C 69 % 1014,4 hPa 0,0 l/m 4,8 km/h (1 Bft) S-SO 151 0 min 0,000 mm 0,0 UV-I 0 W/m 15,8 C 21,7 C 8,0 km/h (2 Bft) 97,87 %
01.08.2018 01:18 21,8 C 27,2 C 20,6 C 69 % 1014,5 hPa 0,0 l/m 2,7 km/h (1 Bft) O 93 0 min 0,000 mm 0,0 UV-I 0 W/m 15,9 C 21,8 C 4,8 km/h (1 Bft) 97,87 %
01.08.2018 01:20 22,1 C 27,2 C 20,6 C 67 % 1014,5 hPa 0,0 l/m 10,7 km/h (2 Bft) O 80 0 min 0,000 mm 0,0 UV-I 0 W/m 15,7 C 20,8 C 22,5 km/h (4 Bft) 100,00 %
01.08.2018 01:22 22,2 C 27,2 C 20,6 C 68 % 1014,6 hPa 0,0 l/m 15,0 km/h (3 Bft) O 86 0 min 0,000 mm 0,0 UV-I 0 W/m 16,0 C 19,9 C 17,7 km/h (3 Bft) 100,00 %
01.08.2018 01:24 22,2 C 27,2 C 20,6 C 68 % 1014,6 hPa 0,0 l/m 12,0 km/h (2 Bft) O 100 0 min 0,000 mm 0,0 UV-I 0 W/m 16,0 C 20,6 C 17,7 km/h (3 Bft) 100,00 %
01.08.2018 01:26 22,1 C 27,2 C 20,6 C 68 % 1014,6 hPa 0,0 l/m 11,9 km/h (2 Bft) O-NO 77 0 min 0,000 mm 0,0 UV-I 0 W/m 15,9 C 20,5 C 17,7 km/h (3 Bft) 100,00 %
01.08.2018 01:28 21,9 C 27,2 C 20,6 C 68 % 1014,6 hPa 0,0 l/m 8,6 km/h (2 Bft) O-NO 70 0 min 0,000 mm 0,0 UV-I 0 W/m 15,7 C 21,2 C 12,9 km/h (3 Bft) 100,00 %
01.08.2018 01:30 22,0 C 27,2 C 20,6 C 68 % 1014,6 hPa 0,0 l/m 5,5 km/h (1 Bft) O-SO 112 0 min 0,000 mm 0,0 UV-I 0 W/m 15,8 C 22,0 C 11,3 km/h (2 Bft) 100,00 %
01.08.2018 01:32 22,0 C 27,2 C 20,6 C 68 % 1014,6 hPa 0,0 l/m 4,2 km/h (1 Bft) O-SO 119 0 min 0,000 mm 0,0 UV-I 0 W/m 15,8 C 22,0 C 6,4 km/h (2 Bft) 97,87 %
01.08.2018 01:34 22,0 C 27,2 C 20,0 C 68 % 1014,7 hPa 0,0 l/m 7,3 km/h (2 Bft) O-SO 108 0 min 0,000 mm 0,0 UV-I 0 W/m 15,8 C 21,7 C 12,9 km/h (3 Bft) 100,00 %
01.08.2018 01:36 22,1 C 27,2 C 20,6 C 68 % 1014,7 hPa 0,0 l/m 8,5 km/h (2 Bft) O 83 0 min 0,000 mm 0,0 UV-I 0 W/m 15,9 C 21,4 C 12,9 km/h (3 Bft) 97,87 %
01.08.2018 01:38 22,1 C 27,2 C 20,6 C 67 % 1014,6 hPa 0,0 l/m 5,4 km/h (1 Bft) SO 139 0 min 0,000 mm 0,0 UV-I 0 W/m 15,7 C 22,1 C 11,3 km/h (2 Bft) 100,00 %
01.08.2018 01:40 22,1 C 27,2 C 20,6 C 67 % 1014,5 hPa 0,0 l/m 4,2 km/h (1 Bft) SO 144 0 min 0,000 mm 0,0 UV-I 0 W/m 15,7 C 22,1 C 8,0 km/h (2 Bft) 100,00 %
01.08.2018 01:42 22,1 C 27,2 C 20,6 C 67 % 1014,6 hPa 0,0 l/m 3,1 km/h (1 Bft) S-SO 148 0 min 0,000 mm 0,0 UV-I 0 W/m 15,7 C 22,1 C 4,8 km/h (1 Bft) 100,00 %
01.08.2018 01:44 22,1 C 27,2 C 20,6 C 67 % 1014,5 hPa 0,0 l/m 0,9 km/h (0 Bft) S-SO 148 0 min 0,000 mm 0,0 UV-I 0 W/m 15,7 C 22,1 C 3,2 km/h (1 Bft) 97,87 %
01.08.2018 01:46 22,1 C 27,2 C 20,6 C 67 % 1014,6 hPa 0,0 l/m 3,3 km/h (1 Bft) S 190 0 min 0,000 mm 0,0 UV-I 0 W/m 15,7 C 22,1 C 6,4 km/h (2 Bft) 95,83 %
01.08.2018 01:48 22,1 C 27,2 C 20,6 C 68 % 1014,5 hPa 0,0 l/m 3,7 km/h (1 Bft) S-SW 211 0 min 0,000 mm 0,0 UV-I 0 W/m 15,9 C 22,1 C 4,8 km/h (1 Bft) 97,87 %
01.08.2018 01:50 21,9 C 27,2 C 20,6 C 68 % 1014,5 hPa 0,0 l/m 5,5 km/h (1 Bft) SW 221 0 min 0,000 mm 0,0 UV-I 0 W/m 15,7 C 21,9 C 8,0 km/h (2 Bft) 97,87 %
01.08.2018 01:52 21,8 C 27,2 C 20,6 C 68 % 1014,5 hPa 0,0 l/m 6,3 km/h (2 Bft) SW 215 0 min 0,000 mm 0,0 UV-I 0 W/m 15,6 C 21,8 C 8,0 km/h (2 Bft) 100,00 %
01.08.2018 01:54 21,7 C 27,2 C 20,6 C 69 % 1014,4 hPa 0,0 l/m 6,5 km/h (2 Bft) S-SW 200 0 min 0,000 mm 0,0 UV-I 0 W/m 15,8 C 21,7 C 8,0 km/h (2 Bft) 100,00 %
01.08.2018 01:56 21,6 C 27,2 C 20,6 C 69 % 1014,5 hPa 0,0 l/m 4,5 km/h (1 Bft) S-SW 198 0 min 0,000 mm 0,0 UV-I 0 W/m 15,7 C 21,6 C 6,4 km/h (2 Bft) 100,00 %
01.08.2018 01:58 21,4 C 27,2 C 20,6 C 71 % 1014,5 hPa 0,0 l/m 4,0 km/h (1 Bft) S-SO 152 0 min 0,000 mm 0,0 UV-I 0 W/m 15,9 C 21,4 C 4,8 km/h (1 Bft) 100,00 %
01.08.2018 02:00 21,2 C 27,2 C 20,6 C 71 % 1014,5 hPa 0,0 l/m 4,2 km/h (1 Bft) S-SO 161 0 min 0,051 mm 0,0 UV-I 0 W/m 15,7 C 21,2 C 6,4 km/h (2 Bft) 100,00 %
01.08.2018 02:02 21,3 C 27,2 C 20,6 C 71 % 1014,5 hPa 0,0 l/m 4,8 km/h (1 Bft) S 180 0 min 0,000 mm 0,0 UV-I 0 W/m 15,8 C 21,3 C 6,4 km/h (2 Bft) 100,00 %
01.08.2018 02:04 21,4 C 27,2 C 20,6 C 71 % 1014,5 hPa 0,0 l/m 3,4 km/h (1 Bft) S 180 0 min 0,000 mm 0,0 UV-I 0 W/m 15,9 C 21,4 C 4,8 km/h (1 Bft) 100,00 %
01.08.2018 02:06 21,4 C 27,2 C 20,0 C 72 % 1014,5 hPa 0,0 l/m 1,8 km/h (1 Bft) S 180 0 min 0,000 mm 0,0 UV-I 0 W/m 16,1 C 21,4 C 3,2 km/h (1 Bft) 97,87 %
01.08.2018 02:08 21,3 C 27,2 C 20,0 C 71 % 1014,5 hPa 0,0 l/m 3,2 km/h (1 Bft) S 180 0 min 0,000 mm 0,0 UV-I 0 W/m 15,8 C 21,3 C 4,8 km/h (1 Bft) 97,56 %
01.08.2018 02:10 21,4 C 27,2 C 20,0 C 71 % 1014,5 hPa 0,0 l/m 3,0 km/h (1 Bft) S 180 0 min 0,000 mm 0,0 UV-I 0 W/m 15,9 C 21,4 C 3,2 km/h (1 Bft) 95,74 %
01.08.2018 02:12 21,7 C 27,2 C 20,0 C 69 % 1014,5 hPa 0,0 l/m 1,4 km/h (1 Bft) S 180 0 min 0,000 mm 0,0 UV-I 0 W/m 15,8 C 21,7 C 3,2 km/h (1 Bft) 95,74 %
01.08.2018 02:14 21,8 C 27,2 C 20,0 C 69 % 1014,5 hPa 0,0 l/m 0,0 km/h (0 Bft) S 180 0 min 0,000 mm 0,0 UV-I 0 W/m 15,9 C 21,8 C 0,0 km/h (0 Bft) 95,74 %
01.08.2018 02:16 21,6 C 27,2 C 20,0 C 70 % 1014,5 hPa 0,0 l/m 0,8 km/h (0 Bft) S 180 0 min 0,000 mm 0,0 UV-I 0 W/m 15,9 C 21,6 C 3,2 km/h (1 Bft) 93,62 %
01.08.2018 02:18 21,6 C 27,2 C 20,0 C 70 % 1014,4 hPa 0,0 l/m 4,4 km/h (1 Bft) S 180 0 min 0,000 mm 0,0 UV-I 0 W/m 15,9 C 21,6 C 4,8 km/h (1 Bft) 95,74 %
01.08.2018 02:20 21,6 C 27,2 C 20,0 C 70 % 1014,4 hPa 0,0 l/m 4,3 km/h (1 Bft) S 180 0 min 0,000 mm 0,0 UV-I 0 W/m 15,9 C 21,6 C 4,8 km/h (1 Bft) 95,74 %
01.08.2018 02:22 21,6 C 27,2 C 20,6 C 70 % 1014,4 hPa 0,0 l/m 3,6 km/h (1 Bft) S 180 0 min 0,000 mm 0,0 UV-I 0 W/m 15,9 C 21,6 C 4,8 km/h (1 Bft) 95,74 %
01.08.2018 02:24 21,4 C 27,2 C 20,6 C 71 % 1014,4 hPa 0,0 l/m 4,4 km/h (1 Bft) S 188 0 min 0,000 mm 0,0 UV-I 0 W/m 15,9 C 21,4 C 6,4 km/h (2 Bft) 95,74 %
01.08.2018 02:26 21,4 C 27,2 C 20,0 C 71 % 1014,4 hPa 0,0 l/m 5,1 km/h (1 Bft) S-SW 195 0 min 0,000 mm 0,0 UV-I 0 W/m 15,9 C 21,4 C 6,4 km/h (2 Bft) 91,67 %
01.08.2018 02:28 21,3 C 27,2 C 20,0 C 71 % 1014,4 hPa 0,0 l/m 5,1 km/h (1 Bft) S-SW 196 0 min 0,000 mm 0,0 UV-I 0 W/m 15,8 C 21,3 C 6,4 km/h (2 Bft) 91,49 %
01.08.2018 02:30 21,4 C 27,2 C 20,0 C 71 % 1014,4 hPa 0,0 l/m 3,3 km/h (1 Bft) S-SW 195 0 min 0,000 mm 0,0 UV-I 0 W/m 15,9 C 21,4 C 4,8 km/h (1 Bft) 95,74 %
01.08.2018 02:32 21,3 C 27,2 C 20,0 C 72 % 1014,5 hPa 0,0 l/m 5,3 km/h (1 Bft) O-NO 77 0 min 0,000 mm 0,0 UV-I 0 W/m 16,0 C 21,3 C 6,4 km/h (2 Bft) 94,00 %
01.08.2018 02:34 21,3 C 27,2 C 19,4 C 71 % 1014,5 hPa 0,0 l/m 3,1 km/h (1 Bft) O 88 0 min 0,000 mm 0,0 UV-I 0 W/m 15,8 C 21,3 C 6,4 km/h (2 Bft) 93,62 %
01.08.2018 02:36 21,3 C 27,2 C 19,4 C 72 % 1014,5 hPa 0,0 l/m 1,4 km/h (1 Bft) O 88 0 min 0,000 mm 0,0 UV-I 0 W/m 16,0 C 21,3 C 3,2 km/h (1 Bft) 95,74 %
01.08.2018 02:38 21,3 C 27,2 C 18,9 C 72 % 1014,5 hPa 0,0 l/m 1,6 km/h (1 Bft) O 88 0 min 0,000 mm 0,0 UV-I 0 W/m 16,0 C 21,3 C 3,2 km/h (1 Bft) 97,87 %
01.08.2018 02:40 21,3 C 27,2 C 19,4 C 72 % 1014,5 hPa 0,0 l/m 1,3 km/h (1 Bft) O 88 0 min 0,000 mm 0,0 UV-I 0 W/m 16,0 C 21,3 C 1,6 km/h (1 Bft) 97,14 %
01.08.2018 02:42 21,2 C 27,2 C 19,4 C 72 % 1014,4 hPa 0,0 l/m 2,1 km/h (1 Bft) O 88 0 min 0,000 mm 0,0 UV-I 0 W/m 15,9 C 21,2 C 3,2 km/h (1 Bft) 98,00 %
01.08.2018 02:44 21,0 C 27,2 C 19,4 C 73 % 1014,5 hPa 0,0 l/m 2,1 km/h (1 Bft) O 88 0 min 0,000 mm 0,0 UV-I 0 W/m 16,0 C 21,0 C 4,8 km/h (1 Bft) 95,74 %
01.08.2018 02:46 20,7 C 27,2 C 19,4 C 72 % 1014,5 hPa 0,0 l/m 3,7 km/h (1 Bft) O 101 0 min 0,000 mm 0,0 UV-I 0 W/m 15,5 C 20,7 C 4,8 km/h (1 Bft) 96,00 %
01.08.2018 02:48 20,7 C 27,2 C 18,9 C 73 % 1014,5 hPa 0,0 l/m 0,4 km/h (0 Bft) O 101 0 min 0,000 mm 0,0 UV-I 0 W/m 15,7 C 20,7 C 1,6 km/h (1 Bft) 100,00 %
01.08.2018 02:50 20,6 C 27,2 C 18,9 C 74 % 1014,5 hPa 0,0 l/m 0,0 km/h (0 Bft) O 101 0 min 0,000 mm 0,0 UV-I 0 W/m 15,8 C 20,6 C 1,6 km/h (1 Bft) 100,00 %
01.08.2018 02:52 20,7 C 27,2 C 18,9 C 73 % 1014,5 hPa 0,0 l/m 0,4 km/h (0 Bft) O 101 0 min 0,000 mm 0,0 UV-I 0 W/m 15,7 C 20,7 C 3,2 km/h (1 Bft) 97,87 %
01.08.2018 02:54 20,8 C 27,2 C 18,9 C 72 % 1014,5 hPa 0,0 l/m 2,0 km/h (1 Bft) O 101 0 min 0,000 mm 0,0 UV-I 0 W/m 15,6 C 20,8 C 3,2 km/h (1 Bft) 100,00 %
01.08.2018 02:56 21,1 C 27,2 C 18,9 C 72 % 1014,4 hPa 0,0 l/m 1,4 km/h (1 Bft) O 101 0 min 0,000 mm 0,0 UV-I 0 W/m 15,8 C 21,1 C 1,6 km/h (1 Bft) 100,00 %
01.08.2018 02:58 21,0 C 27,2 C 18,9 C 73 % 1014,4 hPa 0,0 l/m 1,8 km/h (1 Bft) O 101 0 min 0,000 mm 0,0 UV-I 0 W/m 16,0 C 21,0 C 3,2 km/h (1 Bft) 100,00 %
01.08.2018 03:00 20,9 C 27,2 C 18,9 C 73 % 1014,4 hPa 0,0 l/m 1,6 km/h (1 Bft) O 101 0 min 0,025 mm 0,0 UV-I 0 W/m 15,9 C 20,9 C 3,2 km/h (1 Bft) 100,00 %
01.08.2018 03:02 20,6 C 27,2 C 18,9 C 74 % 1014,4 hPa 0,0 l/m 2,1 km/h (1 Bft) O 101 0 min 0,000 mm 0,0 UV-I 0 W/m 15,8 C 20,6 C 3,2 km/h (1 Bft) 97,87 %
01.08.2018 03:04 20,4 C 27,2 C 18,9 C 74 % 1014,3 hPa 0,0 l/m 2,2 km/h (1 Bft) O 101 0 min 0,000 mm 0,0 UV-I 0 W/m 15,6 C 20,4 C 3,2 km/h (1 Bft) 95,83 %
01.08.2018 03:06 20,5 C 27,2 C 18,9 C 74 % 1014,3 hPa 0,0 l/m 1,9 km/h (1 Bft) O 101 0 min 0,000 mm 0,0 UV-I 0 W/m 15,7 C 20,5 C 3,2 km/h (1 Bft) 93,62 %
01.08.2018 03:08 20,7 C 27,2 C 18,9 C 73 % 1014,3 hPa 0,0 l/m 2,6 km/h (1 Bft) O 101 0 min 0,000 mm 0,0 UV-I 0 W/m 15,7 C 20,7 C 3,2 km/h (1 Bft) 98,00 %
01.08.2018 03:10 20,7 C 27,2 C 18,9 C 73 % 1014,3 hPa 0,0 l/m 2,6 km/h (1 Bft) O 101 0 min 0,000 mm 0,0 UV-I 0 W/m 15,7 C 20,7 C 3,2 km/h (1 Bft) 95,74 %
01.08.2018 03:12 20,6 C 27,2 C 18,9 C 73 % 1014,3 hPa 0,0 l/m 2,0 km/h (1 Bft) O 101 0 min 0,000 mm 0,0 UV-I 0 W/m 15,6 C 20,6 C 3,2 km/h (1 Bft) 95,74 %
01.08.2018 03:14 20,4 C 27,2 C 18,9 C 74 % 1014,3 hPa 0,0 l/m 2,4 km/h (1 Bft) O 101 0 min 0,000 mm 0,0 UV-I 0 W/m 15,6 C 20,4 C 3,2 km/h (1 Bft) 97,87 %
01.08.2018 03:16 20,3 C 27,2 C 18,9 C 75 % 1014,3 hPa 0,0 l/m 1,6 km/h (1 Bft) O 101 0 min 0,000 mm 0,0 UV-I 0 W/m 15,7 C 20,3 C 3,2 km/h (1 Bft) 97,37 %
01.08.2018 03:18 20,3 C 27,2 C 18,9 C 75 % 1014,3 hPa 0,0 l/m 1,3 km/h (1 Bft) O 101 0 min 0,000 mm 0,0 UV-I 0 W/m 15,7 C 20,3 C 3,2 km/h (1 Bft) 97,87 %
01.08.2018 03:20 20,3 C 27,2 C 18,9 C 75 % 1014,3 hPa 0,0 l/m 2,5 km/h (1 Bft) O-SO 102 0 min 0,000 mm 0,0 UV-I 0 W/m 15,7 C 20,3 C 4,8 km/h (1 Bft) 95,74 %
01.08.2018 03:22 20,2 C 27,2 C 18,9 C 75 % 1014,3 hPa 0,0 l/m 4,2 km/h (1 Bft) S-SO 161 0 min 0,000 mm 0,0 UV-I 0 W/m 15,6 C 20,2 C 6,4 km/h (2 Bft) 96,23 %
01.08.2018 03:24 20,2 C 27,2 C 18,9 C 76 % 1014,3 hPa 0,0 l/m 3,2 km/h (1 Bft) S-SO 161 0 min 0,000 mm 0,0 UV-I 0 W/m 15,8 C 20,2 C 6,4 km/h (2 Bft) 97,87 %
01.08.2018 03:26 20,2 C 27,2 C 18,9 C 76 % 1014,3 hPa 0,0 l/m 3,4 km/h (1 Bft) S-SO 161 0 min 0,000 mm 0,0 UV-I 0 W/m 15,8 C 20,2 C 6,4 km/h (2 Bft) 95,74 %
01.08.2018 03:28 20,3 C 27,2 C 18,9 C 76 % 1014,3 hPa 0,0 l/m 1,7 km/h (1 Bft) S-SO 161 0 min 0,000 mm 0,0 UV-I 0 W/m 15,9 C 20,3 C 3,2 km/h (1 Bft) 95,74 %
01.08.2018 03:30 20,3 C 27,2 C 18,3 C 76 % 1014,3 hPa 0,0 l/m 0,1 km/h (0 Bft) S-SO 161 0 min 0,000 mm 0,0 UV-I 0 W/m 15,9 C 20,3 C 1,6 km/h (1 Bft) 97,87 %
01.08.2018 03:32 20,2 C 27,2 C 18,3 C 75 % 1014,3 hPa 0,0 l/m 0,3 km/h (0 Bft) S-SO 161 0 min 0,000 mm 0,0 UV-I 0 W/m 15,6 C 20,2 C 1,6 km/h (1 Bft) 93,62 %
01.08.2018 03:34 20,3 C 27,2 C 18,3 C 75 % 1014,3 hPa 0,0 l/m 0,5 km/h (0 Bft) S-SO 161 0 min 0,000 mm 0,0 UV-I 0 W/m 15,7 C 20,3 C 1,6 km/h (1 Bft) 93,62 %
01.08.2018 03:36 20,3 C 27,2 C 18,3 C 76 % 1014,3 hPa 0,0 l/m 2,0 km/h (1 Bft) S-SO 161 0 min 0,000 mm 0,0 UV-I 0 W/m 15,9 C 20,3 C 3,2 km/h (1 Bft) 95,74 %
01.08.2018 03:38 20,3 C 27,2 C 18,3 C 75 % 1014,3 hPa 0,0 l/m 4,1 km/h (1 Bft) S-SO 163 0 min 0,000 mm 0,0 UV-I 0 W/m 15,7 C 20,3 C 6,4 km/h (2 Bft) 95,74 %
01.08.2018 03:40 20,2 C 27,2 C 18,3 C 75 % 1014,3 hPa 0,0 l/m 4,0 km/h (1 Bft) S-SW 200 0 min 0,000 mm 0,0 UV-I 0 W/m 15,6 C 20,2 C 6,4 km/h (2 Bft) 95,74 %
01.08.2018 03:42 20,1 C 27,2 C 18,3 C 76 % 1014,4 hPa 0,0 l/m 3,3 km/h (1 Bft) S-SW 200 0 min 0,000 mm 0,0 UV-I 0 W/m 15,7 C 20,1 C 4,8 km/h (1 Bft) 97,92 %
01.08.2018 03:44 20,1 C 27,2 C 18,3 C 76 % 1014,4 hPa 0,0 l/m 2,8 km/h (1 Bft) S-SW 200 0 min 0,000 mm 0,0 UV-I 0 W/m 15,7 C 20,1 C 4,8 km/h (1 Bft) 93,62 %
01.08.2018 03:46 20,1 C 27,2 C 18,3 C 77 % 1014,4 hPa 0,0 l/m 2,9 km/h (1 Bft) S-SW 200 0 min 0,000 mm 0,0 UV-I 0 W/m 15,9 C 20,1 C 4,8 km/h (1 Bft) 95,74 %
01.08.2018 03:48 19,9 C 27,2 C 18,3 C 77 % 1014,4 hPa 0,0 l/m 2,0 km/h (1 Bft) S-SW 200 0 min 0,000 mm 0,0 UV-I 0 W/m 15,7 C 19,9 C 3,2 km/h (1 Bft) 94,29 %
01.08.2018 03:50 19,8 C 27,2 C 18,3 C 78 % 1014,4 hPa 0,0 l/m 1,9 km/h (1 Bft) S-SW 200 0 min 0,000 mm 0,0 UV-I 0 W/m 15,8 C 19,8 C 3,2 km/h (1 Bft) 93,62 %
01.08.2018 03:52 19,9 C 27,2 C 18,3 C 77 % 1014,4 hPa 0,0 l/m 2,2 km/h (1 Bft) S-SW 200 0 min 0,000 mm 0,0 UV-I 0 W/m 15,7 C 19,9 C 3,2 km/h (1 Bft) 93,62 %
01.08.2018 03:54 19,9 C 27,2 C 17,8 C 77 % 1014,3 hPa 0,0 l/m 2,1 km/h (1 Bft) S-SW 200 0 min 0,000 mm 0,0 UV-I 0 W/m 15,7 C 19,9 C 3,2 km/h (1 Bft) 93,62 %
01.08.2018 03:56 20,1 C 27,2 C 17,8 C 77 % 1014,3 hPa 0,0 l/m 2,6 km/h (1 Bft) S-SW 200 0 min 0,000 mm 0,0 UV-I 0 W/m 15,9 C 20,1 C 3,2 km/h (1 Bft) 93,62 %
01.08.2018 03:58 20,1 C 27,2 C 17,8 C 77 % 1014,3 hPa 0,0 l/m 1,6 km/h (1 Bft) S-SW 200 0 min 0,000 mm 0,0 UV-I 0 W/m 15,9 C 20,1 C 3,2 km/h (1 Bft) 95,74 %
01.08.2018 04:00 20,1 C 27,2 C 17,8 C 77 % 1014,3 hPa 0,0 l/m 0,1 km/h (0 Bft) S-SW 200 0 min 0,025 mm 0,0 UV-I 0 W/m 15,9 C 20,1 C 1,6 km/h (1 Bft) 93,62 %
01.08.2018 04:02 20,1 C 27,2 C 17,8 C 77 % 1014,3 hPa 0,0 l/m 0,4 km/h (0 Bft) S-SW 200 0 min 0,000 mm 0,0 UV-I 0 W/m 15,9 C 20,1 C 1,6 km/h (1 Bft) 93,94 %
01.08.2018 04:04 20,1 C 27,2 C 17,8 C 77 % 1014,3 hPa 0,0 l/m 1,7 km/h (1 Bft) S-SW 200 0 min 0,000 mm 0,0 UV-I 0 W/m 15,9 C 20,1 C 3,2 km/h (1 Bft) 95,74 %
01.08.2018 04:06 20,0 C 27,2 C 17,8 C 77 % 1014,3 hPa 0,0 l/m 2,0 km/h (1 Bft) S-SW 200 0 min 0,000 mm 0,0 UV-I 0 W/m 15,8 C 20,0 C 3,2 km/h (1 Bft) 95,74 %
01.08.2018 04:08 19,7 C 27,2 C 17,8 C 78 % 1014,3 hPa 0,0 l/m 2,7 km/h (1 Bft) S-SW 200 0 min 0,000 mm 0,0 UV-I 0 W/m 15,8 C 19,7 C 3,2 km/h (1 Bft) 97,87 %
01.08.2018 04:10 19,6 C 27,2 C 17,8 C 79 % 1014,4 hPa 0,0 l/m 2,8 km/h (1 Bft) S-SW 200 0 min 0,000 mm 0,0 UV-I 0 W/m 15,9 C 19,6 C 3,2 km/h (1 Bft) 97,87 %
01.08.2018 04:12 19,5 C 27,2 C 17,8 C 78 % 1014,4 hPa 0,0 l/m 3,0 km/h (1 Bft) S-SW 200 0 min 0,000 mm 0,0 UV-I 0 W/m 15,6 C 19,5 C 4,8 km/h (1 Bft) 95,74 %
01.08.2018 04:14 19,5 C 27,2 C 17,8 C 78 % 1014,5 hPa 0,0 l/m 2,9 km/h (1 Bft) S-SW 200 0 min 0,000 mm 0,0 UV-I 0 W/m 15,6 C 19,5 C 4,8 km/h (1 Bft) 95,83 %
01.08.2018 04:16 19,4 C 27,2 C 17,8 C 79 % 1014,4 hPa 0,0 l/m 3,3 km/h (1 Bft) S-SW 200 0 min 0,000 mm 0,0 UV-I 0 W/m 15,7 C 19,4 C 4,8 km/h (1 Bft) 97,96 %
01.08.2018 04:18 19,4 C 27,2 C 17,8 C 78 % 1014,4 hPa 0,0 l/m 3,4 km/h (1 Bft) S-SW 200 0 min 0,000 mm 0,0 UV-I 0 W/m 15,5 C 19,4 C 4,8 km/h (1 Bft) 97,22 %
01.08.2018 04:20 19,5 C 27,2 C 17,8 C 78 % 1014,4 hPa 0,0 l/m 1,6 km/h (1 Bft) S-SW 200 0 min 0,000 mm 0,0 UV-I 0 W/m 15,6 C 19,5 C 3,2 km/h (1 Bft) 98,39 %
01.08.2018 04:22 19,6 C 27,2 C 17,8 C 78 % 1014,4 hPa 0,0 l/m 2,4 km/h (1 Bft) S-SW 200 0 min 0,000 mm 0,0 UV-I 0 W/m 15,7 C 19,6 C 3,2 km/h (1 Bft) 97,87 %
01.08.2018 04:24 19,7 C 27,2 C 17,8 C 78 % 1014,4 hPa 0,0 l/m 1,9 km/h (1 Bft) S-SW 200 0 min 0,000 mm 0,0 UV-I 0 W/m 15,8 C 19,7 C 3,2 km/h (1 Bft) 97,37 %
01.08.2018 04:26 19,6 C 27,2 C 17,8 C 78 % 1014,5 hPa 0,0 l/m 3,1 km/h (1 Bft) S-SW 200 0 min 0,000 mm 0,0 UV-I 0 W/m 15,7 C 19,6 C 4,8 km/h (1 Bft) 98,00 %
01.08.2018 04:28 19,4 C 27,2 C 17,8 C 79 % 1014,4 hPa 0,0 l/m 2,1 km/h (1 Bft) S-SW 200 0 min 0,000 mm 0,0 UV-I 0 W/m 15,7 C 19,4 C 3,2 km/h (1 Bft) 93,62 %
01.08.2018 04:30 19,2 C 27,2 C 17,8 C 79 % 1014,4 hPa 0,0 l/m 2,9 km/h (1 Bft) S-SW 200 0 min 0,000 mm 0,0 UV-I 0 W/m 15,5 C 19,2 C 4,8 km/h (1 Bft) 95,74 %
01.08.2018 04:32 19,3 C 27,2 C 17,8 C 80 % 1014,4 hPa 0,0 l/m 2,7 km/h (1 Bft) S-SW 200 0 min 0,000 mm 0,0 UV-I 0 W/m 15,8 C 19,3 C 4,8 km/h (1 Bft) 98,00 %
01.08.2018 04:34 19,2 C 27,2 C 17,8 C 79 % 1014,4 hPa 0,0 l/m 2,3 km/h (1 Bft) S-SW 200 0 min 0,000 mm 0,0 UV-I 0 W/m 15,5 C 19,2 C 3,2 km/h (1 Bft) 97,87 %
01.08.2018 04:36 19,2 C 27,2 C 17,8 C 79 % 1014,4 hPa 0,0 l/m 2,6 km/h (1 Bft) S-SW 200 0 min 0,000 mm 0,0 UV-I 0 W/m 15,5 C 19,2 C 3,2 km/h (1 Bft) 97,87 %
01.08.2018 04:38 19,5 C 27,2 C 17,8 C 79 % 1014,5 hPa 0,0 l/m 2,0 km/h (1 Bft) S-SW 200 0 min 0,000 mm 0,0 UV-I 0 W/m 15,8 C 19,5 C 3,2 km/h (1 Bft) 97,87 %
01.08.2018 04:40 19,6 C 27,2 C 17,2 C 79 % 1014,5 hPa 0,0 l/m 2,2 km/h (1 Bft) S-SW 200 0 min 0,000 mm 0,0 UV-I 0 W/m 15,9 C 19,6 C 3,2 km/h (1 Bft) 97,87 %
01.08.2018 04:42 19,7 C 27,2 C 17,2 C 78 % 1014,6 hPa 0,0 l/m 2,7 km/h (1 Bft) S-SW 201 0 min 0,000 mm 0,0 UV-I 0 W/m 15,8 C 19,7 C 3,2 km/h (1 Bft) 100,00 %
01.08.2018 04:44 19,7 C 27,2 C 17,8 C 78 % 1014,6 hPa 0,0 l/m 2,2 km/h (1 Bft) S-SW 201 0 min 0,000 mm 0,0 UV-I 0 W/m 15,8 C 19,7 C 3,2 km/h (1 Bft) 100,00 %
01.08.2018 04:46 19,6 C 26,7 C 17,8 C 78 % 1014,6 hPa 0,0 l/m 1,2 km/h (1 Bft) S-SW 201 0 min 0,000 mm 0,0 UV-I 0 W/m 15,7 C 19,6 C 1,6 km/h (1 Bft) 100,00 %
01.08.2018 04:48 19,6 C 26,7 C 17,2 C 78 % 1014,7 hPa 0,0 l/m 1,9 km/h (1 Bft) S-SW 201 0 min 0,000 mm 0,0 UV-I 0 W/m 15,7 C 19,6 C 3,2 km/h (1 Bft) 97,37 %
01.08.2018 04:50 19,6 C 26,7 C 17,2 C 78 % 1014,7 hPa 0,0 l/m 3,1 km/h (1 Bft) S-SW 201 0 min 0,000 mm 0,0 UV-I 0 W/m 15,7 C 19,6 C 4,8 km/h (1 Bft) 100,00 %
01.08.2018 04:52 19,6 C 26,7 C 17,8 C 79 % 1014,7 hPa 0,0 l/m 3,6 km/h (1 Bft) S-SW 201 0 min 0,000 mm 0,0 UV-I 0 W/m 15,9 C 19,6 C 4,8 km/h (1 Bft) 100,00 %
01.08.2018 04:54 19,5 C 26,7 C 17,8 C 79 % 1014,7 hPa 0,0 l/m 5,3 km/h (1 Bft) S-SW 202 0 min 0,000 mm 0,0 UV-I 0 W/m 15,8 C 19,5 C 6,4 km/h (2 Bft) 97,92 %
01.08.2018 04:56 19,4 C 26,7 C 17,8 C 79 % 1014,7 hPa 0,0 l/m 4,8 km/h (1 Bft) S-SW 202 0 min 0,000 mm 0,0 UV-I 0 W/m 15,7 C 19,4 C 6,4 km/h (2 Bft) 100,00 %
01.08.2018 04:58 19,3 C 26,7 C 17,8 C 80 % 1014,8 hPa 0,0 l/m 3,3 km/h (1 Bft) S-SW 202 0 min 0,000 mm 0,0 UV-I 0 W/m 15,8 C 19,3 C 4,8 km/h (1 Bft) 95,74 %
01.08.2018 05:00 19,3 C 26,7 C 17,8 C 80 % 1014,7 hPa 0,0 l/m 2,3 km/h (1 Bft) S-SW 202 0 min 0,026 mm 0,0 UV-I 0 W/m 15,8 C 19,3 C 3,2 km/h (1 Bft) 100,00 %
01.08.2018 05:02 19,3 C 26,7 C 17,8 C 80 % 1014,7 hPa 0,0 l/m 3,2 km/h (1 Bft) S-SW 202 0 min 0,000 mm 0,0 UV-I 0 W/m 15,8 C 19,3 C 4,8 km/h (1 Bft) 100,00 %
01.08.2018 05:04 19,1 C 26,7 C 17,8 C 80 % 1014,7 hPa 0,0 l/m 2,4 km/h (1 Bft) S-SW 202 0 min 0,000 mm 0,0 UV-I 0 W/m 15,6 C 19,1 C 4,8 km/h (1 Bft) 100,00 %
01.08.2018 05:06 18,9 C 26,7 C 17,8 C 81 % 1014,7 hPa 0,0 l/m 2,2 km/h (1 Bft) S-SW 202 0 min 0,000 mm 0,0 UV-I 0 W/m 15,6 C 18,9 C 3,2 km/h (1 Bft) 100,00 %
01.08.2018 05:08 18,9 C 26,7 C 17,8 C 81 % 1014,7 hPa 0,0 l/m 3,0 km/h (1 Bft) S-SW 202 0 min 0,000 mm 0,0 UV-I 0 W/m 15,6 C 18,9 C 4,8 km/h (1 Bft) 100,00 %
01.08.2018 05:10 19,1 C 26,7 C 17,8 C 81 % 1014,7 hPa 0,0 l/m 3,4 km/h (1 Bft) S-SW 202 0 min 0,000 mm 0,0 UV-I 0 W/m 15,8 C 19,1 C 4,8 km/h (1 Bft) 100,00 %
01.08.2018 05:12 19,1 C 26,7 C 17,8 C 80 % 1014,7 hPa 0,0 l/m 2,9 km/h (1 Bft) S-SW 202 0 min 0,000 mm 0,0 UV-I 0 W/m 15,6 C 19,1 C 4,8 km/h (1 Bft) 97,87 %
01.08.2018 05:14 19,1 C 26,7 C 17,8 C 81 % 1014,7 hPa 0,0 l/m 2,6 km/h (1 Bft) S-SW 202 0 min 0,000 mm 0,0 UV-I 0 W/m 15,8 C 19,1 C 3,2 km/h (1 Bft) 97,87 %
01.08.2018 05:16 19,1 C 26,7 C 17,8 C 81 % 1014,8 hPa 0,0 l/m 2,0 km/h (1 Bft) S-SW 202 0 min 0,000 mm 0,0 UV-I 0 W/m 15,8 C 19,1 C 3,2 km/h (1 Bft) 95,74 %
01.08.2018 05:18 19,1 C 26,7 C 17,2 C 81 % 1014,8 hPa 0,0 l/m 2,8 km/h (1 Bft) S-SW 202 0 min 0,000 mm 0,0 UV-I 0 W/m 15,8 C 19,1 C 3,2 km/h (1 Bft) 97,87 %
01.08.2018 05:20 19,2 C 26,7 C 17,8 C 80 % 1014,8 hPa 0,0 l/m 3,2 km/h (1 Bft) S-SW 202 0 min 0,000 mm 0,0 UV-I 0 W/m 15,7 C 19,2 C 4,8 km/h (1 Bft) 97,37 %
01.08.2018 05:22 19,2 C 26,7 C 17,2 C 80 % 1014,7 hPa 0,0 l/m 3,2 km/h (1 Bft) S-SW 202 0 min 0,000 mm 0,0 UV-I 0 W/m 15,7 C 19,2 C 4,8 km/h (1 Bft) 97,87 %
01.08.2018 05:24 19,2 C 26,7 C 17,2 C 80 % 1014,8 hPa 0,0 l/m 3,2 km/h (1 Bft) S-SW 202 0 min 0,000 mm 0,0 UV-I 0 W/m 15,7 C 19,2 C 3,2 km/h (1 Bft) 97,87 %
01.08.2018 05:26 19,1 C 26,7 C 17,2 C 80 % 1014,8 hPa 0,0 l/m 3,3 km/h (1 Bft) S-SW 202 0 min 0,000 mm 0,0 UV-I 4 W/m 15,6 C 19,1 C 4,8 km/h (1 Bft) 96,00 %
01.08.2018 05:28 19,1 C 26,7 C 17,2 C 81 % 1014,8 hPa 0,0 l/m 2,7 km/h (1 Bft) S-SW 202 0 min 0,000 mm 0,0 UV-I 5 W/m 15,8 C 19,1 C 4,8 km/h (1 Bft) 100,00 %
01.08.2018 05:30 18,8 C 26,7 C 17,2 C 81 % 1014,7 hPa 0,0 l/m 1,2 km/h (1 Bft) S-SW 202 0 min 0,000 mm 0,0 UV-I 5 W/m 15,5 C 18,8 C 3,2 km/h (1 Bft) 97,87 %
01.08.2018 05:32 18,8 C 26,7 C 17,2 C 82 % 1014,8 hPa 0,0 l/m 2,1 km/h (1 Bft) S-SW 202 0 min 0,000 mm 0,0 UV-I 5 W/m 15,7 C 18,8 C 3,2 km/h (1 Bft) 97,87 %
01.08.2018 05:34 18,8 C 26,7 C 17,2 C 82 % 1014,7 hPa 0,0 l/m 1,1 km/h (1 Bft) S-SW 202 0 min 0,000 mm 0,0 UV-I 5 W/m 15,7 C 18,8 C 3,2 km/h (1 Bft) 96,00 %
01.08.2018 05:36 18,8 C 26,7 C 16,7 C 82 % 1014,8 hPa 0,0 l/m 0,0 km/h (0 Bft) S-SW 202 0 min 0,000 mm 0,0 UV-I 5 W/m 15,7 C 18,8 C 0,0 km/h (0 Bft) 97,92 %
01.08.2018 05:38 18,8 C 26,7 C 16,7 C 81 % 1014,8 hPa 0,0 l/m 0,0 km/h (0 Bft) S-SW 202 0 min 0,000 mm 0,0 UV-I 5 W/m 15,5 C 18,8 C 0,0 km/h (0 Bft) 97,87 %
01.08.2018 05:40 18,9 C 26,7 C 16,7 C 81 % 1014,8 hPa 0,0 l/m 0,0 km/h (0 Bft) S-SW 202 0 min 0,000 mm 0,0 UV-I 8 W/m 15,6 C 18,9 C 0,0 km/h (0 Bft) 100,00 %
01.08.2018 05:42 19,1 C 26,7 C 16,7 C 81 % 1014,8 hPa 0,0 l/m 0,0 km/h (0 Bft) S-SW 202 0 min 0,000 mm 0,0 UV-I 9 W/m 15,8 C 19,1 C 0,0 km/h (0 Bft) 98,11 %
01.08.2018 05:44 19,0 C 26,7 C 16,7 C 80 % 1014,8 hPa 0,0 l/m 0,0 km/h (0 Bft) S-SW 202 0 min 0,000 mm 0,0 UV-I 11 W/m 15,5 C 19,0 C 0,0 km/h (0 Bft) 100,00 %
01.08.2018 05:46 18,9 C 26,7 C 16,7 C 81 % 1014,8 hPa 0,0 l/m 2,3 km/h (1 Bft) S-SW 202 0 min 0,000 mm 0,0 UV-I 11 W/m 15,6 C 18,9 C 3,2 km/h (1 Bft) 100,00 %
01.08.2018 05:48 18,9 C 26,7 C 17,2 C 81 % 1014,8 hPa 0,0 l/m 2,4 km/h (1 Bft) S-SW 202 0 min 0,000 mm 0,0 UV-I 12 W/m 15,6 C 18,9 C 3,2 km/h (1 Bft) 100,00 %
01.08.2018 05:50 18,9 C 26,7 C 17,2 C 81 % 1014,8 hPa 0,0 l/m 3,3 km/h (1 Bft) S-SW 202 0 min 0,000 mm 0,0 UV-I 13 W/m 15,6 C 18,9 C 4,8 km/h (1 Bft) 100,00 %
01.08.2018 05:52 18,8 C 26,7 C 17,2 C 81 % 1014,8 hPa 0,0 l/m 3,9 km/h (1 Bft) S-SW 202 2 min 0,000 mm 0,0 UV-I 17 W/m 15,5 C 18,8 C 4,8 km/h (1 Bft) 100,00 %
01.08.2018 05:54 18,7 C 26,7 C 17,2 C 82 % 1014,9 hPa 0,0 l/m 3,7 km/h (1 Bft) S-SW 202 2 min 0,000 mm 0,0 UV-I 20 W/m 15,6 C 18,7 C 4,8 km/h (1 Bft) 100,00 %
01.08.2018 05:56 18,6 C 26,7 C 17,2 C 82 % 1014,9 hPa 0,0 l/m 4,8 km/h (1 Bft) S-SW 202 2 min 0,000 mm 0,0 UV-I 24 W/m 15,5 C 18,6 C 6,4 km/h (2 Bft) 100,00 %
01.08.2018 05:58 18,4 C 26,7 C 17,8 C 83 % 1014,9 hPa 0,0 l/m 5,3 km/h (1 Bft) S-SW 202 2 min 0,000 mm 0,0 UV-I 26 W/m 15,5 C 18,4 C 6,4 km/h (2 Bft) 100,00 %
01.08.2018 06:00 18,4 C 26,7 C 17,8 C 83 % 1014,9 hPa 0,0 l/m 4,6 km/h (1 Bft) S-SW 202 2 min 0,025 mm 0,0 UV-I 29 W/m 15,5 C 18,4 C 6,4 km/h (2 Bft) 100,00 %
01.08.2018 06:02 18,6 C 26,7 C 17,8 C 82 % 1014,9 hPa 0,0 l/m 3,9 km/h (1 Bft) S-SW 202 2 min 0,000 mm 0,0 UV-I 32 W/m 15,5 C 18,6 C 4,8 km/h (1 Bft) 97,87 %
01.08.2018 06:04 18,8 C 26,7 C 17,8 C 82 % 1014,9 hPa 0,0 l/m 3,9 km/h (1 Bft) S-SW 202 2 min 0,000 mm 0,0 UV-I 34 W/m 15,7 C 18,8 C 4,8 km/h (1 Bft) 100,00 %
01.08.2018 06:06 18,8 C 26,7 C 17,8 C 82 % 1014,9 hPa 0,0 l/m 4,7 km/h (1 Bft) S-SW 202 2 min 0,000 mm 0,0 UV-I 37 W/m 15,7 C 18,8 C 4,8 km/h (1 Bft) 100,00 %
01.08.2018 06:08 18,9 C 26,7 C 18,3 C 81 % 1014,9 hPa 0,0 l/m 4,8 km/h (1 Bft) S-SW 203 2 min 0,000 mm 0,0 UV-I 39 W/m 15,6 C 18,9 C 6,4 km/h (2 Bft) 95,74 %
01.08.2018 06:10 18,9 C 26,7 C 18,3 C 81 % 1014,9 hPa 0,0 l/m 3,3 km/h (1 Bft) S-SW 203 2 min 0,000 mm 0,0 UV-I 42 W/m 15,6 C 18,9 C 4,8 km/h (1 Bft) 97,44 %
01.08.2018 06:12 18,9 C 26,7 C 18,3 C 81 % 1014,9 hPa 0,0 l/m 2,4 km/h (1 Bft) S-SW 203 2 min 0,000 mm 0,0 UV-I 46 W/m 15,6 C 18,9 C 3,2 km/h (1 Bft) 97,87 %
01.08.2018 06:14 18,9 C 26,7 C 18,3 C 81 % 1014,9 hPa 0,0 l/m 2,3 km/h (1 Bft) S-SW 203 2 min 0,000 mm 0,0 UV-I 49 W/m 15,6 C 18,9 C 3,2 km/h (1 Bft) 95,74 %
01.08.2018 06:16 18,8 C 26,7 C 18,3 C 81 % 1014,9 hPa 0,0 l/m 2,6 km/h (1 Bft) S-SW 203 2 min 0,000 mm 0,0 UV-I 52 W/m 15,5 C 18,8 C 4,8 km/h (1 Bft) 98,00 %
01.08.2018 06:18 18,7 C 26,7 C 18,3 C 82 % 1014,9 hPa 0,0 l/m 4,2 km/h (1 Bft) S-SW 203 2 min 0,000 mm 0,0 UV-I 55 W/m 15,6 C 18,7 C 6,4 km/h (2 Bft) 95,74 %
01.08.2018 06:20 18,8 C 26,7 C 18,3 C 82 % 1014,9 hPa 0,0 l/m 3,1 km/h (1 Bft) S-SW 203 2 min 0,000 mm 0,0 UV-I 59 W/m 15,7 C 18,8 C 4,8 km/h (1 Bft) 95,74 %
01.08.2018 06:22 18,8 C 26,7 C 18,3 C 82 % 1014,9 hPa 0,0 l/m 2,3 km/h (1 Bft) S-SW 203 2 min 0,000 mm 0,0 UV-I 63 W/m 15,7 C 18,8 C 4,8 km/h (1 Bft) 95,74 %
01.08.2018 06:24 18,9 C 26,7 C 18,3 C 81 % 1014,8 hPa 0,0 l/m 3,0 km/h (1 Bft) S-SW 203 2 min 0,000 mm 0,0 UV-I 67 W/m 15,6 C 18,9 C 4,8 km/h (1 Bft) 97,87 %
01.08.2018 06:26 19,1 C 26,7 C 18,3 C 80 % 1014,8 hPa 0,0 l/m 2,8 km/h (1 Bft) S-SW 203 2 min 0,000 mm 0,0 UV-I 70 W/m 15,6 C 19,1 C 4,8 km/h (1 Bft) 95,74 %
01.08.2018 06:28 19,3 C 26,7 C 18,9 C 80 % 1014,9 hPa 0,0 l/m 3,4 km/h (1 Bft) S-SW 203 2 min 0,000 mm 0,0 UV-I 74 W/m 15,8 C 19,3 C 4,8 km/h (1 Bft) 97,87 %
01.08.2018 06:30 19,5 C 26,7 C 18,9 C 79 % 1014,9 hPa 0,0 l/m 3,3 km/h (1 Bft) S-SW 203 2 min 0,000 mm 0,0 UV-I 76 W/m 15,8 C 19,5 C 4,8 km/h (1 Bft) 93,62 %
01.08.2018 06:32 19,5 C 26,7 C 18,9 C 79 % 1014,9 hPa 0,0 l/m 2,3 km/h (1 Bft) S-SW 203 2 min 0,000 mm 0,0 UV-I 76 W/m 15,8 C 19,5 C 3,2 km/h (1 Bft) 98,00 %
01.08.2018 06:34 19,5 C 26,7 C 18,9 C 79 % 1014,8 hPa 0,0 l/m 1,4 km/h (1 Bft) S-SW 203 2 min 0,000 mm 0,0 UV-I 80 W/m 15,8 C 19,5 C 1,6 km/h (1 Bft) 97,87 %
01.08.2018 06:36 19,6 C 26,7 C 18,9 C 79 % 1014,9 hPa 0,0 l/m 1,7 km/h (1 Bft) S-SW 203 2 min 0,000 mm 0,0 UV-I 84 W/m 15,9 C 19,6 C 3,2 km/h (1 Bft) 97,87 %
01.08.2018 06:38 19,6 C 26,7 C 18,9 C 79 % 1014,8 hPa 0,0 l/m 2,7 km/h (1 Bft) S-SW 203 0 min 0,000 mm 0,0 UV-I 76 W/m 15,9 C 19,6 C 4,8 km/h (1 Bft) 95,74 %
01.08.2018 06:40 19,7 C 26,7 C 18,9 C 79 % 1014,8 hPa 0,0 l/m 3,0 km/h (1 Bft) S-SW 203 2 min 0,000 mm 0,0 UV-I 80 W/m 16,0 C 19,7 C 4,8 km/h (1 Bft) 94,29 %
01.08.2018 06:42 19,6 C 26,7 C 18,9 C 79 % 1014,9 hPa 0,0 l/m 3,2 km/h (1 Bft) S-SW 203 0 min 0,000 mm 0,0 UV-I 82 W/m 15,9 C 19,6 C 4,8 km/h (1 Bft) 96,00 %
01.08.2018 06:44 19,5 C 26,7 C 18,9 C 80 % 1014,9 hPa 0,0 l/m 2,4 km/h (1 Bft) S-SW 203 2 min 0,000 mm 0,0 UV-I 97 W/m 16,0 C 19,5 C 4,8 km/h (1 Bft) 93,75 %
01.08.2018 06:46 19,5 C 26,7 C 19,4 C 80 % 1014,9 hPa 0,0 l/m 0,4 km/h (0 Bft) S-SW 203 2 min 0,000 mm 0,0 UV-I 102 W/m 16,0 C 19,5 C 1,6 km/h (1 Bft) 93,62 %
01.08.2018 06:48 19,5 C 26,7 C 19,4 C 80 % 1014,9 hPa 0,0 l/m 2,6 km/h (1 Bft) S-SW 203 2 min 0,000 mm 0,0 UV-I 104 W/m 16,0 C 19,5 C 4,8 km/h (1 Bft) 93,62 %
01.08.2018 06:50 19,5 C 26,7 C 19,4 C 80 % 1014,9 hPa 0,0 l/m 3,3 km/h (1 Bft) S-SW 203 2 min 0,000 mm 0,0 UV-I 110 W/m 16,0 C 19,5 C 4,8 km/h (1 Bft) 91,49 %
01.08.2018 06:52 19,6 C 26,7 C 19,4 C 80 % 1014,9 hPa 0,0 l/m 3,5 km/h (1 Bft) S-SW 203 2 min 0,000 mm 0,0 UV-I 115 W/m 16,1 C 19,6 C 6,4 km/h (2 Bft) 93,62 %
01.08.2018 06:54 19,6 C 26,7 C 20,0 C 79 % 1014,9 hPa 0,0 l/m 4,0 km/h (1 Bft) S-SW 203 2 min 0,000 mm 0,0 UV-I 116 W/m 15,9 C 19,6 C 4,8 km/h (1 Bft) 95,74 %
01.08.2018 06:56 19,8 C 26,7 C 20,0 C 79 % 1014,9 hPa 0,0 l/m 2,9 km/h (1 Bft) S-SW 203 2 min 0,000 mm 0,0 UV-I 125 W/m 16,0 C 19,8 C 4,8 km/h (1 Bft) 97,96 %
01.08.2018 06:58 19,9 C 26,7 C 20,0 C 79 % 1014,9 hPa 0,0 l/m 1,1 km/h (1 Bft) S-SW 203 2 min 0,000 mm 0,0 UV-I 130 W/m 16,1 C 19,9 C 3,2 km/h (1 Bft) 95,74 %
01.08.2018 07:00 20,0 C 26,7 C 20,0 C 78 % 1014,9 hPa 0,0 l/m 1,1 km/h (1 Bft) S-SW 203 2 min 0,051 mm 0,0 UV-I 133 W/m 16,0 C 20,0 C 3,2 km/h (1 Bft) 95,74 %
01.08.2018 07:02 20,1 C 26,7 C 20,0 C 78 % 1014,9 hPa 0,0 l/m 1,6 km/h (1 Bft) S-SW 203 2 min 0,000 mm 0,0 UV-I 133 W/m 16,1 C 20,1 C 3,2 km/h (1 Bft) 94,00 %
01.08.2018 07:04 20,2 C 26,7 C 20,6 C 77 % 1014,9 hPa 0,0 l/m 1,5 km/h (1 Bft) S-SW 203 2 min 0,000 mm 0,0 UV-I 144 W/m 16,0 C 20,2 C 3,2 km/h (1 Bft) 97,87 %
01.08.2018 07:06 20,3 C 26,7 C 20,6 C 77 % 1014,9 hPa 0,0 l/m 1,9 km/h (1 Bft) S-SW 203 2 min 0,000 mm 0,0 UV-I 144 W/m 16,1 C 20,3 C 3,2 km/h (1 Bft) 95,92 %
01.08.2018 07:08 20,5 C 26,7 C 20,6 C 76 % 1014,9 hPa 0,0 l/m 1,7 km/h (1 Bft) S-SW 203 2 min 0,000 mm 0,0 UV-I 138 W/m 16,1 C 20,5 C 3,2 km/h (1 Bft) 97,56 %
01.08.2018 07:10 20,7 C 26,7 C 20,6 C 76 % 1014,9 hPa 0,0 l/m 1,2 km/h (1 Bft) S-SW 203 2 min 0,000 mm 0,0 UV-I 148 W/m 16,3 C 20,7 C 1,6 km/h (1 Bft) 94,00 %
01.08.2018 07:12 20,7 C 26,7 C 20,6 C 74 % 1014,9 hPa 0,0 l/m 2,0 km/h (1 Bft) S-SW 203 2 min 0,000 mm 0,0 UV-I 155 W/m 15,9 C 20,7 C 4,8 km/h (1 Bft) 95,74 %
01.08.2018 07:14 20,9 C 26,7 C 21,1 C 75 % 1014,9 hPa 0,0 l/m 2,7 km/h (1 Bft) S-SW 203 2 min 0,000 mm 0,0 UV-I 162 W/m 16,3 C 20,9 C 4,8 km/h (1 Bft) 98,00 %
01.08.2018 07:16 20,9 C 26,7 C 21,1 C 76 % 1014,9 hPa 0,0 l/m 1,8 km/h (1 Bft) S-SW 203 2 min 0,000 mm 0,0 UV-I 170 W/m 16,5 C 20,9 C 4,8 km/h (1 Bft) 95,74 %
01.08.2018 07:18 21,1 C 26,7 C 21,1 C 75 % 1015,0 hPa 0,0 l/m 0,6 km/h (0 Bft) S-SW 203 2 min 0,000 mm 0,0 UV-I 177 W/m 16,5 C 21,1 C 1,6 km/h (1 Bft) 97,14 %
01.08.2018 07:20 21,1 C 26,7 C 21,1 C 74 % 1015,0 hPa 0,0 l/m 1,7 km/h (1 Bft) S-SW 203 2 min 0,000 mm 0,0 UV-I 184 W/m 16,3 C 21,1 C 3,2 km/h (1 Bft) 98,00 %
01.08.2018 07:22 21,2 C 26,7 C 21,1 C 73 % 1015,0 hPa 0,0 l/m 3,3 km/h (1 Bft) S-SW 203 2 min 0,000 mm 0,0 UV-I 190 W/m 16,2 C 21,2 C 4,8 km/h (1 Bft) 98,00 %
01.08.2018 07:24 21,2 C 26,7 C 21,1 C 73 % 1015,0 hPa 0,0 l/m 2,7 km/h (1 Bft) S-SW 203 2 min 0,000 mm 0,0 UV-I 188 W/m 16,2 C 21,2 C 4,8 km/h (1 Bft) 98,00 %
01.08.2018 07:26 21,2 C 26,7 C 21,1 C 74 % 1015,1 hPa 0,0 l/m 2,9 km/h (1 Bft) S-SW 203 2 min 0,000 mm 0,0 UV-I 198 W/m 16,4 C 21,2 C 4,8 km/h (1 Bft) 97,22 %
01.08.2018 07:28 21,2 C 26,7 C 21,7 C 74 % 1015,1 hPa 0,0 l/m 2,3 km/h (1 Bft) S-SW 203 2 min 0,000 mm 0,0 UV-I 204 W/m 16,4 C 21,2 C 3,2 km/h (1 Bft) 98,00 %
01.08.2018 07:30 21,3 C 26,7 C 21,7 C 75 % 1015,1 hPa 0,0 l/m 1,8 km/h (1 Bft) S-SW 203 2 min 0,000 mm 0,0 UV-I 211 W/m 16,7 C 21,3 C 3,2 km/h (1 Bft) 97,87 %
01.08.2018 07:32 21,4 C 26,7 C 21,7 C 75 % 1015,1 hPa 0,0 l/m 1,4 km/h (1 Bft) S-SW 203 2 min 0,000 mm 0,5 UV-I 210 W/m 16,8 C 21,4 C 3,2 km/h (1 Bft) 95,74 %
01.08.2018 07:34 21,4 C 26,7 C 21,7 C 75 % 1015,1 hPa 0,0 l/m 2,5 km/h (1 Bft) S-SW 203 2 min 0,000 mm 0,5 UV-I 215 W/m 16,8 C 21,4 C 4,8 km/h (1 Bft) 93,62 %
01.08.2018 07:36 21,4 C 26,7 C 21,7 C 75 % 1015,1 hPa 0,0 l/m 2,1 km/h (1 Bft) S-SW 203 2 min 0,000 mm 0,5 UV-I 220 W/m 16,8 C 21,4 C 3,2 km/h (1 Bft) 93,62 %
01.08.2018 07:38 21,6 C 26,7 C 22,2 C 75 % 1015,2 hPa 0,0 l/m 0,7 km/h (0 Bft) S-SW 203 2 min 0,000 mm 0,5 UV-I 225 W/m 17,0 C 21,6 C 3,2 km/h (1 Bft) 100,00 %
01.08.2018 07:40 21,8 C 26,7 C 22,2 C 73 % 1015,2 hPa 0,0 l/m 0,0 km/h (0 Bft) S-SW 203 2 min 0,000 mm 0,5 UV-I 232 W/m 16,7 C 21,8 C 0,0 km/h (0 Bft) 97,87 %
01.08.2018 07:42 22,1 C 26,7 C 22,2 C 71 % 1015,1 hPa 0,0 l/m 0,4 km/h (0 Bft) S-SW 203 2 min 0,000 mm 0,5 UV-I 238 W/m 16,6 C 22,1 C 1,6 km/h (1 Bft) 100,00 %
01.08.2018 07:44 22,2 C 26,7 C 22,2 C 70 % 1015,1 hPa 0,0 l/m 1,7 km/h (1 Bft) S-SW 202 2 min 0,000 mm 0,6 UV-I 244 W/m 16,5 C 22,2 C 3,2 km/h (1 Bft) 100,00 %
01.08.2018 07:46 22,3 C 26,7 C 22,2 C 70 % 1015,1 hPa 0,0 l/m 4,3 km/h (1 Bft) O-NO 76 2 min 0,000 mm 0,6 UV-I 250 W/m 16,6 C 22,3 C 6,4 km/h (2 Bft) 94,74 %
01.08.2018 07:48 22,4 C 26,7 C 22,2 C 69 % 1015,1 hPa 0,0 l/m 5,9 km/h (2 Bft) O-NO 68 2 min 0,000 mm 0,6 UV-I 256 W/m 16,4 C 22,4 C 8,0 km/h (2 Bft) 100,00 %
01.08.2018 07:50 22,5 C 26,7 C 22,8 C 70 % 1015,1 hPa 0,0 l/m 5,6 km/h (1 Bft) O-NO 76 2 min 0,000 mm 0,6 UV-I 264 W/m 16,7 C 22,5 C 8,0 km/h (2 Bft) 100,00 %
01.08.2018 07:52 22,6 C 26,7 C 22,8 C 68 % 1015,1 hPa 0,0 l/m 4,0 km/h (1 Bft) O-NO 66 2 min 0,000 mm 0,7 UV-I 271 W/m 16,4 C 22,6 C 6,4 km/h (2 Bft) 100,00 %
01.08.2018 07:54 22,7 C 26,7 C 22,8 C 69 % 1015,1 hPa 0,0 l/m 3,2 km/h (1 Bft) NO 52 2 min 0,000 mm 0,7 UV-I 276 W/m 16,7 C 22,7 C 6,4 km/h (2 Bft) 100,00 %
01.08.2018 07:56 22,8 C 26,7 C 22,8 C 68 % 1015,1 hPa 0,0 l/m 5,1 km/h (1 Bft) O 88 2 min 0,000 mm 0,7 UV-I 282 W/m 16,6 C 22,8 C 6,4 km/h (2 Bft) 100,00 %
01.08.2018 07:58 22,8 C 26,7 C 22,8 C 68 % 1015,2 hPa 0,0 l/m 4,7 km/h (1 Bft) O-NO 68 2 min 0,000 mm 0,7 UV-I 287 W/m 16,6 C 22,8 C 8,0 km/h (2 Bft) 100,00 %
01.08.2018 08:00 22,8 C 26,7 C 22,8 C 68 % 1015,2 hPa 0,0 l/m 4,5 km/h (1 Bft) O-NO 66 2 min 0,127 mm 0,7 UV-I 290 W/m 16,6 C 22,8 C 6,4 km/h (2 Bft) 100,00 %
01.08.2018 08:02 22,8 C 26,7 C 22,8 C 68 % 1015,2 hPa 0,0 l/m 5,1 km/h (1 Bft) O-NO 63 2 min 0,000 mm 0,8 UV-I 297 W/m 16,6 C 22,8 C 6,4 km/h (2 Bft) 100,00 %
01.08.2018 08:04 22,8 C 26,7 C 22,8 C 68 % 1015,2 hPa 0,0 l/m 4,1 km/h (1 Bft) O-NO 68 2 min 0,000 mm 0,8 UV-I 302 W/m 16,6 C 22,8 C 6,4 km/h (2 Bft) 97,87 %
01.08.2018 08:06 22,9 C 26,7 C 23,3 C 69 % 1015,2 hPa 0,0 l/m 5,3 km/h (1 Bft) O 87 2 min 0,000 mm 0,8 UV-I 307 W/m 16,9 C 22,9 C 8,0 km/h (2 Bft) 93,62 %
01.08.2018 08:08 23,0 C 26,7 C 23,3 C 69 % 1015,2 hPa 0,0 l/m 3,7 km/h (1 Bft) O-NO 73 2 min 0,000 mm 0,8 UV-I 310 W/m 17,0 C 23,0 C 8,0 km/h (2 Bft) 94,00 %
01.08.2018 08:10 23,1 C 26,7 C 23,3 C 69 % 1015,2 hPa 0,0 l/m 6,8 km/h (2 Bft) O-NO 65 2 min 0,000 mm 0,9 UV-I 315 W/m 17,1 C 23,0 C 8,0 km/h (2 Bft) 96,00 %
01.08.2018 08:12 23,2 C 26,7 C 23,3 C 67 % 1015,3 hPa 0,0 l/m 3,3 km/h (1 Bft) O 92 2 min 0,000 mm 0,9 UV-I 319 W/m 16,7 C 23,2 C 4,8 km/h (1 Bft) 93,62 %
01.08.2018 08:14 23,2 C 26,7 C 23,3 C 68 % 1015,3 hPa 0,0 l/m 3,0 km/h (1 Bft) O-NO 61 2 min 0,000 mm 0,9 UV-I 322 W/m 17,0 C 23,2 C 6,4 km/h (2 Bft) 95,74 %
01.08.2018 08:16 23,3 C 26,7 C 23,3 C 68 % 1015,3 hPa 0,0 l/m 4,5 km/h (1 Bft) NO 40 2 min 0,000 mm 1,0 UV-I 329 W/m 17,1 C 23,3 C 6,4 km/h (2 Bft) 93,62 %
01.08.2018 08:18 23,4 C 26,7 C 23,9 C 68 % 1015,3 hPa 0,0 l/m 5,2 km/h (1 Bft) NO 50 2 min 0,000 mm 1,0 UV-I 337 W/m 17,1 C 23,4 C 6,4 km/h (2 Bft) 95,74 %
01.08.2018 08:20 23,5 C 26,7 C 23,9 C 67 % 1015,3 hPa 0,0 l/m 5,0 km/h (1 Bft) NO 51 2 min 0,000 mm 1,0 UV-I 343 W/m 17,0 C 23,5 C 6,4 km/h (2 Bft) 97,87 %
01.08.2018 08:22 23,6 C 26,7 C 23,9 C 66 % 1015,3 hPa 0,0 l/m 4,2 km/h (1 Bft) O 89 2 min 0,000 mm 1,0 UV-I 349 W/m 16,9 C 23,6 C 4,8 km/h (1 Bft) 95,74 %
01.08.2018 08:24 23,6 C 26,7 C 23,9 C 67 % 1015,3 hPa 0,0 l/m 2,4 km/h (1 Bft) O-NO 76 2 min 0,000 mm 1,1 UV-I 353 W/m 17,1 C 23,6 C 4,8 km/h (1 Bft) 95,74 %
01.08.2018 08:26 23,6 C 26,7 C 23,9 C 66 % 1015,3 hPa 0,0 l/m 4,1 km/h (1 Bft) O 92 2 min 0,000 mm 1,1 UV-I 354 W/m 16,9 C 23,6 C 6,4 km/h (2 Bft) 95,74 %
01.08.2018 08:28 23,7 C 26,7 C 23,9 C 66 % 1015,3 hPa 0,0 l/m 3,3 km/h (1 Bft) O 96 2 min 0,000 mm 1,1 UV-I 360 W/m 17,0 C 23,7 C 4,8 km/h (1 Bft) 91,49 %
01.08.2018 08:30 23,7 C 26,7 C 24,4 C 66 % 1015,3 hPa 0,0 l/m 4,9 km/h (1 Bft) O-NO 61 2 min 0,000 mm 1,2 UV-I 366 W/m 17,0 C 23,7 C 9,7 km/h (2 Bft) 93,62 %
01.08.2018 08:32 23,8 C 26,7 C 24,4 C 65 % 1015,3 hPa 0,0 l/m 8,0 km/h (2 Bft) O-NO 77 2 min 0,000 mm 1,2 UV-I 372 W/m 16,8 C 23,3 C 12,9 km/h (3 Bft) 94,74 %
01.08.2018 08:34 23,8 C 26,7 C 24,4 C 66 % 1015,3 hPa 0,0 l/m 4,9 km/h (1 Bft) O-NO 78 2 min 0,000 mm 1,2 UV-I 380 W/m 17,1 C 23,8 C 6,4 km/h (2 Bft) 95,74 %
01.08.2018 08:36 23,8 C 26,7 C 25,0 C 66 % 1015,2 hPa 0,0 l/m 4,9 km/h (1 Bft) O 95 2 min 0,000 mm 1,3 UV-I 384 W/m 17,1 C 23,8 C 6,4 km/h (2 Bft) 97,87 %
01.08.2018 08:38 23,8 C 26,7 C 25,0 C 66 % 1015,2 hPa 0,0 l/m 4,7 km/h (1 Bft) O 93 2 min 0,000 mm 1,3 UV-I 390 W/m 17,1 C 23,8 C 6,4 km/h (2 Bft) 97,92 %
01.08.2018 08:40 23,9 C 26,7 C 26,1 C 66 % 1015,3 hPa 0,0 l/m 3,6 km/h (1 Bft) NO 53 2 min 0,000 mm 1,3 UV-I 398 W/m 17,1 C 23,9 C 6,4 km/h (2 Bft) 100,00 %
01.08.2018 08:42 23,9 C 26,7 C 26,7 C 65 % 1015,3 hPa 0,0 l/m 4,3 km/h (1 Bft) O 92 2 min 0,000 mm 1,4 UV-I 404 W/m 16,9 C 23,9 C 6,4 km/h (2 Bft) 98,00 %
01.08.2018 08:44 24,0 C 26,7 C 27,8 C 66 % 1015,3 hPa 0,0 l/m 4,7 km/h (1 Bft) O 88 2 min 0,000 mm 1,4 UV-I 408 W/m 17,2 C 24,0 C 8,0 km/h (2 Bft) 97,87 %
01.08.2018 08:46 24,1 C 26,7 C 28,3 C 65 % 1015,4 hPa 0,0 l/m 5,1 km/h (1 Bft) O-NO 62 2 min 0,000 mm 1,4 UV-I 415 W/m 17,1 C 24,1 C 9,7 km/h (2 Bft) 100,00 %
01.08.2018 08:48 24,2 C 26,7 C 29,4 C 67 % 1015,4 hPa 0,0 l/m 3,3 km/h (1 Bft) O 86 2 min 0,000 mm 1,4 UV-I 419 W/m 17,7 C 24,2 C 6,4 km/h (2 Bft) 97,87 %
01.08.2018 08:50 24,3 C 26,7 C 30,0 C 66 % 1015,4 hPa 0,0 l/m 4,8 km/h (1 Bft) O 86 2 min 0,000 mm 1,5 UV-I 426 W/m 17,5 C 24,3 C 6,4 km/h (2 Bft) 100,00 %
01.08.2018 08:52 24,5 C 26,7 C 30,6 C 65 % 1015,4 hPa 0,0 l/m 6,0 km/h (2 Bft) O 96 2 min 0,000 mm 1,5 UV-I 431 W/m 17,5 C 24,5 C 9,7 km/h (2 Bft) 100,00 %
01.08.2018 08:54 24,6 C 26,7 C 31,7 C 64 % 1015,3 hPa 0,0 l/m 5,5 km/h (1 Bft) O 101 2 min 0,000 mm 1,6 UV-I 436 W/m 17,3 C 24,6 C 9,7 km/h (2 Bft) 100,00 %
01.08.2018 08:56 24,7 C 26,7 C 32,2 C 64 % 1015,3 hPa 0,0 l/m 5,2 km/h (1 Bft) O-SO 107 2 min 0,000 mm 1,6 UV-I 440 W/m 17,4 C 24,7 C 9,7 km/h (2 Bft) 100,00 %
01.08.2018 08:58 24,6 C 26,7 C 32,8 C 64 % 1015,3 hPa 0,0 l/m 4,0 km/h (1 Bft) O 98 2 min 0,000 mm 1,6 UV-I 447 W/m 17,3 C 24,6 C 6,4 km/h (2 Bft) 100,00 %
01.08.2018 09:00 24,6 C 26,7 C 32,8 C 64 % 1015,3 hPa 0,0 l/m 6,2 km/h (2 Bft) NO 55 2 min 0,000 mm 1,7 UV-I 453 W/m 17,3 C 24,6 C 9,7 km/h (2 Bft) 97,87 %
01.08.2018 09:02 24,7 C 26,7 C 32,8 C 63 % 1015,4 hPa 0,0 l/m 6,9 km/h (2 Bft) O-NO 76 2 min 0,254 mm 1,7 UV-I 455 W/m 17,2 C 24,6 C 9,7 km/h (2 Bft) 100,00 %
01.08.2018 09:04 24,8 C 26,7 C 32,8 C 64 % 1015,4 hPa 0,0 l/m 7,8 km/h (2 Bft) O-NO 63 2 min 0,000 mm 1,8 UV-I 460 W/m 17,5 C 24,4 C 12,9 km/h (3 Bft) 100,00 %
01.08.2018 09:06 24,9 C 26,7 C 32,2 C 63 % 1015,4 hPa 0,0 l/m 5,5 km/h (1 Bft) O-NO 74 2 min 0,000 mm 1,8 UV-I 467 W/m 17,4 C 24,9 C 8,0 km/h (2 Bft) 97,87 %
01.08.2018 09:08 25,0 C 26,7 C 32,8 C 63 % 1015,5 hPa 0,0 l/m 5,7 km/h (1 Bft) O-SO 102 2 min 0,000 mm 1,8 UV-I 473 W/m 17,5 C 25,0 C 11,3 km/h (2 Bft) 100,00 %
01.08.2018 09:10 25,1 C 26,7 C 33,3 C 62 % 1015,5 hPa 0,0 l/m 8,1 km/h (2 Bft) NO 55 2 min 0,000 mm 1,9 UV-I 475 W/m 17,3 C 24,7 C 12,9 km/h (3 Bft) 100,00 %
01.08.2018 09:12 25,2 C 26,7 C 33,3 C 62 % 1015,5 hPa 0,0 l/m 7,6 km/h (2 Bft) NO 51 2 min 0,000 mm 1,9 UV-I 481 W/m 17,4 C 24,9 C 11,3 km/h (2 Bft) 100,00 %
01.08.2018 09:14 25,3 C 26,7 C 33,9 C 63 % 1015,5 hPa 0,0 l/m 7,1 km/h (2 Bft) O-NO 61 2 min 0,000 mm 2,0 UV-I 487 W/m 17,7 C 25,1 C 11,3 km/h (2 Bft) 100,00 %
01.08.2018 09:16 25,3 C 26,7 C 34,4 C 61 % 1015,5 hPa 0,0 l/m 8,9 km/h (2 Bft) NO 53 2 min 0,000 mm 2,0 UV-I 494 W/m 17,2 C 24,7 C 12,9 km/h (3 Bft) 98,11 %
01.08.2018 09:18 25,4 C 26,7 C 34,4 C 61 % 1015,5 hPa 0,0 l/m 7,9 km/h (2 Bft) O-NO 70 2 min 0,000 mm 2,1 UV-I 500 W/m 17,3 C 25,0 C 11,3 km/h (2 Bft) 100,00 %
01.08.2018 09:20 25,5 C 26,7 C 34,4 C 62 % 1015,6 hPa 0,0 l/m 12,4 km/h (3 Bft) O-NO 59 2 min 0,000 mm 2,1 UV-I 503 W/m 17,7 C 24,3 C 17,7 km/h (3 Bft) 100,00 %
01.08.2018 09:22 25,6 C 26,7 C 34,4 C 60 % 1015,5 hPa 0,0 l/m 8,3 km/h (2 Bft) O-NO 76 2 min 0,000 mm 2,1 UV-I 507 W/m 17,2 C 25,2 C 16,1 km/h (3 Bft) 100,00 %
01.08.2018 09:24 25,6 C 26,7 C 33,9 C 61 % 1015,5 hPa 0,0 l/m 10,5 km/h (2 Bft) O 85 2 min 0,000 mm 2,2 UV-I 511 W/m 17,5 C 24,7 C 14,5 km/h (3 Bft) 100,00 %
01.08.2018 09:26 25,5 C 26,7 C 33,9 C 60 % 1015,6 hPa 0,0 l/m 8,2 km/h (2 Bft) O 85 2 min 0,000 mm 2,2 UV-I 515 W/m 17,2 C 25,1 C 12,9 km/h (3 Bft) 100,00 %
01.08.2018 09:28 25,6 C 26,7 C 33,9 C 61 % 1015,6 hPa 0,0 l/m 10,0 km/h (2 Bft) O 85 2 min 0,000 mm 2,2 UV-I 519 W/m 17,5 C 24,8 C 12,9 km/h (3 Bft) 100,00 %
01.08.2018 09:30 25,5 C 26,7 C 34,4 C 61 % 1015,6 hPa 0,0 l/m 7,1 km/h (2 Bft) O-NO 64 2 min 0,000 mm 2,3 UV-I 522 W/m 17,4 C 25,3 C 11,3 km/h (2 Bft) 97,37 %
01.08.2018 09:32 25,7 C 26,7 C 34,4 C 62 % 1015,6 hPa 0,0 l/m 8,0 km/h (2 Bft) NO 36 2 min 0,000 mm 2,3 UV-I 530 W/m 17,9 C 25,3 C 12,9 km/h (3 Bft) 100,00 %
01.08.2018 09:34 25,7 C 26,7 C 34,4 C 62 % 1015,5 hPa 0,0 l/m 9,4 km/h (2 Bft) N-NO 32 2 min 0,000 mm 2,4 UV-I 537 W/m 17,9 C 25,0 C 14,5 km/h (3 Bft) 100,00 %
01.08.2018 09:36 25,9 C 26,7 C 34,4 C 61 % 1015,6 hPa 0,0 l/m 8,8 km/h (2 Bft) N-NO 33 2 min 0,000 mm 2,4 UV-I 541 W/m 17,8 C 25,4 C 12,9 km/h (3 Bft) 100,00 %
01.08.2018 09:38 26,1 C 26,7 C 35,0 C 62 % 1015,5 hPa 0,0 l/m 9,8 km/h (2 Bft) NO 34 2 min 0,000 mm 2,4 UV-I 545 W/m 18,2 C 25,4 C 14,5 km/h (3 Bft) 97,87 %
01.08.2018 09:40 26,2 C 26,7 C 35,0 C 61 % 1015,6 hPa 0,0 l/m 7,2 km/h (2 Bft) O 81 2 min 0,000 mm 2,5 UV-I 548 W/m 18,1 C 26,0 C 12,9 km/h (3 Bft) 100,00 %
01.08.2018 09:42 26,2 C 26,7 C 35,6 C 62 % 1015,6 hPa 0,0 l/m 8,4 km/h (2 Bft) O 87 2 min 0,000 mm 2,5 UV-I 549 W/m 18,3 C 25,8 C 14,5 km/h (3 Bft) 100,00 %
01.08.2018 09:44 26,1 C 26,7 C 35,6 C 60 % 1015,6 hPa 0,0 l/m 8,6 km/h (2 Bft) NO 54 2 min 0,000 mm 2,6 UV-I 557 W/m 17,7 C 25,6 C 14,5 km/h (3 Bft) 95,74 %
01.08.2018 09:46 26,1 C 26,7 C 35,6 C 61 % 1015,6 hPa 0,0 l/m 8,3 km/h (2 Bft) O-NO 70 2 min 0,000 mm 2,6 UV-I 563 W/m 18,0 C 25,7 C 14,5 km/h (3 Bft) 95,74 %
01.08.2018 09:48 26,1 C 26,7 C 35,0 C 62 % 1015,6 hPa 0,0 l/m 11,9 km/h (2 Bft) O 88 2 min 0,000 mm 2,7 UV-I 566 W/m 18,2 C 25,1 C 16,1 km/h (3 Bft) 93,62 %
01.08.2018 09:50 26,2 C 26,7 C 35,0 C 61 % 1015,6 hPa 0,0 l/m 9,0 km/h (2 Bft) NO 46 2 min 0,000 mm 2,7 UV-I 573 W/m 18,1 C 25,7 C 14,5 km/h (3 Bft) 97,87 %
01.08.2018 09:52 26,2 C 26,7 C 35,6 C 60 % 1015,6 hPa 0,0 l/m 9,6 km/h (2 Bft) O-SO 109 2 min 0,000 mm 2,8 UV-I 578 W/m 17,8 C 25,6 C 12,9 km/h (3 Bft) 98,11 %
01.08.2018 09:54 26,1 C 26,7 C 35,6 C 61 % 1015,6 hPa 0,0 l/m 6,8 km/h (2 Bft) O-SO 113 2 min 0,000 mm 2,8 UV-I 583 W/m 18,0 C 26,0 C 11,3 km/h (2 Bft) 97,44 %
01.08.2018 09:56 26,2 C 26,7 C 36,1 C 62 % 1015,6 hPa 0,0 l/m 8,2 km/h (2 Bft) O 87 2 min 0,000 mm 2,9 UV-I 587 W/m 18,3 C 25,8 C 14,5 km/h (3 Bft) 97,87 %
01.08.2018 09:58 26,3 C 26,7 C 35,6 C 60 % 1015,6 hPa 0,0 l/m 9,9 km/h (2 Bft) O-NO 63 2 min 0,000 mm 2,9 UV-I 592 W/m 17,9 C 25,6 C 14,5 km/h (3 Bft) 95,74 %
01.08.2018 10:00 26,6 C 26,7 C 36,1 C 60 % 1015,6 hPa 0,0 l/m 11,6 km/h (2 Bft) NO 53 2 min 0,381 mm 3,0 UV-I 597 W/m 18,2 C 25,7 C 16,1 km/h (3 Bft) 91,49 %
01.08.2018 10:02 26,7 C 26,7 C 36,1 C 60 % 1015,6 hPa 0,0 l/m 11,1 km/h (2 Bft) O-NO 67 2 min 0,000 mm 3,0 UV-I 602 W/m 18,3 C 25,9 C 16,1 km/h (3 Bft) 96,00 %
01.08.2018 10:04 26,9 C 26,7 C 36,1 C 59 % 1015,6 hPa 0,0 l/m 11,3 km/h (2 Bft) O 99 2 min 0,000 mm 3,1 UV-I 603 W/m 18,2 C 26,1 C 16,1 km/h (3 Bft) 95,74 %
01.08.2018 10:06 26,8 C 26,7 C 36,1 C 58 % 1015,6 hPa 0,0 l/m 8,8 km/h (2 Bft) O-NO 71 2 min 0,000 mm 3,1 UV-I 608 W/m 17,8 C 26,3 C 14,5 km/h (3 Bft) 95,74 %
01.08.2018 10:08 26,8 C 26,7 C 36,1 C 58 % 1015,6 hPa 0,0 l/m 9,1 km/h (2 Bft) NO 55 2 min 0,000 mm 3,1 UV-I 608 W/m 17,8 C 26,3 C 14,5 km/h (3 Bft) 96,00 %
01.08.2018 10:10 26,9 C 26,7 C 37,2 C 59 % 1015,6 hPa 0,0 l/m 9,7 km/h (2 Bft) O-NO 74 2 min 0,000 mm 3,2 UV-I 613 W/m 18,2 C 26,3 C 14,5 km/h (3 Bft) 95,74 %
01.08.2018 10:12 26,9 C 26,7 C 37,2 C 58 % 1015,6 hPa 0,0 l/m 8,0 km/h (2 Bft) O 90 2 min 0,000 mm 3,3 UV-I 621 W/m 17,9 C 26,6 C 11,3 km/h (2 Bft) 95,74 %
01.08.2018 10:14 26,9 C 26,7 C 37,2 C 58 % 1015,6 hPa 0,0 l/m 8,5 km/h (2 Bft) NO 38 2 min 0,000 mm 3,3 UV-I 628 W/m 17,9 C 26,5 C 11,3 km/h (2 Bft) 95,74 %
01.08.2018 10:16 27,1 C 26,7 C 37,8 C 58 % 1015,6 hPa 0,0 l/m 10,2 km/h (2 Bft) O-NO 59 2 min 0,000 mm 3,4 UV-I 631 W/m 18,1 C 26,5 C 16,1 km/h (3 Bft) 97,87 %
01.08.2018 10:18 27,3 C 26,7 C 37,2 C 57 % 1015,6 hPa 0,0 l/m 8,3 km/h (2 Bft) NO 53 2 min 0,000 mm 3,4 UV-I 635 W/m 18,0 C 27,0 C 14,5 km/h (3 Bft) 97,87 %
01.08.2018 10:20 27,3 C 26,7 C 37,2 C 57 % 1015,7 hPa 0,0 l/m 8,4 km/h (2 Bft) NO 44 2 min 0,000 mm 3,4 UV-I 636 W/m 18,0 C 26,9 C 14,5 km/h (3 Bft) 97,87 %
01.08.2018 10:22 27,4 C 26,7 C 36,7 C 56 % 1015,7 hPa 0,0 l/m 8,6 km/h (2 Bft) O-NO 78 2 min 0,000 mm 3,5 UV-I 639 W/m 17,8 C 27,0 C 12,9 km/h (3 Bft) 92,11 %
01.08.2018 10:24 27,3 C 26,7 C 37,2 C 56 % 1015,6 hPa 0,0 l/m 8,4 km/h (2 Bft) NO 42 2 min 0,000 mm 3,6 UV-I 647 W/m 17,7 C 26,9 C 14,5 km/h (3 Bft) 93,62 %
01.08.2018 10:26 27,4 C 26,7 C 37,2 C 57 % 1015,6 hPa 0,0 l/m 6,6 km/h (2 Bft) O 82 2 min 0,000 mm 3,6 UV-I 649 W/m 18,1 C 27,4 C 12,9 km/h (3 Bft) 97,87 %
01.08.2018 10:28 27,4 C 26,7 C 37,8 C 57 % 1015,6 hPa 0,0 l/m 7,7 km/h (2 Bft) O-NO 71 2 min 0,000 mm 3,7 UV-I 656 W/m 18,1 C 27,2 C 11,3 km/h (2 Bft) 97,87 %
01.08.2018 10:30 27,4 C 26,7 C 37,8 C 58 % 1015,7 hPa 0,0 l/m 9,1 km/h (2 Bft) O 84 2 min 0,000 mm 3,7 UV-I 657 W/m 18,4 C 26,9 C 16,1 km/h (3 Bft) 93,62 %
01.08.2018 10:32 27,6 C 26,7 C 38,3 C 56 % 1015,7 hPa 0,0 l/m 8,6 km/h (2 Bft) N-NO 20 2 min 0,000 mm 3,7 UV-I 662 W/m 18,0 C 27,2 C 12,9 km/h (3 Bft) 93,75 %
01.08.2018 10:34 27,7 C 26,7 C 37,2 C 55 % 1015,7 hPa 0,0 l/m 8,3 km/h (2 Bft) NO 49 2 min 0,000 mm 3,8 UV-I 666 W/m 17,8 C 27,4 C 14,5 km/h (3 Bft) 98,00 %
01.08.2018 10:36 27,8 C 26,7 C 37,8 C 55 % 1015,7 hPa 0,0 l/m 9,2 km/h (2 Bft) O 98 2 min 0,000 mm 3,9 UV-I 672 W/m 17,9 C 27,4 C 14,5 km/h (3 Bft) 97,87 %
01.08.2018 10:38 27,8 C 26,7 C 38,3 C 56 % 1015,7 hPa 0,0 l/m 7,8 km/h (2 Bft) O-NO 65 2 min 0,000 mm 3,9 UV-I 677 W/m 18,2 C 27,6 C 14,5 km/h (3 Bft) 98,00 %
01.08.2018 10:40 27,8 C 26,7 C 38,9 C 56 % 1015,7 hPa 0,0 l/m 9,1 km/h (2 Bft) O-NO 77 2 min 0,000 mm 4,0 UV-I 680 W/m 18,2 C 27,4 C 14,5 km/h (3 Bft) 100,00 %
01.08.2018 10:42 27,8 C 26,7 C 38,9 C 58 % 1015,6 hPa 0,0 l/m 6,9 km/h (2 Bft) O-NO 58 2 min 0,000 mm 4,0 UV-I 681 W/m 18,8 C 27,7 C 16,1 km/h (3 Bft) 100,00 %
01.08.2018 10:44 27,9 C 27,2 C 38,9 C 55 % 1015,6 hPa 0,0 l/m 9,8 km/h (2 Bft) O-NO 63 2 min 0,000 mm 4,0 UV-I 683 W/m 18,0 C 27,4 C 14,5 km/h (3 Bft) 97,87 %
01.08.2018 10:46 27,9 C 27,2 C 38,3 C 55 % 1015,6 hPa 0,0 l/m 8,5 km/h (2 Bft) O-NO 59 2 min 0,000 mm 4,1 UV-I 685 W/m 18,0 C 27,6 C 12,9 km/h (3 Bft) 97,37 %
01.08.2018 10:48 28,1 C 27,2 C 37,8 C 56 % 1015,6 hPa 0,0 l/m 10,9 km/h (2 Bft) NO 51 2 min 0,000 mm 4,1 UV-I 691 W/m 18,5 C 27,5 C 14,5 km/h (3 Bft) 93,62 %
01.08.2018 10:50 28,2 C 27,2 C 37,8 C 55 % 1015,6 hPa 0,0 l/m 9,1 km/h (2 Bft) O 98 2 min 0,000 mm 4,2 UV-I 695 W/m 18,3 C 27,8 C 12,9 km/h (3 Bft) 98,00 %
01.08.2018 10:52 28,2 C 27,2 C 38,3 C 55 % 1015,6 hPa 0,0 l/m 9,5 km/h (2 Bft) O-SO 116 2 min 0,000 mm 4,2 UV-I 699 W/m 18,3 C 27,8 C 14,5 km/h (3 Bft) 97,87 %
01.08.2018 10:54 28,2 C 27,2 C 38,9 C 55 % 1015,6 hPa 0,0 l/m 10,4 km/h (2 Bft) O-NO 71 2 min 0,000 mm 3,8 UV-I 702 W/m 18,3 C 27,7 C 16,1 km/h (3 Bft) 97,87 %
01.08.2018 10:56 28,2 C 27,2 C 38,9 C 56 % 1015,6 hPa 0,0 l/m 10,9 km/h (2 Bft) O-NO 67 2 min 0,000 mm 3,0 UV-I 706 W/m 18,6 C 27,6 C 14,5 km/h (3 Bft) 98,00 %
01.08.2018 10:58 28,3 C 27,2 C 38,9 C 54 % 1015,6 hPa 0,0 l/m 7,4 km/h (2 Bft) O 86 2 min 0,000 mm 4,2 UV-I 708 W/m 18,1 C 28,2 C 12,9 km/h (3 Bft) 93,62 %
01.08.2018 11:00 28,3 C 27,2 C 39,4 C 54 % 1015,6 hPa 0,0 l/m 11,5 km/h (2 Bft) O-SO 103 2 min 0,483 mm 4,4 UV-I 713 W/m 18,1 C 27,6 C 17,7 km/h (3 Bft) 95,74 %
01.08.2018 11:02 28,3 C 27,2 C 39,4 C 54 % 1015,6 hPa 0,0 l/m 11,3 km/h (2 Bft) O 100 2 min 0,000 mm 4,4 UV-I 717 W/m 18,1 C 27,7 C 14,5 km/h (3 Bft) 97,87 %
01.08.2018 11:04 28,3 C 27,2 C 40,0 C 56 % 1015,6 hPa 0,0 l/m 9,0 km/h (2 Bft) O-NO 67 2 min 0,000 mm 4,5 UV-I 722 W/m 18,7 C 27,9 C 14,5 km/h (3 Bft) 93,62 %
01.08.2018 11:06 28,3 C 27,2 C 40,0 C 54 % 1015,6 hPa 0,0 l/m 10,9 km/h (2 Bft) O-SO 123 2 min 0,000 mm 4,5 UV-I 723 W/m 18,1 C 27,7 C 16,1 km/h (3 Bft) 97,87 %
01.08.2018 11:08 28,2 C 27,2 C 40,0 C 54 % 1015,6 hPa 0,0 l/m 10,0 km/h (2 Bft) SO 134 2 min 0,000 mm 4,5 UV-I 726 W/m 18,0 C 27,7 C 16,1 km/h (3 Bft) 97,87 %
01.08.2018 11:10 28,2 C 27,2 C 40,0 C 53 % 1015,5 hPa 0,0 l/m 10,7 km/h (2 Bft) O-SO 123 2 min 0,000 mm 3,8 UV-I 730 W/m 17,7 C 27,6 C 19,3 km/h (3 Bft) 95,74 %
01.08.2018 11:12 28,2 C 27,2 C 40,6 C 54 % 1015,6 hPa 0,0 l/m 5,9 km/h (2 Bft) O 90 2 min 0,000 mm 4,7 UV-I 736 W/m 18,0 C 28,2 C 12,9 km/h (3 Bft) 97,87 %
01.08.2018 11:14 28,2 C 27,2 C 40,6 C 55 % 1015,6 hPa 0,0 l/m 7,6 km/h (2 Bft) O-SO 119 2 min 0,000 mm 4,7 UV-I 739 W/m 18,3 C 28,0 C 14,5 km/h (3 Bft) 97,22 %
01.08.2018 11:16 28,3 C 27,2 C 41,7 C 53 % 1015,6 hPa 0,0 l/m 5,0 km/h (1 Bft) O 93 2 min 0,000 mm 4,6 UV-I 741 W/m 17,8 C 28,3 C 8,0 km/h (2 Bft) 96,00 %
01.08.2018 11:18 28,3 C 27,2 C 40,6 C 54 % 1015,6 hPa 0,0 l/m 3,9 km/h (1 Bft) O 88 2 min 0,000 mm 4,8 UV-I 740 W/m 18,1 C 28,3 C 8,0 km/h (2 Bft) 97,87 %
01.08.2018 11:20 28,4 C 27,2 C 40,6 C 53 % 1015,6 hPa 0,0 l/m 5,6 km/h (1 Bft) O-NO 75 2 min 0,000 mm 4,8 UV-I 740 W/m 17,9 C 28,4 C 12,9 km/h (3 Bft) 97,87 %
01.08.2018 11:22 28,8 C 27,2 C 41,7 C 52 % 1015,5 hPa 0,0 l/m 5,7 km/h (1 Bft) O-SO 107 2 min 0,000 mm 4,9 UV-I 745 W/m 17,9 C 28,8 C 12,9 km/h (3 Bft) 98,00 %
01.08.2018 11:24 28,8 C 27,2 C 41,1 C 51 % 1015,5 hPa 0,0 l/m 5,1 km/h (1 Bft) NO 55 2 min 0,000 mm 4,9 UV-I 748 W/m 17,6 C 28,8 C 9,7 km/h (2 Bft) 95,74 %
01.08.2018 11:26 29,1 C 27,2 C 39,4 C 52 % 1015,5 hPa 0,0 l/m 11,5 km/h (2 Bft) SO 144 2 min 0,000 mm 4,9 UV-I 753 W/m 18,2 C 28,6 C 17,7 km/h (3 Bft) 96,00 %
01.08.2018 11:28 29,1 C 27,2 C 40,0 C 51 % 1015,5 hPa 0,0 l/m 6,7 km/h (2 Bft) O-SO 107 2 min 0,000 mm 5,0 UV-I 746 W/m 17,9 C 29,1 C 14,5 km/h (3 Bft) 91,49 %
01.08.2018 11:30 28,9 C 27,2 C 40,6 C 51 % 1015,4 hPa 0,0 l/m 5,8 km/h (2 Bft) SO 126 2 min 0,000 mm 5,0 UV-I 758 W/m 17,7 C 28,9 C 11,3 km/h (2 Bft) 93,62 %
01.08.2018 11:32 28,8 C 27,2 C 41,7 C 52 % 1015,5 hPa 0,0 l/m 4,4 km/h (1 Bft) O-SO 121 2 min 0,000 mm 5,1 UV-I 761 W/m 17,9 C 28,8 C 6,4 km/h (2 Bft) 94,74 %
01.08.2018 11:34 29,1 C 27,2 C 41,7 C 52 % 1015,5 hPa 0,0 l/m 3,7 km/h (1 Bft) NO 43 2 min 0,000 mm 5,1 UV-I 764 W/m 18,2 C 29,1 C 6,4 km/h (2 Bft) 95,74 %
01.08.2018 11:36 29,3 C 27,2 C 41,1 C 51 % 1015,5 hPa 0,0 l/m 5,7 km/h (1 Bft) O-NO 69 2 min 0,000 mm 5,1 UV-I 765 W/m 18,1 C 29,3 C 8,0 km/h (2 Bft) 95,74 %
01.08.2018 11:38 29,6 C 27,2 C 41,7 C 51 % 1015,5 hPa 0,0 l/m 9,1 km/h (2 Bft) NO 54 2 min 0,000 mm 5,2 UV-I 767 W/m 18,4 C 29,3 C 12,9 km/h (3 Bft) 92,00 %
01.08.2018 11:40 29,7 C 27,2 C 41,1 C 52 % 1015,5 hPa 0,0 l/m 7,9 km/h (2 Bft) O-NO 62 2 min 0,000 mm 5,2 UV-I 764 W/m 18,8 C 29,5 C 11,3 km/h (2 Bft) 96,00 %
01.08.2018 11:42 29,8 C 27,2 C 40,6 C 50 % 1015,5 hPa 0,0 l/m 6,1 km/h (2 Bft) O-NO 74 2 min 0,000 mm 5,2 UV-I 770 W/m 18,2 C 29,8 C 8,0 km/h (2 Bft) 95,83 %
01.08.2018 11:44 29,8 C 27,2 C 40,6 C 48 % 1015,5 hPa 0,0 l/m 6,4 km/h (2 Bft) O 90 2 min 0,000 mm 5,3 UV-I 771 W/m 17,6 C 29,8 C 12,9 km/h (3 Bft) 96,88 %
01.08.2018 11:46 29,6 C 27,2 C 40,0 C 49 % 1015,5 hPa 0,0 l/m 5,8 km/h (2 Bft) O-NO 70 2 min 0,000 mm 5,3 UV-I 775 W/m 17,7 C 29,6 C 11,3 km/h (2 Bft) 97,92 %
01.08.2018 11:48 29,4 C 27,2 C 41,1 C 49 % 1015,4 hPa 0,0 l/m 3,5 km/h (1 Bft) NO 38 2 min 0,000 mm 5,3 UV-I 777 W/m 17,5 C 29,4 C 6,4 km/h (2 Bft) 97,87 %
01.08.2018 11:50 29,4 C 27,2 C 41,7 C 49 % 1015,4 hPa 0,0 l/m 7,4 km/h (2 Bft) O-NO 74 2 min 0,000 mm 5,3 UV-I 776 W/m 17,5 C 29,3 C 12,9 km/h (3 Bft) 96,00 %
01.08.2018 11:52 29,7 C 27,2 C 41,1 C 48 % 1015,4 hPa 0,0 l/m 8,6 km/h (2 Bft) O 87 2 min 0,000 mm 5,4 UV-I 776 W/m 17,5 C 29,5 C 12,9 km/h (3 Bft) 97,87 %
01.08.2018 11:54 29,8 C 27,2 C 41,7 C 49 % 1015,4 hPa 0,0 l/m 8,2 km/h (2 Bft) O-NO 63 2 min 0,000 mm 5,4 UV-I 778 W/m 17,9 C 29,6 C 12,9 km/h (3 Bft) 95,74 %
01.08.2018 11:56 29,9 C 27,2 C 41,7 C 48 % 1015,4 hPa 0,0 l/m 6,1 km/h (2 Bft) O-NO 57 2 min 0,000 mm 5,4 UV-I 780 W/m 17,7 C 29,9 C 9,7 km/h (2 Bft) 100,00 %
01.08.2018 11:58 30,1 C 27,2 C 41,7 C 47 % 1015,4 hPa 0,0 l/m 5,8 km/h (2 Bft) O 84 2 min 0,000 mm 5,5 UV-I 782 W/m 17,5 C 30,1 C 11,3 km/h (2 Bft) 100,00 %
01.08.2018 12:00 30,1 C 27,2 C 41,7 C 45 % 1015,4 hPa 0,0 l/m 5,5 km/h (1 Bft) NO 38 2 min 0,558 mm 5,5 UV-I 787 W/m 16,8 C 30,1 C 9,7 km/h (2 Bft) 97,37 %
01.08.2018 12:02 30,2 C 27,2 C 41,7 C 46 % 1015,3 hPa 0,0 l/m 5,0 km/h (1 Bft) N-NO 15 2 min 0,000 mm 5,5 UV-I 789 W/m 17,3 C 30,2 C 9,7 km/h (2 Bft) 95,74 %
01.08.2018 12:04 30,1 C 27,2 C 42,2 C 45 % 1015,4 hPa 0,0 l/m 0,7 km/h (0 Bft) N-NO 14 2 min 0,000 mm 5,6 UV-I 790 W/m 16,8 C 30,1 C 1,6 km/h (1 Bft) 96,00 %
01.08.2018 12:06 30,1 C 27,2 C 41,1 C 45 % 1015,3 hPa 0,0 l/m 7,8 km/h (2 Bft) N 9 2 min 0,000 mm 5,6 UV-I 791 W/m 16,8 C 30,0 C 14,5 km/h (3 Bft) 97,87 %
01.08.2018 12:08 30,3 C 27,2 C 41,7 C 46 % 1015,3 hPa 0,0 l/m 5,1 km/h (1 Bft) N-NW 332 2 min 0,000 mm 5,6 UV-I 792 W/m 17,4 C 30,3 C 8,0 km/h (2 Bft) 98,00 %
01.08.2018 12:10 30,6 C 27,2 C 41,7 C 47 % 1015,3 hPa 0,0 l/m 7,1 km/h (2 Bft) O-NO 71 2 min 0,000 mm 5,6 UV-I 793 W/m 18,0 C 30,5 C 9,7 km/h (2 Bft) 97,87 %
01.08.2018 12:12 30,6 C 27,2 C 41,7 C 45 % 1015,3 hPa 0,0 l/m 9,4 km/h (2 Bft) O-SO 115 2 min 0,000 mm 5,6 UV-I 798 W/m 17,3 C 30,4 C 14,5 km/h (3 Bft) 95,74 %
01.08.2018 12:14 30,4 C 27,2 C 42,2 C 45 % 1015,2 hPa 0,0 l/m 6,6 km/h (2 Bft) SO 138 2 min 0,000 mm 5,7 UV-I 801 W/m 17,1 C 30,4 C 11,3 km/h (2 Bft) 91,49 %
01.08.2018 12:16 30,3 C 27,2 C 42,2 C 45 % 1015,3 hPa 0,0 l/m 8,4 km/h (2 Bft) O-NO 67 2 min 0,000 mm 5,7 UV-I 800 W/m 17,0 C 30,1 C 16,1 km/h (3 Bft) 97,87 %
01.08.2018 12:18 30,2 C 27,2 C 42,2 C 44 % 1015,3 hPa 0,0 l/m 4,9 km/h (1 Bft) O-SO 111 2 min 0,000 mm 5,7 UV-I 800 W/m 16,6 C 30,2 C 9,7 km/h (2 Bft) 97,87 %
01.08.2018 12:20 30,2 C 27,2 C 42,8 C 45 % 1015,2 hPa 0,0 l/m 3,5 km/h (1 Bft) NO 42 2 min 0,000 mm 5,8 UV-I 802 W/m 16,9 C 30,2 C 6,4 km/h (2 Bft) 95,74 %
01.08.2018 12:22 30,4 C 27,2 C 42,8 C 46 % 1015,2 hPa 0,0 l/m 10,0 km/h (2 Bft) N-NO 29 2 min 0,000 mm 5,8 UV-I 803 W/m 17,5 C 30,1 C 14,5 km/h (3 Bft) 97,87 %
01.08.2018 12:24 30,9 C 27,2 C 43,9 C 45 % 1015,2 hPa 0,0 l/m 5,3 km/h (1 Bft) N-NW 346 2 min 0,000 mm 5,8 UV-I 801 W/m 17,6 C 30,9 C 8,0 km/h (2 Bft) 97,87 %
01.08.2018 12:26 31,2 C 27,2 C 43,3 C 44 % 1015,2 hPa 0,0 l/m 6,0 km/h (2 Bft) N-NO 13 2 min 0,000 mm 5,8 UV-I 801 W/m 17,5 C 31,2 C 14,5 km/h (3 Bft) 93,62 %
01.08.2018 12:28 31,3 C 27,2 C 42,8 C 44 % 1015,2 hPa 0,0 l/m 10,3 km/h (2 Bft) N-NO 28 2 min 0,000 mm 5,8 UV-I 804 W/m 17,6 C 31,1 C 16,1 km/h (3 Bft) 97,92 %
01.08.2018 12:30 31,4 C 27,2 C 42,2 C 42 % 1015,2 hPa 0,0 l/m 9,9 km/h (2 Bft) O-NO 59 2 min 0,000 mm 5,8 UV-I 800 W/m 16,9 C 31,2 C 14,5 km/h (3 Bft) 97,87 %
01.08.2018 12:32 31,3 C 27,2 C 42,2 C 42 % 1015,2 hPa 0,0 l/m 8,1 km/h (2 Bft) O-NO 66 2 min 0,000 mm 5,9 UV-I 809 W/m 16,8 C 31,2 C 14,5 km/h (3 Bft) 94,29 %
01.08.2018 12:34 31,3 C 27,2 C 42,8 C 44 % 1015,2 hPa 0,0 l/m 5,6 km/h (1 Bft) NO 36 2 min 0,000 mm 5,9 UV-I 813 W/m 17,6 C 31,3 C 9,7 km/h (2 Bft) 96,08 %
01.08.2018 12:36 31,1 C 27,2 C 42,8 C 45 % 1015,2 hPa 0,0 l/m 4,4 km/h (1 Bft) O 101 2 min 0,000 mm 5,9 UV-I 813 W/m 17,7 C 31,1 C 9,7 km/h (2 Bft) 94,00 %
01.08.2018 12:38 30,9 C 27,2 C 43,3 C 42 % 1015,2 hPa 0,0 l/m 6,9 km/h (2 Bft) O-NO 61 2 min 0,000 mm 5,9 UV-I 811 W/m 16,5 C 30,9 C 11,3 km/h (2 Bft) 97,87 %
01.08.2018 12:40 30,7 C 27,2 C 42,8 C 42 % 1015,1 hPa 0,0 l/m 2,9 km/h (1 Bft) O-NO 64 2 min 0,000 mm 5,9 UV-I 812 W/m 16,3 C 30,7 C 6,4 km/h (2 Bft) 95,74 %
01.08.2018 12:42 30,5 C 27,2 C 42,8 C 44 % 1015,2 hPa 0,0 l/m 2,7 km/h (1 Bft) NO 51 2 min 0,000 mm 5,9 UV-I 814 W/m 16,8 C 30,5 C 4,8 km/h (1 Bft) 97,87 %
01.08.2018 12:44 30,5 C 27,2 C 42,8 C 46 % 1015,1 hPa 0,0 l/m 6,4 km/h (2 Bft) O-NO 76 2 min 0,000 mm 6,0 UV-I 816 W/m 17,5 C 30,5 C 14,5 km/h (3 Bft) 96,00 %
01.08.2018 12:46 30,8 C 27,2 C 43,3 C 45 % 1015,1 hPa 0,0 l/m 8,9 km/h (2 Bft) O-NO 65 2 min 0,000 mm 6,0 UV-I 733 W/m 17,5 C 30,6 C 12,9 km/h (3 Bft) 100,00 %
01.08.2018 12:48 30,9 C 27,2 C 43,3 C 42 % 1015,1 hPa 0,0 l/m 3,3 km/h (1 Bft) O-NO 72 2 min 0,000 mm 6,0 UV-I 818 W/m 16,5 C 30,9 C 8,0 km/h (2 Bft) 100,00 %
01.08.2018 12:50 30,9 C 27,2 C 43,9 C 43 % 1015,1 hPa 0,0 l/m 1,3 km/h (1 Bft) O-NO 67 2 min 0,000 mm 6,0 UV-I 823 W/m 16,8 C 30,9 C 6,4 km/h (2 Bft) 97,87 %
01.08.2018 12:52 31,2 C 27,2 C 43,9 C 45 % 1015,0 hPa 0,0 l/m 4,4 km/h (1 Bft) SO 129 2 min 0,000 mm 6,0 UV-I 822 W/m 17,8 C 31,2 C 8,0 km/h (2 Bft) 98,00 %
01.08.2018 12:54 31,3 C 27,2 C 43,9 C 44 % 1015,0 hPa 0,0 l/m 6,6 km/h (2 Bft) O-NO 57 2 min 0,000 mm 6,1 UV-I 825 W/m 17,6 C 31,3 C 11,3 km/h (2 Bft) 100,00 %
01.08.2018 12:56 31,4 C 27,2 C 42,8 C 43 % 1015,0 hPa 0,0 l/m 12,3 km/h (3 Bft) NO 46 2 min 0,000 mm 6,1 UV-I 826 W/m 17,3 C 31,1 C 16,1 km/h (3 Bft) 100,00 %
01.08.2018 12:58 31,4 C 27,2 C 42,2 C 41 % 1015,0 hPa 0,0 l/m 6,6 km/h (2 Bft) NO 44 2 min 0,000 mm 6,1 UV-I 824 W/m 16,5 C 31,4 C 9,7 km/h (2 Bft) 97,87 %
01.08.2018 13:00 31,2 C 27,2 C 42,2 C 41 % 1015,0 hPa 0,0 l/m 1,7 km/h (1 Bft) NO 43 2 min 0,610 mm 6,1 UV-I 824 W/m 16,4 C 31,2 C 4,8 km/h (1 Bft) 100,00 %
01.08.2018 13:02 31,1 C 27,2 C 42,8 C 41 % 1015,0 hPa 0,0 l/m 4,0 km/h (1 Bft) N-NO 15 2 min 0,000 mm 6,1 UV-I 821 W/m 16,3 C 31,1 C 6,4 km/h (2 Bft) 100,00 %
01.08.2018 13:04 30,9 C 27,2 C 42,8 C 41 % 1015,0 hPa 0,0 l/m 4,1 km/h (1 Bft) NO 34 2 min 0,000 mm 6,1 UV-I 823 W/m 16,1 C 30,9 C 8,0 km/h (2 Bft) 100,00 %
01.08.2018 13:06 30,8 C 27,2 C 43,9 C 43 % 1015,0 hPa 0,0 l/m 1,0 km/h (0 Bft) NO 35 2 min 0,000 mm 6,1 UV-I 823 W/m 16,7 C 30,8 C 3,2 km/h (1 Bft) 100,00 %
01.08.2018 13:08 31,1 C 27,8 C 44,4 C 44 % 1015,0 hPa 0,0 l/m 5,0 km/h (1 Bft) SO 136 2 min 0,000 mm 6,1 UV-I 821 W/m 17,4 C 31,1 C 11,3 km/h (2 Bft) 100,00 %
01.08.2018 13:10 31,3 C 27,8 C 45,0 C 43 % 1015,0 hPa 0,0 l/m 6,3 km/h (2 Bft) O-NO 73 2 min 0,000 mm 6,1 UV-I 818 W/m 17,2 C 31,3 C 12,9 km/h (3 Bft) 100,00 %
01.08.2018 13:12 31,3 C 27,8 C 45,0 C 41 % 1015,0 hPa 0,0 l/m 5,8 km/h (2 Bft) S-SO 166 2 min 0,000 mm 6,1 UV-I 821 W/m 16,4 C 31,3 C 12,9 km/h (3 Bft) 100,00 %
01.08.2018 13:14 31,3 C 27,8 C 45,0 C 42 % 1015,0 hPa 0,0 l/m 4,0 km/h (1 Bft) O-SO 108 2 min 0,000 mm 6,1 UV-I 821 W/m 16,8 C 31,3 C 9,7 km/h (2 Bft) 100,00 %
01.08.2018 13:16 31,4 C 27,8 C 45,6 C 42 % 1014,9 hPa 0,0 l/m 5,7 km/h (1 Bft) NO 52 2 min 0,000 mm 6,1 UV-I 819 W/m 16,9 C 31,4 C 11,3 km/h (2 Bft) 100,00 %
01.08.2018 13:18 31,6 C 27,8 C 43,9 C 43 % 1015,0 hPa 0,0 l/m 8,9 km/h (2 Bft) N-NW 330 2 min 0,000 mm 6,0 UV-I 817 W/m 17,5 C 31,5 C 14,5 km/h (3 Bft) 95,74 %
01.08.2018 13:20 31,7 C 27,8 C 43,3 C 41 % 1015,0 hPa 0,0 l/m 6,2 km/h (2 Bft) NO 56 2 min 0,000 mm 6,0 UV-I 814 W/m 16,8 C 31,7 C 14,5 km/h (3 Bft) 97,87 %
01.08.2018 13:22 31,7 C 27,8 C 42,8 C 41 % 1014,9 hPa 0,0 l/m 6,4 km/h (2 Bft) SO 127 2 min 0,000 mm 6,0 UV-I 812 W/m 16,8 C 31,7 C 9,7 km/h (2 Bft) 97,87 %
01.08.2018 13:24 31,8 C 27,8 C 43,3 C 42 % 1014,9 hPa 0,0 l/m 3,4 km/h (1 Bft) O 92 2 min 0,000 mm 6,0 UV-I 808 W/m 17,3 C 31,8 C 8,0 km/h (2 Bft) 93,62 %
01.08.2018 13:26 31,7 C 27,8 C 43,9 C 41 % 1014,9 hPa 0,0 l/m 7,2 km/h (2 Bft) S 178 2 min 0,000 mm 5,9 UV-I 803 W/m 16,8 C 31,7 C 11,3 km/h (2 Bft) 95,74 %
01.08.2018 13:28 31,7 C 27,8 C 43,9 C 42 % 1014,9 hPa 0,0 l/m 6,7 km/h (2 Bft) SO 130 2 min 0,000 mm 5,9 UV-I 802 W/m 17,2 C 31,7 C 11,3 km/h (2 Bft) 97,87 %
01.08.2018 13:30 31,8 C 27,8 C 43,9 C 41 % 1014,9 hPa 0,0 l/m 7,3 km/h (2 Bft) S 184 2 min 0,000 mm 5,9 UV-I 801 W/m 16,9 C 31,8 C 16,1 km/h (3 Bft) 91,49 %
01.08.2018 13:32 31,8 C 27,8 C 43,9 C 42 % 1014,8 hPa 0,0 l/m 5,7 km/h (1 Bft) SW 214 2 min 0,000 mm 5,9 UV-I 805 W/m 17,3 C 31,8 C 8,0 km/h (2 Bft) 95,74 %
01.08.2018 13:34 31,7 C 27,8 C 43,3 C 39 % 1014,8 hPa 0,0 l/m 2,0 km/h (1 Bft) SW 217 2 min 0,000 mm 5,9 UV-I 807 W/m 16,0 C 31,7 C 4,8 km/h (1 Bft) 95,74 %
01.08.2018 13:36 31,6 C 27,8 C 43,9 C 41 % 1014,7 hPa 0,0 l/m 0,8 km/h (0 Bft) SW 217 2 min 0,000 mm 5,9 UV-I 806 W/m 16,7 C 31,6 C 1,6 km/h (1 Bft) 97,22 %
01.08.2018 13:38 31,6 C 27,8 C 44,4 C 43 % 1014,8 hPa 0,0 l/m 2,6 km/h (1 Bft) SO 144 2 min 0,000 mm 5,9 UV-I 806 W/m 17,5 C 31,6 C 6,4 km/h (2 Bft) 93,44 %
01.08.2018 13:40 31,8 C 27,8 C 45,0 C 41 % 1014,8 hPa 0,0 l/m 2,6 km/h (1 Bft) SO 143 2 min 0,000 mm 5,8 UV-I 804 W/m 16,9 C 31,8 C 4,8 km/h (1 Bft) 95,83 %
01.08.2018 13:42 31,8 C 27,8 C 45,0 C 42 % 1014,8 hPa 0,0 l/m 5,4 km/h (1 Bft) O-SO 109 2 min 0,000 mm 5,8 UV-I 808 W/m 17,3 C 31,8 C 11,3 km/h (2 Bft) 95,65 %
01.08.2018 13:44 31,8 C 27,8 C 45,0 C 41 % 1014,8 hPa 0,0 l/m 4,9 km/h (1 Bft) NO 46 2 min 0,000 mm 6,0 UV-I 821 W/m 16,9 C 31,8 C 8,0 km/h (2 Bft) 95,83 %
01.08.2018 13:46 31,7 C 27,8 C 45,0 C 39 % 1014,7 hPa 0,0 l/m 3,8 km/h (1 Bft) N 360 2 min 0,000 mm 5,9 UV-I 823 W/m 16,0 C 31,7 C 8,0 km/h (2 Bft) 95,74 %
01.08.2018 13:48 31,7 C 27,8 C 45,6 C 40 % 1014,7 hPa 0,0 l/m 3,3 km/h (1 Bft) O 96 2 min 0,000 mm 5,9 UV-I 826 W/m 16,4 C 31,7 C 8,0 km/h (2 Bft) 91,49 %
01.08.2018 13:50 31,9 C 27,8 C 45,0 C 40 % 1014,7 hPa 0,0 l/m 7,9 km/h (2 Bft) O-SO 111 2 min 0,000 mm 5,9 UV-I 819 W/m 16,6 C 31,8 C 12,9 km/h (3 Bft) 97,14 %
01.08.2018 13:52 31,9 C 27,8 C 45,0 C 42 % 1014,8 hPa 0,0 l/m 2,6 km/h (1 Bft) O-NO 71 2 min 0,000 mm 5,8 UV-I 808 W/m 17,4 C 31,9 C 6,4 km/h (2 Bft) 98,00 %
01.08.2018 13:54 31,9 C 27,8 C 44,4 C 40 % 1014,7 hPa 0,0 l/m 1,9 km/h (1 Bft) O-NO 61 2 min 0,000 mm 5,8 UV-I 806 W/m 16,6 C 31,9 C 4,8 km/h (1 Bft) 97,87 %
01.08.2018 13:56 31,9 C 27,8 C 44,4 C 42 % 1014,7 hPa 0,0 l/m 4,6 km/h (1 Bft) O-SO 105 2 min 0,000 mm 5,9 UV-I 826 W/m 17,4 C 31,9 C 11,3 km/h (2 Bft) 92,00 %
01.08.2018 13:58 32,1 C 27,8 C 43,9 C 40 % 1014,7 hPa 0,0 l/m 8,9 km/h (2 Bft) O 96 2 min 0,000 mm 5,9 UV-I 826 W/m 16,8 C 32,0 C 12,9 km/h (3 Bft) 97,87 %
01.08.2018 14:00 31,9 C 27,8 C 43,9 C 38 % 1014,7 hPa 0,0 l/m 11,5 km/h (2 Bft) O-SO 120 2 min 0,610 mm 5,8 UV-I 809 W/m 15,8 C 31,7 C 16,1 km/h (3 Bft) 97,87 %
01.08.2018 14:02 31,9 C 27,8 C 43,9 C 40 % 1014,7 hPa 0,0 l/m 5,5 km/h (1 Bft) SO 128 2 min 0,000 mm 5,7 UV-I 792 W/m 16,6 C 31,9 C 14,5 km/h (3 Bft) 97,87 %
01.08.2018 14:04 32,0 C 27,8 C 43,9 C 39 % 1014,7 hPa 0,0 l/m 9,9 km/h (2 Bft) S 178 2 min 0,000 mm 5,5 UV-I 785 W/m 16,3 C 31,9 C 16,1 km/h (3 Bft) 97,87 %
01.08.2018 14:06 31,9 C 27,8 C 42,8 C 39 % 1014,7 hPa 0,0 l/m 6,2 km/h (2 Bft) S-SW 203 2 min 0,000 mm 4,6 UV-I 795 W/m 16,2 C 31,9 C 14,5 km/h (3 Bft) 91,49 %
01.08.2018 14:08 31,8 C 27,8 C 41,1 C 40 % 1014,6 hPa 0,0 l/m 2,3 km/h (1 Bft) O-SO 116 2 min 0,000 mm 4,2 UV-I 507 W/m 16,5 C 31,8 C 4,8 km/h (1 Bft) 97,87 %
01.08.2018 14:10 31,8 C 27,8 C 42,2 C 40 % 1014,7 hPa 0,0 l/m 5,0 km/h (1 Bft) O-SO 123 2 min 0,000 mm 5,5 UV-I 549 W/m 16,5 C 31,8 C 6,4 km/h (2 Bft) 95,74 %
01.08.2018 14:12 31,9 C 27,8 C 42,8 C 39 % 1014,6 hPa 0,0 l/m 7,0 km/h (2 Bft) N-NW 345 2 min 0,000 mm 5,3 UV-I 807 W/m 16,2 C 31,9 C 17,7 km/h (3 Bft) 95,74 %
01.08.2018 14:14 32,1 C 27,8 C 41,7 C 40 % 1014,6 hPa 0,0 l/m 7,4 km/h (2 Bft) N-NO 24 2 min 0,000 mm 5,1 UV-I 807 W/m 16,8 C 32,1 C 12,9 km/h (3 Bft) 94,44 %
01.08.2018 14:16 32,2 C 27,8 C 39,4 C 38 % 1014,7 hPa 0,0 l/m 12,3 km/h (3 Bft) N-NO 30 2 min 0,000 mm 4,3 UV-I 807 W/m 16,0 C 32,1 C 17,7 km/h (3 Bft) 90,16 %
01.08.2018 14:18 31,8 C 27,8 C 39,4 C 37 % 1014,6 hPa 0,0 l/m 1,7 km/h (1 Bft) NO 36 2 min 0,000 mm 5,1 UV-I 810 W/m 15,3 C 31,8 C 3,2 km/h (1 Bft) 95,74 %
01.08.2018 14:20 31,7 C 27,8 C 41,7 C 44 % 1014,5 hPa 0,0 l/m 1,8 km/h (1 Bft) NO 46 2 min 0,000 mm 5,7 UV-I 807 W/m 17,9 C 31,7 C 3,2 km/h (1 Bft) 97,22 %
01.08.2018 14:22 31,8 C 27,8 C 42,8 C 39 % 1014,6 hPa 0,0 l/m 2,4 km/h (1 Bft) SO 132 2 min 0,000 mm 5,6 UV-I 800 W/m 16,1 C 31,8 C 3,2 km/h (1 Bft) 97,87 %
01.08.2018 14:24 31,8 C 27,8 C 42,8 C 36 % 1014,5 hPa 0,0 l/m 3,4 km/h (1 Bft) O-NO 73 2 min 0,000 mm 5,6 UV-I 788 W/m 14,9 C 31,8 C 6,4 km/h (2 Bft) 93,62 %
01.08.2018 14:26 31,9 C 27,8 C 43,3 C 38 % 1014,5 hPa 0,0 l/m 5,5 km/h (1 Bft) SW 236 2 min 0,000 mm 5,4 UV-I 777 W/m 15,8 C 31,9 C 9,7 km/h (2 Bft) 95,74 %
01.08.2018 14:28 32,2 C 27,8 C 44,4 C 38 % 1014,5 hPa 0,0 l/m 4,2 km/h (1 Bft) W-SW 252 2 min 0,000 mm 5,4 UV-I 781 W/m 16,0 C 32,2 C 6,4 km/h (2 Bft) 98,00 %
01.08.2018 14:30 32,2 C 27,8 C 43,9 C 39 % 1014,5 hPa 0,0 l/m 3,7 km/h (1 Bft) NO 37 2 min 0,000 mm 5,3 UV-I 773 W/m 16,5 C 32,2 C 12,9 km/h (3 Bft) 97,87 %
01.08.2018 14:32 32,4 C 27,8 C 42,8 C 38 % 1014,5 hPa 0,0 l/m 11,2 km/h (2 Bft) NO 45 2 min 0,000 mm 5,3 UV-I 774 W/m 16,2 C 32,3 C 17,7 km/h (3 Bft) 97,87 %
01.08.2018 14:34 32,8 C 27,8 C 42,8 C 39 % 1014,5 hPa 0,0 l/m 10,9 km/h (2 Bft) N-NO 32 2 min 0,000 mm 5,4 UV-I 780 W/m 17,0 C 32,8 C 16,1 km/h (3 Bft) 95,74 %
01.08.2018 14:36 33,0 C 27,8 C 42,8 C 39 % 1014,4 hPa 0,0 l/m 14,3 km/h (3 Bft) NO 34 2 min 0,000 mm 5,3 UV-I 782 W/m 17,2 C 33,0 C 17,7 km/h (3 Bft) 93,62 %
01.08.2018 14:38 33,1 C 27,8 C 42,2 C 35 % 1014,4 hPa 0,0 l/m 7,2 km/h (2 Bft) NO 52 2 min 0,000 mm 5,3 UV-I 781 W/m 15,6 C 33,1 C 16,1 km/h (3 Bft) 97,87 %
01.08.2018 14:40 32,9 C 27,8 C 42,2 C 38 % 1014,4 hPa 0,0 l/m 10,7 km/h (2 Bft) O 83 2 min 0,000 mm 5,3 UV-I 775 W/m 16,7 C 32,9 C 19,3 km/h (3 Bft) 98,11 %
01.08.2018 14:42 33,0 C 27,8 C 42,8 C 36 % 1014,4 hPa 0,0 l/m 10,2 km/h (2 Bft) NO 44 2 min 0,000 mm 5,2 UV-I 771 W/m 15,9 C 33,0 C 12,9 km/h (3 Bft) 100,00 %
01.08.2018 14:44 32,8 C 27,8 C 42,8 C 38 % 1014,4 hPa 0,0 l/m 4,9 km/h (1 Bft) O 91 2 min 0,000 mm 5,2 UV-I 765 W/m 16,6 C 32,8 C 11,3 km/h (2 Bft) 95,74 %
01.08.2018 14:46 32,4 C 27,8 C 43,9 C 36 % 1014,4 hPa 0,0 l/m 4,3 km/h (1 Bft) S-SO 163 2 min 0,000 mm 5,1 UV-I 763 W/m 15,4 C 32,4 C 6,4 km/h (2 Bft) 97,87 %
01.08.2018 14:48 32,3 C 27,8 C 43,9 C 38 % 1014,3 hPa 0,0 l/m 4,6 km/h (1 Bft) SO 129 2 min 0,000 mm 5,1 UV-I 758 W/m 16,1 C 32,3 C 6,4 km/h (2 Bft) 97,87 %
01.08.2018 14:50 32,5 C 27,8 C 44,4 C 39 % 1014,3 hPa 0,0 l/m 7,0 km/h (2 Bft) SO 140 2 min 0,000 mm 5,0 UV-I 754 W/m 16,7 C 32,5 C 12,9 km/h (3 Bft) 95,74 %
01.08.2018 14:52 32,4 C 27,8 C 43,9 C 36 % 1014,3 hPa 0,0 l/m 6,8 km/h (2 Bft) S 171 2 min 0,000 mm 5,0 UV-I 753 W/m 15,4 C 32,4 C 11,3 km/h (2 Bft) 100,00 %
01.08.2018 14:54 32,4 C 27,8 C 43,9 C 38 % 1014,3 hPa 0,0 l/m 8,0 km/h (2 Bft) SO 144 2 min 0,000 mm 5,0 UV-I 749 W/m 16,2 C 32,4 C 11,3 km/h (2 Bft) 100,00 %
01.08.2018 14:56 32,6 C 27,8 C 44,4 C 36 % 1014,2 hPa 0,0 l/m 6,4 km/h (2 Bft) S-SW 203 2 min 0,000 mm 4,9 UV-I 741 W/m 15,6 C 32,6 C 9,7 km/h (2 Bft) 100,00 %
01.08.2018 14:58 32,6 C 27,8 C 44,4 C 37 % 1014,2 hPa 0,0 l/m 6,7 km/h (2 Bft) SO 146 2 min 0,000 mm 4,8 UV-I 729 W/m 16,0 C 32,6 C 11,3 km/h (2 Bft) 100,00 %
01.08.2018 15:00 32,5 C 28,3 C 44,4 C 37 % 1014,2 hPa 0,0 l/m 3,6 km/h (1 Bft) W-SW 248 2 min 0,558 mm 4,7 UV-I 718 W/m 15,9 C 32,5 C 6,4 km/h (2 Bft) 97,87 %
01.08.2018 15:02 32,7 C 28,3 C 44,4 C 37 % 1014,1 hPa 0,0 l/m 6,2 km/h (2 Bft) SW 233 2 min 0,000 mm 4,7 UV-I 728 W/m 16,1 C 32,7 C 8,0 km/h (2 Bft) 97,87 %
01.08.2018 15:04 32,7 C 28,3 C 43,9 C 36 % 1014,2 hPa 0,0 l/m 4,0 km/h (1 Bft) SW 235 2 min 0,000 mm 4,7 UV-I 728 W/m 15,6 C 32,7 C 6,4 km/h (2 Bft) 100,00 %
01.08.2018 15:06 32,7 C 28,3 C 43,9 C 37 % 1014,1 hPa 0,0 l/m 5,0 km/h (1 Bft) W 275 2 min 0,000 mm 4,7 UV-I 728 W/m 16,1 C 32,7 C 9,7 km/h (2 Bft) 97,37 %
01.08.2018 15:08 32,7 C 28,3 C 43,9 C 37 % 1014,1 hPa 0,0 l/m 3,8 km/h (1 Bft) W 264 2 min 0,000 mm 4,7 UV-I 722 W/m 16,1 C 32,7 C 6,4 km/h (2 Bft) 100,00 %
01.08.2018 15:10 32,8 C 28,3 C 43,9 C 38 % 1014,1 hPa 0,0 l/m 2,0 km/h (1 Bft) SO 141 2 min 0,000 mm 4,5 UV-I 711 W/m 16,6 C 32,8 C 4,8 km/h (1 Bft) 93,62 %
01.08.2018 15:12 33,2 C 28,3 C 45,0 C 35 % 1014,0 hPa 0,0 l/m 1,1 km/h (1 Bft) SO 141 2 min 0,000 mm 4,6 UV-I 716 W/m 15,6 C 33,2 C 4,8 km/h (1 Bft) 100,00 %
01.08.2018 15:14 33,2 C 28,3 C 45,0 C 37 % 1014,0 hPa 0,0 l/m 1,6 km/h (1 Bft) O-SO 103 2 min 0,000 mm 4,6 UV-I 721 W/m 16,5 C 33,2 C 4,8 km/h (1 Bft) 97,87 %
01.08.2018 15:16 33,1 C 28,3 C 44,4 C 37 % 1014,0 hPa 0,0 l/m 5,2 km/h (1 Bft) N-NO 13 2 min 0,000 mm 4,5 UV-I 716 W/m 16,4 C 33,1 C 8,0 km/h (2 Bft) 98,00 %
01.08.2018 15:18 33,2 C 28,3 C 44,4 C 35 % 1014,0 hPa 0,0 l/m 6,4 km/h (2 Bft) W-NW 300 2 min 0,000 mm 4,5 UV-I 709 W/m 15,6 C 33,2 C 14,5 km/h (3 Bft) 95,74 %
01.08.2018 15:20 33,2 C 28,3 C 44,4 C 34 % 1013,9 hPa 0,0 l/m 4,1 km/h (1 Bft) NO 45 2 min 0,000 mm 4,4 UV-I 706 W/m 15,2 C 33,2 C 9,7 km/h (2 Bft) 95,74 %
01.08.2018 15:22 33,4 C 28,3 C 43,9 C 33 % 1014,0 hPa 0,0 l/m 7,0 km/h (2 Bft) W-NW 286 2 min 0,000 mm 4,4 UV-I 705 W/m 14,9 C 33,4 C 14,5 km/h (3 Bft) 91,49 %
01.08.2018 15:24 33,4 C 28,3 C 42,8 C 32 % 1014,0 hPa 0,0 l/m 12,0 km/h (2 Bft) N 10 2 min 0,000 mm 4,4 UV-I 711 W/m 14,4 C 33,4 C 16,1 km/h (3 Bft) 92,11 %
01.08.2018 15:26 33,5 C 28,3 C 42,8 C 32 % 1014,0 hPa 0,0 l/m 11,3 km/h (2 Bft) N 355 2 min 0,000 mm 4,4 UV-I 717 W/m 14,5 C 33,5 C 14,5 km/h (3 Bft) 97,87 %
01.08.2018 15:28 33,6 C 28,3 C 42,8 C 32 % 1014,0 hPa 0,0 l/m 9,1 km/h (2 Bft) NO 41 2 min 0,000 mm 4,4 UV-I 714 W/m 14,6 C 33,6 C 16,1 km/h (3 Bft) 97,87 %
01.08.2018 15:30 33,6 C 28,3 C 43,3 C 34 % 1013,9 hPa 0,0 l/m 8,8 km/h (2 Bft) NO 55 2 min 0,000 mm 4,4 UV-I 714 W/m 15,5 C 33,6 C 14,5 km/h (3 Bft) 97,92 %
01.08.2018 15:32 33,4 C 28,3 C 43,3 C 34 % 1013,9 hPa 0,0 l/m 9,9 km/h (2 Bft) N-NO 26 2 min 0,000 mm 4,2 UV-I 708 W/m 15,4 C 33,4 C 16,1 km/h (3 Bft) 97,87 %
01.08.2018 15:34 33,4 C 28,3 C 42,8 C 32 % 1014,0 hPa 0,0 l/m 7,2 km/h (2 Bft) N 360 2 min 0,000 mm 4,2 UV-I 703 W/m 14,4 C 33,4 C 16,1 km/h (3 Bft) 93,62 %
01.08.2018 15:36 33,1 C 28,3 C 42,8 C 33 % 1013,9 hPa 0,0 l/m 4,5 km/h (1 Bft) NW 314 2 min 0,000 mm 4,1 UV-I 701 W/m 14,6 C 33,1 C 6,4 km/h (2 Bft) 97,87 %
01.08.2018 15:38 33,0 C 28,3 C 43,3 C 33 % 1013,9 hPa 0,0 l/m 6,7 km/h (2 Bft) NW 317 2 min 0,000 mm 4,0 UV-I 698 W/m 14,5 C 33,0 C 11,3 km/h (2 Bft) 95,74 %
01.08.2018 15:40 33,0 C 28,3 C 42,8 C 34 % 1013,9 hPa 0,0 l/m 4,5 km/h (1 Bft) N-NW 333 2 min 0,000 mm 4,0 UV-I 692 W/m 15,0 C 33,0 C 8,0 km/h (2 Bft) 97,87 %
01.08.2018 15:42 33,0 C 28,3 C 43,3 C 35 % 1013,9 hPa 0,0 l/m 4,7 km/h (1 Bft) N-NW 344 2 min 0,000 mm 4,0 UV-I 701 W/m 15,5 C 33,0 C 8,0 km/h (2 Bft) 97,87 %
01.08.2018 15:44 33,0 C 28,3 C 43,3 C 33 % 1013,8 hPa 0,0 l/m 4,3 km/h (1 Bft) S 173 2 min 0,000 mm 3,9 UV-I 697 W/m 14,5 C 33,0 C 9,7 km/h (2 Bft) 95,74 %
01.08.2018 15:46 32,9 C 28,3 C 43,9 C 35 % 1013,8 hPa 0,0 l/m 2,8 km/h (1 Bft) S-SW 194 2 min 0,000 mm 3,8 UV-I 698 W/m 15,4 C 32,9 C 9,7 km/h (2 Bft) 100,00 %
01.08.2018 15:48 32,9 C 28,3 C 44,4 C 34 % 1013,8 hPa 0,0 l/m 3,7 km/h (1 Bft) S-SO 163 2 min 0,000 mm 3,9 UV-I 701 W/m 14,9 C 32,9 C 6,4 km/h (2 Bft) 100,00 %
01.08.2018 15:50 33,0 C 28,3 C 45,0 C 36 % 1013,8 hPa 0,0 l/m 3,9 km/h (1 Bft) S-SO 161 2 min 0,000 mm 3,9 UV-I 704 W/m 15,9 C 33,0 C 6,4 km/h (2 Bft) 100,00 %
01.08.2018 15:52 33,2 C 28,3 C 45,0 C 36 % 1013,8 hPa 0,0 l/m 8,8 km/h (2 Bft) NO 44 2 min 0,000 mm 3,8 UV-I 706 W/m 16,1 C 33,2 C 16,1 km/h (3 Bft) 91,49 %
01.08.2018 15:54 33,4 C 28,3 C 43,3 C 36 % 1013,8 hPa 0,0 l/m 10,0 km/h (2 Bft) O 87 2 min 0,000 mm 3,8 UV-I 697 W/m 16,3 C 33,4 C 14,5 km/h (3 Bft) 100,00 %
01.08.2018 15:56 33,6 C 28,3 C 43,3 C 35 % 1013,7 hPa 0,0 l/m 8,2 km/h (2 Bft) NO 34 2 min 0,000 mm 3,7 UV-I 684 W/m 16,0 C 33,6 C 14,5 km/h (3 Bft) 100,00 %
01.08.2018 15:58 33,8 C 28,3 C 42,8 C 35 % 1013,7 hPa 0,0 l/m 10,6 km/h (2 Bft) NO 40 2 min 0,000 mm 3,7 UV-I 671 W/m 16,2 C 33,8 C 16,1 km/h (3 Bft) 100,00 %
01.08.2018 16:00 33,8 C 28,3 C 42,8 C 33 % 1013,7 hPa 0,0 l/m 7,6 km/h (2 Bft) O-NO 60 2 min 0,559 mm 3,6 UV-I 662 W/m 15,2 C 33,8 C 12,9 km/h (3 Bft) 95,74 %
01.08.2018 16:02 33,6 C 28,3 C 42,8 C 34 % 1013,7 hPa 0,0 l/m 5,4 km/h (1 Bft) O 90 2 min 0,000 mm 3,5 UV-I 650 W/m 15,5 C 33,6 C 14,5 km/h (3 Bft) 97,87 %
01.08.2018 16:04 33,5 C 28,3 C 43,3 C 32 % 1013,7 hPa 0,0 l/m 6,1 km/h (2 Bft) O 87 2 min 0,000 mm 3,5 UV-I 645 W/m 14,5 C 33,5 C 12,9 km/h (3 Bft) 91,49 %
01.08.2018 16:06 33,4 C 28,3 C 43,9 C 37 % 1013,7 hPa 0,0 l/m 5,4 km/h (1 Bft) NO 49 2 min 0,000 mm 3,4 UV-I 650 W/m 16,7 C 33,4 C 8,0 km/h (2 Bft) 97,87 %
01.08.2018 16:08 33,6 C 28,3 C 43,3 C 35 % 1013,7 hPa 0,0 l/m 7,1 km/h (2 Bft) NO 40 2 min 0,000 mm 3,4 UV-I 665 W/m 16,0 C 33,6 C 11,3 km/h (2 Bft) 100,00 %
01.08.2018 16:10 33,6 C 28,3 C 43,3 C 34 % 1013,7 hPa 0,0 l/m 4,4 km/h (1 Bft) O-NO 76 2 min 0,000 mm 3,4 UV-I 673 W/m 15,5 C 33,6 C 8,0 km/h (2 Bft) 94,87 %
01.08.2018 16:12 33,5 C 28,3 C 43,9 C 34 % 1013,7 hPa 0,0 l/m 6,1 km/h (2 Bft) O 81 2 min 0,000 mm 3,3 UV-I 675 W/m 15,4 C 33,5 C 9,7 km/h (2 Bft) 91,49 %
01.08.2018 16:14 33,5 C 28,3 C 43,9 C 34 % 1013,7 hPa 0,0 l/m 2,7 km/h (1 Bft) S-SW 206 2 min 0,000 mm 3,2 UV-I 674 W/m 15,4 C 33,5 C 4,8 km/h (1 Bft) 93,62 %
01.08.2018 16:16 33,7 C 28,9 C 44,4 C 36 % 1013,7 hPa 0,0 l/m 6,8 km/h (2 Bft) N-NW 340 2 min 0,000 mm 3,1 UV-I 676 W/m 16,5 C 33,7 C 11,3 km/h (2 Bft) 95,74 %
01.08.2018 16:18 33,7 C 28,3 C 41,1 C 34 % 1013,7 hPa 0,0 l/m 9,9 km/h (2 Bft) NW 306 2 min 0,000 mm 2,3 UV-I 447 W/m 15,6 C 33,7 C 16,1 km/h (3 Bft) 96,00 %
01.08.2018 16:20 33,5 C 28,9 C 40,0 C 35 % 1013,7 hPa 0,0 l/m 12,5 km/h (3 Bft) N-NW 348 0 min 0,000 mm 2,6 UV-I 206 W/m 15,9 C 33,5 C 16,1 km/h (3 Bft) 93,62 %
01.08.2018 16:22 33,6 C 28,3 C 41,1 C 35 % 1013,7 hPa 0,0 l/m 6,1 km/h (2 Bft) NO 40 2 min 0,000 mm 3,1 UV-I 577 W/m 16,0 C 33,6 C 12,9 km/h (3 Bft) 90,00 %
01.08.2018 16:24 33,7 C 28,3 C 41,7 C 35 % 1013,7 hPa 0,0 l/m 11,4 km/h (2 Bft) N-NO 22 2 min 0,000 mm 3,0 UV-I 652 W/m 16,1 C 33,7 C 16,1 km/h (3 Bft) 96,00 %
01.08.2018 16:26 33,9 C 28,3 C 41,7 C 35 % 1013,7 hPa 0,0 l/m 10,3 km/h (2 Bft) NO 47 2 min 0,000 mm 2,9 UV-I 631 W/m 16,2 C 33,9 C 16,1 km/h (3 Bft) 95,74 %
01.08.2018 16:28 34,0 C 28,3 C 41,7 C 34 % 1013,7 hPa 0,0 l/m 11,5 km/h (2 Bft) N 10 2 min 0,000 mm 2,8 UV-I 609 W/m 15,9 C 34,0 C 14,5 km/h (3 Bft) 95,74 %
01.08.2018 16:30 33,8 C 28,3 C 41,1 C 33 % 1013,7 hPa 0,0 l/m 7,4 km/h (2 Bft) NO 36 2 min 0,000 mm 2,8 UV-I 595 W/m 15,2 C 33,8 C 12,9 km/h (3 Bft) 95,74 %
01.08.2018 16:32 33,8 C 28,3 C 41,7 C 35 % 1013,7 hPa 0,0 l/m 8,0 km/h (2 Bft) N-NO 25 2 min 0,000 mm 2,7 UV-I 566 W/m 16,2 C 33,8 C 12,9 km/h (3 Bft) 95,12 %
01.08.2018 16:34 33,7 C 28,3 C 40,6 C 33 % 1013,6 hPa 0,0 l/m 8,5 km/h (2 Bft) N 349 2 min 0,000 mm 2,5 UV-I 579 W/m 15,2 C 33,7 C 12,9 km/h (3 Bft) 95,74 %
01.08.2018 16:36 33,4 C 28,3 C 39,4 C 34 % 1013,6 hPa 0,0 l/m 6,6 km/h (2 Bft) N-NO 13 0 min 0,000 mm 2,3 UV-I 205 W/m 15,4 C 33,4 C 9,7 km/h (2 Bft) 93,62 %
01.08.2018 16:38 33,3 C 28,3 C 40,0 C 33 % 1013,6 hPa 0,0 l/m 5,3 km/h (1 Bft) N 10 2 min 0,000 mm 2,6 UV-I 569 W/m 14,8 C 33,3 C 8,0 km/h (2 Bft) 89,36 %
01.08.2018 16:40 33,3 C 28,3 C 40,6 C 34 % 1013,5 hPa 0,0 l/m 9,4 km/h (2 Bft) NO 46 2 min 0,000 mm 2,6 UV-I 567 W/m 15,3 C 33,3 C 16,1 km/h (3 Bft) 97,87 %
01.08.2018 16:42 33,5 C 28,3 C 41,1 C 34 % 1013,5 hPa 0,0 l/m 7,0 km/h (2 Bft) NO 55 2 min 0,000 mm 2,6 UV-I 566 W/m 15,4 C 33,5 C 11,3 km/h (2 Bft) 97,87 %
01.08.2018 16:44 33,6 C 28,3 C 41,7 C 35 % 1013,5 hPa 0,0 l/m 4,9 km/h (1 Bft) NO 40 2 min 0,000 mm 2,6 UV-I 555 W/m 16,0 C 33,6 C 8,0 km/h (2 Bft) 98,00 %
01.08.2018 16:46 33,8 C 28,3 C 42,8 C 34 % 1013,5 hPa 0,0 l/m 3,8 km/h (1 Bft) SW 229 2 min 0,000 mm 2,5 UV-I 545 W/m 15,7 C 33,8 C 8,0 km/h (2 Bft) 97,87 %
01.08.2018 16:48 33,9 C 28,3 C 43,3 C 33 % 1013,5 hPa 0,0 l/m 3,2 km/h (1 Bft) N 355 2 min 0,000 mm 2,5 UV-I 547 W/m 15,3 C 33,9 C 6,4 km/h (2 Bft) 97,87 %
01.08.2018 16:50 33,9 C 28,3 C 42,8 C 34 % 1013,5 hPa 0,0 l/m 7,8 km/h (2 Bft) NO 53 2 min 0,000 mm 2,4 UV-I 550 W/m 15,8 C 33,9 C 14,5 km/h (3 Bft) 97,22 %
01.08.2018 16:52 33,8 C 28,3 C 42,8 C 33 % 1013,4 hPa 0,0 l/m 3,3 km/h (1 Bft) SO 124 2 min 0,000 mm 2,4 UV-I 555 W/m 15,2 C 33,8 C 8,0 km/h (2 Bft) 100,00 %
01.08.2018 16:54 33,7 C 28,3 C 43,3 C 35 % 1013,4 hPa 0,0 l/m 6,1 km/h (2 Bft) O-NO 57 2 min 0,000 mm 2,4 UV-I 553 W/m 16,1 C 33,7 C 11,3 km/h (2 Bft) 93,62 %
01.08.2018 16:56 33,7 C 28,3 C 43,9 C 35 % 1013,4 hPa 0,0 l/m 7,0 km/h (2 Bft) O-SO 113 2 min 0,000 mm 2,3 UV-I 543 W/m 16,1 C 33,7 C 12,9 km/h (3 Bft) 100,00 %
01.08.2018 16:58 33,6 C 28,3 C 43,3 C 33 % 1013,4 hPa 0,0 l/m 2,1 km/h (1 Bft) O-SO 110 2 min 0,000 mm 2,3 UV-I 533 W/m 15,1 C 33,6 C 4,8 km/h (1 Bft) 100,00 %
01.08.2018 17:00 33,5 C 28,3 C 43,3 C 32 % 1013,4 hPa 0,0 l/m 1,9 km/h (1 Bft) N 355 2 min 0,483 mm 2,2 UV-I 524 W/m 14,5 C 33,5 C 6,4 km/h (2 Bft) 97,87 %
01.08.2018 17:02 33,6 C 28,3 C 42,2 C 33 % 1013,4 hPa 0,0 l/m 8,4 km/h (2 Bft) N-NO 31 2 min 0,000 mm 1,9 UV-I 489 W/m 15,1 C 33,6 C 14,5 km/h (3 Bft) 100,00 %
01.08.2018 17:04 33,4 C 28,3 C 38,3 C 34 % 1013,4 hPa 0,0 l/m 14,4 km/h (3 Bft) N-NO 27 0 min 0,000 mm 1,6 UV-I 172 W/m 15,4 C 33,4 C 22,5 km/h (4 Bft) 97,87 %
01.08.2018 17:06 33,2 C 28,3 C 36,1 C 34 % 1013,4 hPa 0,0 l/m 7,5 km/h (2 Bft) N-NW 336 0 min 0,000 mm 1,5 UV-I 140 W/m 15,2 C 33,2 C 9,7 km/h (2 Bft) 97,37 %
01.08.2018 17:08 32,9 C 28,3 C 35,0 C 34 % 1013,4 hPa 0,0 l/m 7,1 km/h (2 Bft) N-NO 18 0 min 0,000 mm 1,6 UV-I 159 W/m 14,9 C 32,9 C 12,9 km/h (3 Bft) 100,00 %
01.08.2018 17:10 32,8 C 28,3 C 35,6 C 36 % 1013,3 hPa 0,0 l/m 11,4 km/h (2 Bft) N-NW 342 0 min 0,000 mm 1,8 UV-I 236 W/m 15,7 C 32,8 C 17,7 km/h (3 Bft) 97,87 %
01.08.2018 17:12 32,9 C 28,3 C 37,2 C 34 % 1013,3 hPa 0,0 l/m 10,9 km/h (2 Bft) NO 37 2 min 0,000 mm 1,9 UV-I 438 W/m 14,9 C 32,9 C 19,3 km/h (3 Bft) 95,74 %
01.08.2018 17:14 33,1 C 28,3 C 38,9 C 33 % 1013,4 hPa 0,0 l/m 10,3 km/h (2 Bft) N 5 2 min 0,000 mm 1,9 UV-I 507 W/m 14,6 C 33,1 C 16,1 km/h (3 Bft) 97,87 %
01.08.2018 17:16 33,2 C 28,3 C 39,4 C 34 % 1013,3 hPa 0,0 l/m 14,8 km/h (3 Bft) N-NO 24 2 min 0,000 mm 1,9 UV-I 511 W/m 15,2 C 33,2 C 17,7 km/h (3 Bft) 97,87 %
01.08.2018 17:19 33,6 C 28,3 C 40,0 C 33 % 1013,3 hPa 0,0 l/m 9,0 km/h (2 Bft) N 5 3 min 0,000 mm 1,8 UV-I 496 W/m 15,1 C 33,6 C 16,1 km/h (3 Bft) 97,30 %
01.08.2018 17:20 33,6 C 28,3 C 40,6 C 33 % 1013,3 hPa 0,0 l/m 3,5 km/h (1 Bft) N 9 1 min 0,000 mm 1,7 UV-I 471 W/m 15,1 C 33,6 C 4,8 km/h (1 Bft) 95,65 %
01.08.2018 17:22 33,5 C 28,3 C 41,1 C 33 % 1013,3 hPa 0,0 l/m 3,0 km/h (1 Bft) NW 325 2 min 0,000 mm 1,7 UV-I 460 W/m 15,0 C 33,5 C 8,0 km/h (2 Bft) 91,49 %
01.08.2018 17:24 33,4 C 28,3 C 40,6 C 32 % 1013,3 hPa 0,0 l/m 6,4 km/h (2 Bft) N-NO 14 2 min 0,000 mm 1,7 UV-I 453 W/m 14,4 C 33,4 C 12,9 km/h (3 Bft) 95,83 %
01.08.2018 17:26 33,4 C 28,3 C 41,1 C 34 % 1013,3 hPa 0,0 l/m 5,4 km/h (1 Bft) N-NO 13 2 min 0,000 mm 1,7 UV-I 462 W/m 15,4 C 33,4 C 12,9 km/h (3 Bft) 97,87 %
01.08.2018 17:28 33,6 C 28,3 C 41,7 C 34 % 1013,2 hPa 0,0 l/m 7,0 km/h (2 Bft) NO 40 2 min 0,000 mm 1,6 UV-I 462 W/m 15,5 C 33,6 C 11,3 km/h (2 Bft) 95,74 %
01.08.2018 17:30 33,7 C 28,3 C 41,7 C 33 % 1013,3 hPa 0,0 l/m 9,0 km/h (2 Bft) NO 42 2 min 0,000 mm 1,6 UV-I 458 W/m 15,2 C 33,7 C 14,5 km/h (3 Bft) 96,00 %
01.08.2018 17:32 33,7 C 28,3 C 41,1 C 34 % 1013,2 hPa 0,0 l/m 13,0 km/h (3 Bft) N-NO 26 2 min 0,000 mm 1,5 UV-I 453 W/m 15,6 C 33,7 C 20,9 km/h (4 Bft) 97,87 %
01.08.2018 17:34 33,8 C 28,3 C 41,1 C 31 % 1013,3 hPa 0,0 l/m 9,5 km/h (2 Bft) N 5 2 min 0,000 mm 1,5 UV-I 451 W/m 14,3 C 33,8 C 16,1 km/h (3 Bft) 93,62 %
01.08.2018 17:36 33,7 C 28,3 C 40,6 C 31 % 1013,3 hPa 0,0 l/m 10,3 km/h (2 Bft) N 5 2 min 0,000 mm 1,5 UV-I 447 W/m 14,2 C 33,7 C 16,1 km/h (3 Bft) 100,00 %
01.08.2018 17:38 33,7 C 28,3 C 41,1 C 31 % 1013,3 hPa 0,0 l/m 6,7 km/h (2 Bft) N-NO 19 2 min 0,000 mm 1,5 UV-I 446 W/m 14,2 C 33,7 C 11,3 km/h (2 Bft) 94,00 %
01.08.2018 17:40 33,7 C 28,3 C 40,6 C 32 % 1013,3 hPa 0,0 l/m 5,1 km/h (1 Bft) N 5 2 min 0,000 mm 1,4 UV-I 437 W/m 14,7 C 33,7 C 8,0 km/h (2 Bft) 97,87 %
01.08.2018 17:42 33,7 C 28,3 C 41,1 C 32 % 1013,3 hPa 0,0 l/m 11,2 km/h (2 Bft) N-NO 28 2 min 0,000 mm 1,4 UV-I 428 W/m 14,7 C 33,7 C 17,7 km/h (3 Bft) 97,87 %
01.08.2018 17:44 33,7 C 28,3 C 40,6 C 31 % 1013,2 hPa 0,0 l/m 9,0 km/h (2 Bft) NW 325 2 min 0,000 mm 1,3 UV-I 419 W/m 14,2 C 33,7 C 17,7 km/h (3 Bft) 100,00 %
01.08.2018 17:46 33,6 C 28,3 C 40,6 C 31 % 1013,3 hPa 0,0 l/m 12,1 km/h (2 Bft) N 9 2 min 0,000 mm 1,3 UV-I 402 W/m 14,1 C 33,6 C 17,7 km/h (3 Bft) 100,00 %
01.08.2018 17:48 33,6 C 28,3 C 40,0 C 32 % 1013,2 hPa 0,0 l/m 9,3 km/h (2 Bft) O-NO 57 2 min 0,000 mm 1,3 UV-I 393 W/m 14,6 C 33,6 C 16,1 km/h (3 Bft) 94,74 %
01.08.2018 17:50 33,4 C 28,3 C 40,0 C 35 % 1013,2 hPa 0,0 l/m 5,4 km/h (1 Bft) NO 39 2 min 0,000 mm 1,2 UV-I 383 W/m 15,8 C 33,4 C 11,3 km/h (2 Bft) 100,00 %
01.08.2018 17:52 33,3 C 28,3 C 40,0 C 36 % 1013,2 hPa 0,0 l/m 5,3 km/h (1 Bft) O 97 2 min 0,000 mm 1,2 UV-I 378 W/m 16,2 C 33,3 C 12,9 km/h (3 Bft) 100,00 %
01.08.2018 17:54 33,2 C 28,3 C 40,0 C 36 % 1013,2 hPa 0,0 l/m 11,6 km/h (2 Bft) O-NO 68 2 min 0,000 mm 1,2 UV-I 374 W/m 16,1 C 33,2 C 19,3 km/h (3 Bft) 97,87 %
01.08.2018 17:56 33,1 C 28,3 C 40,0 C 37 % 1013,2 hPa 0,0 l/m 10,9 km/h (2 Bft) O 80 2 min 0,000 mm 1,2 UV-I 368 W/m 16,4 C 33,1 C 14,5 km/h (3 Bft) 98,00 %
01.08.2018 17:58 33,1 C 28,3 C 40,0 C 36 % 1013,2 hPa 0,0 l/m 12,2 km/h (2 Bft) O 81 2 min 0,000 mm 1,1 UV-I 366 W/m 16,0 C 33,1 C 16,1 km/h (3 Bft) 100,00 %
01.08.2018 18:00 33,0 C 28,3 C 40,0 C 36 % 1013,1 hPa 0,0 l/m 12,2 km/h (2 Bft) O-NO 77 2 min 0,406 mm 1,1 UV-I 363 W/m 15,9 C 33,0 C 16,1 km/h (3 Bft) 97,92 %
01.08.2018 18:02 33,1 C 28,3 C 40,6 C 37 % 1013,2 hPa 0,0 l/m 9,2 km/h (2 Bft) O-NO 67 2 min 0,000 mm 1,0 UV-I 357 W/m 16,4 C 33,1 C 16,1 km/h (3 Bft) 100,00 %
01.08.2018 18:04 33,1 C 28,3 C 40,6 C 37 % 1013,2 hPa 0,0 l/m 10,5 km/h (2 Bft) NO 46 2 min 0,000 mm 1,0 UV-I 355 W/m 16,4 C 33,1 C 17,7 km/h (3 Bft) 98,00 %
01.08.2018 18:06 33,1 C 28,3 C 40,6 C 36 % 1013,2 hPa 0,0 l/m 5,7 km/h (1 Bft) O-NO 74 2 min 0,000 mm 1,0 UV-I 353 W/m 16,0 C 33,1 C 9,7 km/h (2 Bft) 100,00 %
01.08.2018 18:08 33,1 C 28,3 C 40,6 C 36 % 1013,1 hPa 0,0 l/m 9,0 km/h (2 Bft) O 80 2 min 0,000 mm 1,0 UV-I 351 W/m 16,0 C 33,1 C 12,9 km/h (3 Bft) 98,00 %
01.08.2018 18:10 33,0 C 28,3 C 40,6 C 36 % 1013,2 hPa 0,0 l/m 9,7 km/h (2 Bft) O 94 2 min 0,000 mm 0,9 UV-I 332 W/m 15,9 C 33,0 C 12,9 km/h (3 Bft) 97,87 %
01.08.2018 18:12 32,9 C 28,3 C 40,0 C 36 % 1013,1 hPa 0,0 l/m 10,5 km/h (2 Bft) O 82 2 min 0,000 mm 0,9 UV-I 284 W/m 15,8 C 32,9 C 14,5 km/h (3 Bft) 100,00 %
01.08.2018 18:14 32,8 C 28,3 C 39,4 C 36 % 1013,1 hPa 0,0 l/m 8,4 km/h (2 Bft) O-NO 78 2 min 0,000 mm 0,9 UV-I 316 W/m 15,7 C 32,8 C 12,9 km/h (3 Bft) 97,87 %
01.08.2018 18:16 32,8 C 28,3 C 40,0 C 37 % 1013,1 hPa 0,0 l/m 5,6 km/h (1 Bft) O-NO 59 2 min 0,000 mm 0,8 UV-I 327 W/m 16,2 C 32,8 C 11,3 km/h (2 Bft) 98,00 %
01.08.2018 18:18 32,8 C 28,3 C 40,0 C 38 % 1013,1 hPa 0,0 l/m 4,9 km/h (1 Bft) O-SO 107 2 min 0,000 mm 0,8 UV-I 322 W/m 16,6 C 32,8 C 9,7 km/h (2 Bft) 100,00 %
01.08.2018 18:20 32,8 C 28,3 C 40,6 C 38 % 1013,1 hPa 0,0 l/m 6,3 km/h (2 Bft) O-NO 65 2 min 0,000 mm 0,8 UV-I 313 W/m 16,6 C 32,8 C 16,1 km/h (3 Bft) 100,00 %
01.08.2018 18:22 32,8 C 28,3 C 40,0 C 39 % 1013,1 hPa 0,0 l/m 8,6 km/h (2 Bft) O 88 2 min 0,000 mm 0,7 UV-I 299 W/m 17,0 C 32,8 C 16,1 km/h (3 Bft) 97,87 %
01.08.2018 18:24 32,8 C 28,3 C 40,0 C 36 % 1013,1 hPa 0,0 l/m 9,2 km/h (2 Bft) NO 50 2 min 0,000 mm 0,7 UV-I 291 W/m 15,7 C 32,8 C 14,5 km/h (3 Bft) 95,74 %
01.08.2018 18:26 32,7 C 28,3 C 39,4 C 37 % 1013,1 hPa 0,0 l/m 7,9 km/h (2 Bft) O-NO 71 2 min 0,000 mm 0,7 UV-I 266 W/m 16,1 C 32,7 C 11,3 km/h (2 Bft) 97,87 %
01.08.2018 18:28 32,6 C 28,3 C 38,9 C 37 % 1013,1 hPa 0,0 l/m 10,4 km/h (2 Bft) NO 34 2 min 0,000 mm 0,7 UV-I 267 W/m 16,0 C 32,6 C 14,5 km/h (3 Bft) 97,87 %
01.08.2018 18:30 32,6 C 28,3 C 38,9 C 38 % 1013,1 hPa 0,0 l/m 8,5 km/h (2 Bft) O-NO 71 2 min 0,000 mm 0,7 UV-I 267 W/m 16,4 C 32,6 C 14,5 km/h (3 Bft) 97,87 %
01.08.2018 18:32 32,6 C 28,3 C 38,3 C 37 % 1013,1 hPa 0,0 l/m 11,3 km/h (2 Bft) O-NO 75 2 min 0,000 mm 0,6 UV-I 260 W/m 16,0 C 32,5 C 12,9 km/h (3 Bft) 95,74 %
01.08.2018 18:34 32,4 C 28,3 C 38,3 C 38 % 1013,1 hPa 0,0 l/m 9,4 km/h (2 Bft) O-NO 57 2 min 0,000 mm 0,6 UV-I 255 W/m 16,2 C 32,3 C 12,9 km/h (3 Bft) 96,00 %
01.08.2018 18:36 32,4 C 28,3 C 38,3 C 38 % 1013,0 hPa 0,0 l/m 7,9 km/h (2 Bft) O-NO 64 2 min 0,000 mm 0,6 UV-I 249 W/m 16,2 C 32,4 C 12,9 km/h (3 Bft) 94,87 %
01.08.2018 18:38 32,4 C 28,3 C 38,3 C 39 % 1013,1 hPa 0,0 l/m 9,7 km/h (2 Bft) O 79 2 min 0,000 mm 0,6 UV-I 240 W/m 16,6 C 32,3 C 14,5 km/h (3 Bft) 91,49 %
01.08.2018 18:40 32,4 C 28,3 C 38,3 C 39 % 1013,0 hPa 0,0 l/m 9,7 km/h (2 Bft) O-NO 65 2 min 0,000 mm 0,5 UV-I 232 W/m 16,6 C 32,3 C 14,5 km/h (3 Bft) 95,74 %
01.08.2018 18:42 32,3 C 28,3 C 37,8 C 37 % 1013,1 hPa 0,0 l/m 9,3 km/h (2 Bft) O-NO 68 2 min 0,000 mm 0,5 UV-I 225 W/m 15,7 C 32,2 C 14,5 km/h (3 Bft) 94,00 %
01.08.2018 18:44 32,3 C 28,3 C 37,8 C 38 % 1013,1 hPa 0,0 l/m 6,8 km/h (2 Bft) O 84 2 min 0,000 mm 0,5 UV-I 220 W/m 16,1 C 32,3 C 11,3 km/h (2 Bft) 95,74 %
01.08.2018 18:46 32,3 C 28,3 C 37,8 C 39 % 1013,0 hPa 0,0 l/m 8,0 km/h (2 Bft) NO 56 2 min 0,000 mm 0,5 UV-I 213 W/m 16,5 C 32,3 C 12,9 km/h (3 Bft) 93,62 %
01.08.2018 18:48 32,3 C 28,3 C 37,8 C 39 % 1013,0 hPa 0,0 l/m 8,3 km/h (2 Bft) O 80 2 min 0,000 mm 0,5 UV-I 206 W/m 16,5 C 32,3 C 11,3 km/h (2 Bft) 93,62 %
01.08.2018 18:50 32,2 C 28,3 C 37,2 C 38 % 1013,0 hPa 0,0 l/m 8,9 km/h (2 Bft) O-SO 103 2 min 0,000 mm 0,5 UV-I 199 W/m 16,0 C 32,1 C 14,5 km/h (3 Bft) 95,74 %
01.08.2018 18:52 32,2 C 28,3 C 37,2 C 37 % 1013,0 hPa 0,0 l/m 9,2 km/h (2 Bft) O-NO 77 2 min 0,000 mm 0,0 UV-I 191 W/m 15,6 C 32,1 C 14,5 km/h (3 Bft) 93,62 %
01.08.2018 18:54 32,2 C 28,3 C 37,2 C 38 % 1013,1 hPa 0,0 l/m 6,0 km/h (2 Bft) O 84 2 min 0,000 mm 0,0 UV-I 173 W/m 16,0 C 32,2 C 9,7 km/h (2 Bft) 96,00 %
01.08.2018 18:56 32,1 C 28,3 C 37,2 C 39 % 1013,1 hPa 0,0 l/m 7,1 km/h (2 Bft) O 98 2 min 0,000 mm 0,0 UV-I 164 W/m 16,4 C 32,1 C 9,7 km/h (2 Bft) 94,74 %
01.08.2018 18:58 32,1 C 28,3 C 37,2 C 38 % 1013,1 hPa 0,0 l/m 6,3 km/h (2 Bft) O-NO 67 2 min 0,000 mm 0,0 UV-I 164 W/m 16,0 C 32,1 C 11,3 km/h (2 Bft) 97,87 %
01.08.2018 19:00 32,0 C 28,3 C 36,7 C 38 % 1013,1 hPa 0,0 l/m 6,4 km/h (2 Bft) O-NO 76 2 min 0,280 mm 0,0 UV-I 147 W/m 15,9 C 32,0 C 9,7 km/h (2 Bft) 92,45 %
01.08.2018 19:02 31,9 C 28,3 C 36,7 C 39 % 1013,0 hPa 0,0 l/m 4,4 km/h (1 Bft) O 90 2 min 0,000 mm 0,0 UV-I 152 W/m 16,2 C 31,9 C 6,4 km/h (2 Bft) 96,00 %
01.08.2018 19:04 31,9 C 28,3 C 36,7 C 40 % 1013,1 hPa 0,0 l/m 4,1 km/h (1 Bft) O-NO 71 2 min 0,000 mm 0,0 UV-I 151 W/m 16,6 C 31,9 C 6,4 km/h (2 Bft) 91,49 %
01.08.2018 19:06 31,8 C 28,3 C 36,7 C 41 % 1013,1 hPa 0,0 l/m 6,3 km/h (2 Bft) O-SO 115 2 min 0,000 mm 0,0 UV-I 156 W/m 16,9 C 31,8 C 11,3 km/h (2 Bft) 95,74 %
01.08.2018 19:08 31,8 C 28,3 C 36,7 C 40 % 1013,1 hPa 0,0 l/m 5,5 km/h (1 Bft) O 98 2 min 0,000 mm 0,0 UV-I 151 W/m 16,5 C 31,8 C 6,4 km/h (2 Bft) 93,62 %
01.08.2018 19:10 31,8 C 28,3 C 36,7 C 38 % 1013,1 hPa 0,0 l/m 5,3 km/h (1 Bft) O-SO 102 2 min 0,000 mm 0,0 UV-I 148 W/m 15,7 C 31,8 C 9,7 km/h (2 Bft) 95,74 %
01.08.2018 19:12 31,9 C 28,3 C 36,7 C 39 % 1013,1 hPa 0,0 l/m 3,4 km/h (1 Bft) O 92 2 min 0,000 mm 0,0 UV-I 142 W/m 16,2 C 31,9 C 6,4 km/h (2 Bft) 97,22 %
01.08.2018 19:14 31,9 C 28,3 C 36,7 C 39 % 1013,1 hPa 0,0 l/m 4,7 km/h (1 Bft) O 87 2 min 0,000 mm 0,0 UV-I 132 W/m 16,2 C 31,9 C 6,4 km/h (2 Bft) 93,62 %
01.08.2018 19:16 31,8 C 28,3 C 36,7 C 41 % 1013,1 hPa 0,0 l/m 3,9 km/h (1 Bft) O 86 2 min 0,000 mm 0,0 UV-I 132 W/m 16,9 C 31,8 C 6,4 km/h (2 Bft) 95,74 %
01.08.2018 19:18 31,7 C 28,3 C 36,1 C 41 % 1013,1 hPa 0,0 l/m 3,9 km/h (1 Bft) O 88 2 min 0,000 mm 0,0 UV-I 128 W/m 16,8 C 31,7 C 4,8 km/h (1 Bft) 95,74 %
01.08.2018 19:20 31,7 C 28,3 C 36,1 C 39 % 1013,1 hPa 0,0 l/m 4,0 km/h (1 Bft) O 94 2 min 0,000 mm 0,0 UV-I 127 W/m 16,0 C 31,7 C 6,4 km/h (2 Bft) 95,74 %
01.08.2018 19:22 31,7 C 28,3 C 36,1 C 40 % 1013,1 hPa 0,0 l/m 4,4 km/h (1 Bft) O 79 2 min 0,000 mm 0,0 UV-I 123 W/m 16,4 C 31,7 C 6,4 km/h (2 Bft) 89,36 %
01.08.2018 19:24 31,6 C 28,3 C 36,1 C 41 % 1013,1 hPa 0,0 l/m 2,3 km/h (1 Bft) O 80 2 min 0,000 mm 0,0 UV-I 119 W/m 16,7 C 31,6 C 4,8 km/h (1 Bft) 93,62 %
01.08.2018 19:26 31,6 C 28,3 C 36,1 C 40 % 1013,1 hPa 0,0 l/m 2,4 km/h (1 Bft) O 79 2 min 0,000 mm 0,0 UV-I 115 W/m 16,3 C 31,6 C 3,2 km/h (1 Bft) 95,74 %
01.08.2018 19:28 31,7 C 28,3 C 35,6 C 40 % 1013,1 hPa 0,0 l/m 4,0 km/h (1 Bft) O 79 2 min 0,000 mm 0,0 UV-I 111 W/m 16,4 C 31,7 C 4,8 km/h (1 Bft) 95,74 %
01.08.2018 19:30 31,7 C 28,3 C 35,0 C 41 % 1013,2 hPa 0,0 l/m 3,5 km/h (1 Bft) NO 53 2 min 0,000 mm 0,0 UV-I 107 W/m 16,8 C 31,7 C 4,8 km/h (1 Bft) 100,00 %
01.08.2018 19:32 31,6 C 28,3 C 34,4 C 41 % 1013,2 hPa 0,0 l/m 4,0 km/h (1 Bft) NO 53 2 min 0,000 mm 0,0 UV-I 104 W/m 16,7 C 31,6 C 4,8 km/h (1 Bft) 100,00 %
01.08.2018 19:34 31,5 C 28,3 C 34,4 C 42 % 1013,2 hPa 0,0 l/m 4,8 km/h (1 Bft) N-NO 32 2 min 0,000 mm 0,0 UV-I 102 W/m 17,0 C 31,5 C 6,4 km/h (2 Bft) 97,87 %
01.08.2018 19:36 31,5 C 28,3 C 33,9 C 43 % 1013,2 hPa 0,0 l/m 4,1 km/h (1 Bft) N-NO 32 2 min 0,000 mm 0,0 UV-I 98 W/m 17,4 C 31,5 C 6,4 km/h (2 Bft) 100,00 %
01.08.2018 19:38 31,4 C 28,3 C 33,9 C 41 % 1013,2 hPa 0,0 l/m 3,7 km/h (1 Bft) N-NO 32 2 min 0,000 mm 0,0 UV-I 95 W/m 16,5 C 31,4 C 4,8 km/h (1 Bft) 100,00 %
01.08.2018 19:40 31,3 C 28,3 C 33,9 C 41 % 1013,2 hPa 0,0 l/m 4,3 km/h (1 Bft) NO 46 2 min 0,000 mm 0,0 UV-I 91 W/m 16,4 C 31,3 C 6,4 km/h (2 Bft) 97,87 %
01.08.2018 19:42 31,3 C 28,3 C 33,3 C 40 % 1013,2 hPa 0,0 l/m 4,9 km/h (1 Bft) N-NO 19 2 min 0,000 mm 0,0 UV-I 87 W/m 16,1 C 31,3 C 6,4 km/h (2 Bft) 100,00 %
01.08.2018 19:44 31,3 C 28,3 C 33,3 C 41 % 1013,3 hPa 0,0 l/m 5,3 km/h (1 Bft) N-NO 32 2 min 0,000 mm 0,0 UV-I 83 W/m 16,4 C 31,3 C 9,7 km/h (2 Bft) 100,00 %
01.08.2018 19:46 31,2 C 28,3 C 32,8 C 40 % 1013,2 hPa 0,0 l/m 6,1 km/h (2 Bft) NO 45 2 min 0,000 mm 0,0 UV-I 80 W/m 16,0 C 31,2 C 8,0 km/h (2 Bft) 97,87 %
01.08.2018 19:48 31,1 C 28,3 C 32,2 C 40 % 1013,3 hPa 0,0 l/m 7,0 km/h (2 Bft) NO 42 2 min 0,000 mm 0,0 UV-I 75 W/m 15,9 C 31,1 C 8,0 km/h (2 Bft) 100,00 %
01.08.2018 19:50 30,9 C 28,3 C 31,7 C 41 % 1013,3 hPa 0,0 l/m 6,9 km/h (2 Bft) NO 51 2 min 0,000 mm 0,0 UV-I 71 W/m 16,1 C 30,9 C 8,0 km/h (2 Bft) 100,00 %
01.08.2018 19:52 30,6 C 28,3 C 31,7 C 41 % 1013,3 hPa 0,0 l/m 8,4 km/h (2 Bft) NO 45 2 min 0,000 mm 0,0 UV-I 66 W/m 15,8 C 30,5 C 14,5 km/h (3 Bft) 97,87 %
01.08.2018 19:54 30,4 C 28,3 C 31,1 C 42 % 1013,2 hPa 0,0 l/m 8,7 km/h (2 Bft) NO 40 2 min 0,000 mm 0,0 UV-I 61 W/m 16,0 C 30,2 C 11,3 km/h (2 Bft) 100,00 %
01.08.2018 19:56 30,2 C 28,3 C 29,4 C 43 % 1013,2 hPa 0,0 l/m 7,0 km/h (2 Bft) NO 34 2 min 0,000 mm 0,0 UV-I 56 W/m 16,2 C 30,1 C 9,7 km/h (2 Bft) 100,00 %
01.08.2018 19:58 30,1 C 28,3 C 28,3 C 43 % 1013,2 hPa 0,0 l/m 7,4 km/h (2 Bft) NO 40 2 min 0,000 mm 0,0 UV-I 54 W/m 16,1 C 30,0 C 11,3 km/h (2 Bft) 100,00 %
01.08.2018 20:00 29,9 C 28,3 C 27,2 C 44 % 1013,3 hPa 0,0 l/m 5,6 km/h (1 Bft) NO 53 0 min 0,000 mm 0,0 UV-I 49 W/m 16,3 C 29,9 C 8,0 km/h (2 Bft) 100,00 %
01.08.2018 20:02 29,8 C 28,3 C 26,7 C 45 % 1013,2 hPa 0,0 l/m 4,3 km/h (1 Bft) O-NO 64 0 min 0,127 mm 0,0 UV-I 46 W/m 16,6 C 29,8 C 8,0 km/h (2 Bft) 100,00 %
01.08.2018 20:04 29,7 C 28,3 C 25,6 C 46 % 1013,3 hPa 0,0 l/m 4,9 km/h (1 Bft) O-NO 76 0 min 0,000 mm 0,0 UV-I 38 W/m 16,8 C 29,7 C 6,4 km/h (2 Bft) 97,87 %
01.08.2018 20:06 29,5 C 28,3 C 25,0 C 46 % 1013,3 hPa 0,0 l/m 3,9 km/h (1 Bft) O-NO 76 0 min 0,000 mm 0,0 UV-I 32 W/m 16,6 C 29,5 C 4,8 km/h (1 Bft) 100,00 %
01.08.2018 20:08 29,3 C 28,3 C 24,4 C 47 % 1013,3 hPa 0,0 l/m 3,8 km/h (1 Bft) O 80 0 min 0,000 mm 0,0 UV-I 35 W/m 16,8 C 29,3 C 4,8 km/h (1 Bft) 100,00 %
01.08.2018 20:10 29,2 C 28,3 C 23,9 C 46 % 1013,4 hPa 0,0 l/m 2,7 km/h (1 Bft) O 79 0 min 0,000 mm 0,0 UV-I 30 W/m 16,4 C 29,2 C 4,8 km/h (1 Bft) 97,87 %
01.08.2018 20:12 29,2 C 28,3 C 23,3 C 48 % 1013,4 hPa 0,0 l/m 2,2 km/h (1 Bft) O 79 0 min 0,000 mm 0,0 UV-I 24 W/m 17,0 C 29,2 C 4,8 km/h (1 Bft) 100,00 %
01.08.2018 20:14 29,1 C 28,3 C 23,3 C 48 % 1013,4 hPa 0,0 l/m 2,3 km/h (1 Bft) O 83 0 min 0,000 mm 0,0 UV-I 22 W/m 16,9 C 29,1 C 4,8 km/h (1 Bft) 100,00 %
01.08.2018 20:16 28,9 C 28,3 C 22,8 C 49 % 1013,5 hPa 0,0 l/m 2,5 km/h (1 Bft) O 83 0 min 0,000 mm 0,0 UV-I 20 W/m 17,1 C 28,9 C 4,8 km/h (1 Bft) 95,74 %
01.08.2018 20:18 28,8 C 28,3 C 22,8 C 48 % 1013,4 hPa 0,0 l/m 3,3 km/h (1 Bft) O 86 0 min 0,000 mm 0,0 UV-I 19 W/m 16,7 C 28,8 C 4,8 km/h (1 Bft) 97,87 %
01.08.2018 20:20 29,0 C 28,3 C 22,8 C 48 % 1013,5 hPa 0,0 l/m 4,3 km/h (1 Bft) O-SO 119 0 min 0,000 mm 0,0 UV-I 18 W/m 16,9 C 29,0 C 6,4 km/h (2 Bft) 97,87 %
01.08.2018 20:22 29,1 C 28,3 C 22,8 C 48 % 1013,5 hPa 0,0 l/m 4,3 km/h (1 Bft) O-SO 120 0 min 0,000 mm 0,0 UV-I 16 W/m 16,9 C 29,1 C 6,4 km/h (2 Bft) 96,00 %
01.08.2018 20:24 28,6 C 28,3 C 22,2 C 51 % 1013,4 hPa 0,0 l/m 4,2 km/h (1 Bft) SO 128 0 min 0,000 mm 0,0 UV-I 14 W/m 17,4 C 28,6 C 4,8 km/h (1 Bft) 98,00 %
01.08.2018 20:26 28,1 C 28,3 C 22,2 C 51 % 1013,4 hPa 0,0 l/m 4,2 km/h (1 Bft) SO 146 2 min 0,000 mm 0,0 UV-I 13 W/m 17,0 C 28,1 C 6,4 km/h (2 Bft) 97,87 %
01.08.2018 20:29 28,2 C 28,3 C 22,2 C 51 % 1013,4 hPa 0,0 l/m 4,0 km/h (1 Bft) SO 146 0 min 0,000 mm 0,0 UV-I 11 W/m 17,1 C 28,2 C 6,4 km/h (2 Bft) 97,18 %
01.08.2018 20:30 28,2 C 28,3 C 22,2 C 50 % 1013,4 hPa 0,0 l/m 3,3 km/h (1 Bft) SO 146 0 min 0,000 mm 0,0 UV-I 11 W/m 16,8 C 28,2 C 4,8 km/h (1 Bft) 100,00 %
01.08.2018 20:32 28,3 C 28,3 C 22,2 C 50 % 1013,4 hPa 0,0 l/m 3,0 km/h (1 Bft) SO 146 0 min 0,000 mm 0,0 UV-I 10 W/m 16,9 C 28,3 C 4,8 km/h (1 Bft) 97,87 %
01.08.2018 20:34 28,0 C 28,3 C 22,2 C 51 % 1013,5 hPa 0,0 l/m 2,1 km/h (1 Bft) SO 146 0 min 0,000 mm 0,0 UV-I 9 W/m 16,9 C 28,0 C 3,2 km/h (1 Bft) 95,83 %
01.08.2018 20:36 27,9 C 28,3 C 22,2 C 53 % 1013,5 hPa 0,0 l/m 1,6 km/h (1 Bft) SO 146 0 min 0,000 mm 0,0 UV-I 8 W/m 17,4 C 27,9 C 3,2 km/h (1 Bft) 97,37 %
01.08.2018 20:38 27,9 C 28,3 C 22,2 C 52 % 1013,4 hPa 0,0 l/m 0,2 km/h (0 Bft) SO 146 0 min 0,000 mm 0,0 UV-I 7 W/m 17,1 C 27,9 C 1,6 km/h (1 Bft) 93,62 %
01.08.2018 20:40 28,0 C 28,3 C 21,7 C 52 % 1013,5 hPa 0,0 l/m 0,0 km/h (0 Bft) SO 146 0 min 0,000 mm 0,0 UV-I 7 W/m 17,2 C 28,0 C 0,0 km/h (0 Bft) 92,00 %
01.08.2018 20:42 27,9 C 28,3 C 21,7 C 52 % 1013,5 hPa 0,0 l/m 0,7 km/h (0 Bft) SO 146 0 min 0,000 mm 0,0 UV-I 6 W/m 17,1 C 27,9 C 1,6 km/h (1 Bft) 95,74 %
01.08.2018 20:44 27,8 C 28,3 C 21,7 C 53 % 1013,5 hPa 0,0 l/m 0,8 km/h (0 Bft) SO 146 0 min 0,000 mm 0,0 UV-I 5 W/m 17,3 C 27,8 C 1,6 km/h (1 Bft) 93,62 %
01.08.2018 20:46 27,8 C 28,3 C 21,7 C 54 % 1013,5 hPa 0,0 l/m 1,0 km/h (0 Bft) SO 146 0 min 0,000 mm 0,0 UV-I 5 W/m 17,6 C 27,8 C 1,6 km/h (1 Bft) 95,74 %
01.08.2018 20:49 27,5 C 28,3 C 21,7 C 55 % 1013,6 hPa 0,0 l/m 1,6 km/h (1 Bft) SO 146 0 min 0,000 mm 0,0 UV-I 5 W/m 17,6 C 27,5 C 3,2 km/h (1 Bft) 97,26 %
01.08.2018 20:50 27,4 C 28,3 C 21,7 C 55 % 1013,6 hPa 0,0 l/m 3,1 km/h (1 Bft) SO 146 0 min 0,000 mm 0,0 UV-I 5 W/m 17,5 C 27,4 C 3,2 km/h (1 Bft) 100,00 %
01.08.2018 20:52 27,4 C 28,3 C 21,7 C 55 % 1013,6 hPa 0,0 l/m 2,6 km/h (1 Bft) SO 146 0 min 0,000 mm 0,0 UV-I 5 W/m 17,5 C 27,4 C 3,2 km/h (1 Bft) 93,62 %
01.08.2018 20:54 27,4 C 28,3 C 21,7 C 56 % 1013,5 hPa 0,0 l/m 3,2 km/h (1 Bft) S-SO 148 0 min 0,000 mm 0,0 UV-I 0 W/m 17,8 C 27,4 C 4,8 km/h (1 Bft) 97,87 %
01.08.2018 20:56 27,2 C 28,3 C 22,2 C 55 % 1013,6 hPa 0,0 l/m 2,6 km/h (1 Bft) S-SO 148 0 min 0,000 mm 0,0 UV-I 0 W/m 17,4 C 27,2 C 3,2 km/h (1 Bft) 96,00 %
01.08.2018 20:59 27,1 C 28,3 C 22,2 C 56 % 1013,6 hPa 0,0 l/m 2,6 km/h (1 Bft) S-SO 148 0 min 0,000 mm 0,0 UV-I 0 W/m 17,5 C 27,1 C 3,2 km/h (1 Bft) 98,59 %
01.08.2018 21:00 26,9 C 28,3 C 22,2 C 56 % 1013,6 hPa 0,0 l/m 2,7 km/h (1 Bft) S-SO 148 0 min 0,000 mm 0,0 UV-I 0 W/m 17,4 C 26,9 C 3,2 km/h (1 Bft) 90,91 %
01.08.2018 21:02 26,6 C 28,3 C 22,2 C 57 % 1013,7 hPa 0,0 l/m 2,4 km/h (1 Bft) S-SO 148 0 min 0,050 mm 0,0 UV-I 0 W/m 17,4 C 26,6 C 3,2 km/h (1 Bft) 97,87 %
01.08.2018 21:04 26,3 C 28,3 C 21,7 C 58 % 1013,7 hPa 0,0 l/m 2,3 km/h (1 Bft) S-SO 148 0 min 0,000 mm 0,0 UV-I 0 W/m 17,4 C 26,3 C 3,2 km/h (1 Bft) 100,00 %
01.08.2018 21:06 26,2 C 28,3 C 21,7 C 57 % 1013,7 hPa 0,0 l/m 2,4 km/h (1 Bft) S-SO 148 0 min 0,000 mm 0,0 UV-I 0 W/m 17,0 C 26,2 C 3,2 km/h (1 Bft) 100,00 %
01.08.2018 21:08 26,1 C 28,3 C 21,7 C 59 % 1013,7 hPa 0,0 l/m 1,8 km/h (1 Bft) S-SO 148 0 min 0,000 mm 0,0 UV-I 0 W/m 17,4 C 26,1 C 3,2 km/h (1 Bft) 100,00 %
01.08.2018 21:10 26,1 C 28,3 C 21,7 C 59 % 1013,8 hPa 0,0 l/m 1,9 km/h (1 Bft) S-SO 148 0 min 0,000 mm 0,0 UV-I 0 W/m 17,4 C 26,1 C 3,2 km/h (1 Bft) 100,00 %
01.08.2018 21:12 26,1 C 28,3 C 21,7 C 59 % 1013,7 hPa 0,0 l/m 1,2 km/h (1 Bft) S-SO 148 0 min 0,000 mm 0,0 UV-I 0 W/m 17,4 C 26,1 C 3,2 km/h (1 Bft) 100,00 %
01.08.2018 21:14 26,1 C 28,3 C 21,7 C 59 % 1013,7 hPa 0,0 l/m 0,2 km/h (0 Bft) S-SO 148 0 min 0,000 mm 0,0 UV-I 0 W/m 17,4 C 26,1 C 1,6 km/h (1 Bft) 97,87 %
01.08.2018 21:16 26,1 C 28,3 C 21,7 C 58 % 1013,7 hPa 0,0 l/m 0,3 km/h (0 Bft) S-SO 148 0 min 0,000 mm 0,0 UV-I 0 W/m 17,2 C 26,1 C 3,2 km/h (1 Bft) 97,87 %
01.08.2018 21:18 25,9 C 28,3 C 21,7 C 59 % 1013,8 hPa 0,0 l/m 5,6 km/h (1 Bft) NO 55 0 min 0,000 mm 0,0 UV-I 0 W/m 17,3 C 25,9 C 9,7 km/h (2 Bft) 100,00 %
01.08.2018 21:20 25,7 C 28,3 C 22,2 C 59 % 1013,9 hPa 0,0 l/m 7,9 km/h (2 Bft) NO 40 0 min 0,000 mm 0,0 UV-I 0 W/m 17,1 C 25,4 C 12,9 km/h (3 Bft) 100,00 %
01.08.2018 21:22 25,8 C 28,3 C 22,2 C 59 % 1013,9 hPa 0,0 l/m 6,2 km/h (2 Bft) O-NO 65 0 min 0,000 mm 0,0 UV-I 0 W/m 17,2 C 25,8 C 8,0 km/h (2 Bft) 100,00 %
01.08.2018 21:24 25,8 C 28,3 C 22,2 C 59 % 1013,9 hPa 0,0 l/m 3,7 km/h (1 Bft) O-NO 71 0 min 0,000 mm 0,0 UV-I 0 W/m 17,2 C 25,8 C 4,8 km/h (1 Bft) 100,00 %
01.08.2018 21:26 25,8 C 28,3 C 22,2 C 59 % 1013,9 hPa 0,0 l/m 5,4 km/h (1 Bft) O-SO 103 0 min 0,000 mm 0,0 UV-I 0 W/m 17,2 C 25,8 C 9,7 km/h (2 Bft) 100,00 %
01.08.2018 21:28 25,9 C 28,3 C 22,2 C 59 % 1014,0 hPa 0,0 l/m 5,4 km/h (1 Bft) O-SO 103 0 min 0,000 mm 0,0 UV-I 0 W/m 17,3 C 25,9 C 9,7 km/h (2 Bft) 100,00 %
01.08.2018 21:30 26,2 C 28,3 C 22,2 C 58 % 1014,0 hPa 0,0 l/m 3,1 km/h (1 Bft) O 98 0 min 0,000 mm 0,0 UV-I 0 W/m 17,3 C 26,2 C 4,8 km/h (1 Bft) 100,00 %
01.08.2018 21:32 26,3 C 28,3 C 22,2 C 57 % 1014,0 hPa 0,0 l/m 4,0 km/h (1 Bft) O-NO 66 0 min 0,000 mm 0,0 UV-I 0 W/m 17,1 C 26,3 C 6,4 km/h (2 Bft) 100,00 %
01.08.2018 21:34 26,2 C 28,3 C 22,2 C 58 % 1014,1 hPa 0,0 l/m 5,4 km/h (1 Bft) O-NO 62 0 min 0,000 mm 0,0 UV-I 0 W/m 17,3 C 26,2 C 6,4 km/h (2 Bft) 100,00 %
01.08.2018 21:36 26,1 C 28,3 C 22,2 C 58 % 1014,0 hPa 0,0 l/m 4,2 km/h (1 Bft) O 94 0 min 0,000 mm 0,0 UV-I 0 W/m 17,2 C 26,1 C 6,4 km/h (2 Bft) 100,00 %
01.08.2018 21:38 26,0 C 28,3 C 22,2 C 58 % 1014,1 hPa 0,0 l/m 5,2 km/h (1 Bft) O-NO 74 0 min 0,000 mm 0,0 UV-I 0 W/m 17,1 C 26,0 C 11,3 km/h (2 Bft) 100,00 %
01.08.2018 21:40 26,0 C 28,3 C 22,8 C 59 % 1014,0 hPa 0,0 l/m 5,5 km/h (1 Bft) O 79 0 min 0,000 mm 0,0 UV-I 0 W/m 17,4 C 26,0 C 11,3 km/h (2 Bft) 100,00 %
01.08.2018 21:42 26,1 C 28,3 C 22,8 C 59 % 1014,1 hPa 0,0 l/m 4,6 km/h (1 Bft) O 98 0 min 0,000 mm 0,0 UV-I 0 W/m 17,4 C 26,1 C 6,4 km/h (2 Bft) 95,74 %
01.08.2018 21:44 26,1 C 28,3 C 22,8 C 59 % 1014,0 hPa 0,0 l/m 5,9 km/h (2 Bft) O 87 0 min 0,000 mm 0,0 UV-I 0 W/m 17,4 C 26,1 C 9,7 km/h (2 Bft) 100,00 %
01.08.2018 21:46 26,1 C 28,3 C 23,3 C 59 % 1014,0 hPa 0,0 l/m 6,8 km/h (2 Bft) SO 132 0 min 0,000 mm 0,0 UV-I 0 W/m 17,4 C 26,0 C 11,3 km/h (2 Bft) 100,00 %
01.08.2018 21:49 26,3 C 28,3 C 23,3 C 59 % 1014,0 hPa 0,0 l/m 7,0 km/h (2 Bft) O-SO 117 0 min 0,000 mm 0,0 UV-I 0 W/m 17,6 C 26,2 C 11,3 km/h (2 Bft) 100,00 %
01.08.2018 21:50 26,4 C 28,3 C 23,3 C 58 % 1014,0 hPa 0,0 l/m 9,1 km/h (2 Bft) O 98 0 min 0,000 mm 0,0 UV-I 0 W/m 17,5 C 25,9 C 12,9 km/h (3 Bft) 100,00 %
01.08.2018 21:52 26,4 C 28,3 C 23,3 C 58 % 1014,1 hPa 0,0 l/m 6,6 km/h (2 Bft) O 101 0 min 0,000 mm 0,0 UV-I 0 W/m 17,5 C 26,4 C 11,3 km/h (2 Bft) 97,87 %
01.08.2018 21:54 26,4 C 28,3 C 23,3 C 59 % 1014,1 hPa 0,0 l/m 5,3 km/h (1 Bft) O-SO 103 0 min 0,000 mm 0,0 UV-I 0 W/m 17,7 C 26,4 C 9,7 km/h (2 Bft) 100,00 %
01.08.2018 21:56 26,4 C 28,3 C 23,3 C 59 % 1014,1 hPa 0,0 l/m 5,4 km/h (1 Bft) O 101 0 min 0,000 mm 0,0 UV-I 0 W/m 17,7 C 26,4 C 9,7 km/h (2 Bft) 95,74 %
01.08.2018 21:58 26,3 C 28,3 C 23,3 C 59 % 1014,1 hPa 0,0 l/m 4,8 km/h (1 Bft) O 99 0 min 0,000 mm 0,0 UV-I 0 W/m 17,6 C 26,3 C 6,4 km/h (2 Bft) 93,62 %
01.08.2018 22:00 26,3 C 28,3 C 23,3 C 59 % 1014,1 hPa 0,0 l/m 4,6 km/h (1 Bft) O 97 0 min 0,051 mm 0,0 UV-I 0 W/m 17,6 C 26,3 C 6,4 km/h (2 Bft) 100,00 %
01.08.2018 22:02 26,3 C 28,3 C 23,3 C 59 % 1014,2 hPa 0,0 l/m 4,6 km/h (1 Bft) O 83 0 min 0,000 mm 0,0 UV-I 0 W/m 17,6 C 26,3 C 9,7 km/h (2 Bft) 100,00 %
01.08.2018 22:04 26,2 C 28,3 C 23,3 C 59 % 1014,2 hPa 0,0 l/m 3,7 km/h (1 Bft) O-SO 105 0 min 0,000 mm 0,0 UV-I 0 W/m 17,5 C 26,2 C 4,8 km/h (1 Bft) 100,00 %
01.08.2018 22:06 26,2 C 28,3 C 23,3 C 59 % 1014,2 hPa 0,0 l/m 2,9 km/h (1 Bft) O-SO 105 0 min 0,000 mm 0,0 UV-I 0 W/m 17,5 C 26,2 C 4,8 km/h (1 Bft) 97,87 %
01.08.2018 22:09 25,8 C 28,3 C 22,8 C 60 % 1014,3 hPa 0,0 l/m 4,9 km/h (1 Bft) O-NO 59 0 min 0,000 mm 0,0 UV-I 0 W/m 17,4 C 25,8 C 6,4 km/h (2 Bft) 97,30 %
01.08.2018 22:10 25,7 C 28,3 C 22,8 C 61 % 1014,3 hPa 0,0 l/m 6,0 km/h (2 Bft) O-NO 65 0 min 0,000 mm 0,0 UV-I 0 W/m 17,6 C 25,7 C 8,0 km/h (2 Bft) 95,65 %
01.08.2018 22:12 25,7 C 28,3 C 22,8 C 61 % 1014,3 hPa 0,0 l/m 5,5 km/h (1 Bft) O-NO 78 0 min 0,000 mm 0,0 UV-I 0 W/m 17,6 C 25,7 C 8,0 km/h (2 Bft) 95,74 %
01.08.2018 22:14 25,6 C 28,3 C 22,8 C 61 % 1014,3 hPa 0,0 l/m 4,2 km/h (1 Bft) O 95 0 min 0,000 mm 0,0 UV-I 0 W/m 17,5 C 25,6 C 9,7 km/h (2 Bft) 93,62 %
01.08.2018 22:16 25,5 C 28,3 C 22,8 C 62 % 1014,3 hPa 0,0 l/m 4,3 km/h (1 Bft) O 92 0 min 0,000 mm 0,0 UV-I 0 W/m 17,7 C 25,5 C 9,7 km/h (2 Bft) 93,62 %
01.08.2018 22:19 25,4 C 28,3 C 22,8 C 62 % 1014,4 hPa 0,0 l/m 4,9 km/h (1 Bft) O-SO 103 0 min 0,000 mm 0,0 UV-I 0 W/m 17,6 C 25,4 C 9,7 km/h (2 Bft) 92,96 %
01.08.2018 22:20 25,4 C 28,3 C 22,8 C 62 % 1014,4 hPa 0,0 l/m 4,8 km/h (1 Bft) O-SO 103 0 min 0,000 mm 0,0 UV-I 0 W/m 17,6 C 25,4 C 6,4 km/h (2 Bft) 91,30 %
01.08.2018 22:22 25,5 C 28,3 C 22,8 C 62 % 1014,4 hPa 0,0 l/m 3,9 km/h (1 Bft) O-NO 71 0 min 0,000 mm 0,0 UV-I 0 W/m 17,7 C 25,5 C 4,8 km/h (1 Bft) 91,49 %
01.08.2018 22:24 25,6 C 28,3 C 22,8 C 62 % 1014,5 hPa 0,0 l/m 4,3 km/h (1 Bft) O 86 0 min 0,000 mm 0,0 UV-I 0 W/m 17,8 C 25,6 C 6,4 km/h (2 Bft) 93,62 %
01.08.2018 22:26 25,6 C 28,3 C 23,3 C 62 % 1014,6 hPa 0,0 l/m 3,4 km/h (1 Bft) O-NO 78 0 min 0,000 mm 0,0 UV-I 0 W/m 17,8 C 25,6 C 4,8 km/h (1 Bft) 95,74 %
01.08.2018 22:28 25,6 C 28,3 C 23,3 C 62 % 1014,6 hPa 0,0 l/m 4,4 km/h (1 Bft) O 86 0 min 0,000 mm 0,0 UV-I 0 W/m 17,8 C 25,6 C 6,4 km/h (2 Bft) 93,75 %
01.08.2018 22:30 25,5 C 28,3 C 23,3 C 62 % 1014,6 hPa 0,0 l/m 3,9 km/h (1 Bft) O 101 0 min 0,000 mm 0,0 UV-I 0 W/m 17,7 C 25,5 C 6,4 km/h (2 Bft) 93,62 %
01.08.2018 22:32 25,5 C 28,3 C 23,3 C 62 % 1014,6 hPa 0,0 l/m 4,7 km/h (1 Bft) O 93 0 min 0,000 mm 0,0 UV-I 0 W/m 17,7 C 25,5 C 9,7 km/h (2 Bft) 93,62 %
01.08.2018 22:34 25,6 C 28,3 C 23,3 C 62 % 1014,6 hPa 0,0 l/m 4,5 km/h (1 Bft) O-NO 75 0 min 0,000 mm 0,0 UV-I 0 W/m 17,8 C 25,6 C 6,4 km/h (2 Bft) 93,62 %
01.08.2018 22:36 25,8 C 28,3 C 23,9 C 61 % 1014,6 hPa 0,0 l/m 4,4 km/h (1 Bft) O 90 0 min 0,000 mm 0,0 UV-I 0 W/m 17,7 C 25,8 C 6,4 km/h (2 Bft) 93,62 %
01.08.2018 22:38 25,8 C 28,3 C 23,9 C 61 % 1014,6 hPa 0,0 l/m 3,4 km/h (1 Bft) O 93 0 min 0,000 mm 0,0 UV-I 0 W/m 17,7 C 25,8 C 4,8 km/h (1 Bft) 89,47 %
01.08.2018 22:40 25,8 C 28,3 C 23,9 C 61 % 1014,6 hPa 0,0 l/m 4,7 km/h (1 Bft) O 94 0 min 0,000 mm 0,0 UV-I 0 W/m 17,7 C 25,8 C 6,4 km/h (2 Bft) 93,62 %
01.08.2018 22:42 25,8 C 27,8 C 23,9 C 61 % 1014,6 hPa 0,0 l/m 3,0 km/h (1 Bft) O 94 0 min 0,000 mm 0,0 UV-I 0 W/m 17,7 C 25,8 C 4,8 km/h (1 Bft) 97,87 %
01.08.2018 22:44 25,7 C 28,3 C 23,3 C 62 % 1014,6 hPa 0,0 l/m 3,5 km/h (1 Bft) O 90 0 min 0,000 mm 0,0 UV-I 0 W/m 17,9 C 25,7 C 4,8 km/h (1 Bft) 95,74 %
01.08.2018 22:46 25,5 C 28,3 C 23,3 C 62 % 1014,6 hPa 0,0 l/m 5,2 km/h (1 Bft) O-NO 63 0 min 0,000 mm 0,0 UV-I 0 W/m 17,7 C 25,5 C 6,4 km/h (2 Bft) 93,62 %
01.08.2018 22:48 25,3 C 27,8 C 23,3 C 63 % 1014,7 hPa 0,0 l/m 5,5 km/h (1 Bft) NO 49 0 min 0,000 mm 0,0 UV-I 0 W/m 17,7 C 25,3 C 8,0 km/h (2 Bft) 98,00 %
01.08.2018 22:50 25,1 C 27,8 C 22,8 C 64 % 1014,7 hPa 0,0 l/m 6,0 km/h (2 Bft) NO 44 0 min 0,000 mm 0,0 UV-I 0 W/m 17,8 C 25,1 C 8,0 km/h (2 Bft) 97,87 %
01.08.2018 22:52 24,9 C 27,8 C 23,3 C 64 % 1014,8 hPa 0,0 l/m 6,8 km/h (2 Bft) NO 54 0 min 0,000 mm 0,0 UV-I 0 W/m 17,6 C 24,8 C 12,9 km/h (3 Bft) 97,87 %
01.08.2018 22:54 24,9 C 27,8 C 23,3 C 65 % 1014,8 hPa 0,0 l/m 7,0 km/h (2 Bft) O 92 0 min 0,000 mm 0,0 UV-I 0 W/m 17,9 C 24,7 C 11,3 km/h (2 Bft) 97,37 %
01.08.2018 22:56 25,0 C 27,8 C 23,3 C 64 % 1014,8 hPa 0,0 l/m 7,2 km/h (2 Bft) O-NO 69 0 min 0,000 mm 0,0 UV-I 0 W/m 17,7 C 24,8 C 12,9 km/h (3 Bft) 98,04 %
01.08.2018 22:58 25,0 C 27,8 C 23,3 C 64 % 1014,8 hPa 0,0 l/m 6,2 km/h (2 Bft) O 88 0 min 0,000 mm 0,0 UV-I 0 W/m 17,7 C 25,0 C 9,7 km/h (2 Bft) 97,87 %
01.08.2018 23:00 25,0 C 27,8 C 23,3 C 64 % 1014,8 hPa 0,0 l/m 5,2 km/h (1 Bft) O-NO 76 0 min 0,000 mm 0,0 UV-I 0 W/m 17,7 C 25,0 C 8,0 km/h (2 Bft) 97,96 %
01.08.2018 23:02 24,9 C 27,8 C 23,3 C 65 % 1014,9 hPa 0,0 l/m 5,3 km/h (1 Bft) NO 40 0 min 0,051 mm 0,0 UV-I 0 W/m 17,9 C 24,9 C 9,7 km/h (2 Bft) 97,92 %
01.08.2018 23:04 24,8 C 27,8 C 22,8 C 65 % 1014,9 hPa 0,0 l/m 6,0 km/h (2 Bft) O-NO 66 0 min 0,000 mm 0,0 UV-I 0 W/m 17,8 C 24,8 C 9,7 km/h (2 Bft) 96,00 %
01.08.2018 23:06 24,8 C 27,8 C 22,8 C 65 % 1014,9 hPa 0,0 l/m 6,7 km/h (2 Bft) O-NO 67 0 min 0,000 mm 0,0 UV-I 0 W/m 17,8 C 24,7 C 12,9 km/h (3 Bft) 95,74 %
01.08.2018 23:08 24,8 C 27,8 C 22,8 C 65 % 1014,9 hPa 0,0 l/m 6,5 km/h (2 Bft) O 81 0 min 0,000 mm 0,0 UV-I 0 W/m 17,8 C 24,8 C 11,3 km/h (2 Bft) 93,62 %
01.08.2018 23:10 24,9 C 27,8 C 23,3 C 65 % 1014,9 hPa 0,0 l/m 5,4 km/h (1 Bft) O-NO 78 0 min 0,000 mm 0,0 UV-I 0 W/m 17,9 C 24,9 C 6,4 km/h (2 Bft) 97,87 %
01.08.2018 23:12 24,9 C 27,8 C 22,8 C 65 % 1014,9 hPa 0,0 l/m 5,8 km/h (2 Bft) O 88 0 min 0,000 mm 0,0 UV-I 0 W/m 17,9 C 24,9 C 8,0 km/h (2 Bft) 93,62 %
01.08.2018 23:14 24,9 C 27,8 C 23,3 C 65 % 1014,9 hPa 0,0 l/m 6,4 km/h (2 Bft) O-NO 65 0 min 0,000 mm 0,0 UV-I 0 W/m 17,9 C 24,9 C 11,3 km/h (2 Bft) 96,00 %
01.08.2018 23:16 24,9 C 27,8 C 23,3 C 65 % 1015,0 hPa 0,0 l/m 6,7 km/h (2 Bft) O-NO 68 0 min 0,000 mm 0,0 UV-I 0 W/m 17,9 C 24,8 C 11,3 km/h (2 Bft) 94,29 %
01.08.2018 23:18 24,9 C 27,8 C 23,3 C 65 % 1015,0 hPa 0,0 l/m 7,9 km/h (2 Bft) O 79 0 min 0,000 mm 0,0 UV-I 0 W/m 17,9 C 24,5 C 12,9 km/h (3 Bft) 95,74 %
01.08.2018 23:20 24,9 C 27,8 C 23,3 C 65 % 1015,0 hPa 0,0 l/m 6,0 km/h (2 Bft) NO 51 0 min 0,000 mm 0,0 UV-I 0 W/m 17,9 C 24,9 C 9,7 km/h (2 Bft) 97,87 %
01.08.2018 23:22 24,9 C 27,8 C 23,3 C 65 % 1015,1 hPa 0,0 l/m 6,4 km/h (2 Bft) NO 49 0 min 0,000 mm 0,0 UV-I 0 W/m 17,9 C 24,9 C 11,3 km/h (2 Bft) 97,87 %
01.08.2018 23:24 24,9 C 27,8 C 23,3 C 65 % 1015,0 hPa 0,0 l/m 7,2 km/h (2 Bft) O 83 0 min 0,000 mm 0,0 UV-I 0 W/m 17,9 C 24,7 C 12,9 km/h (3 Bft) 97,87 %
01.08.2018 23:26 25,0 C 27,8 C 23,3 C 65 % 1015,0 hPa 0,0 l/m 7,6 km/h (2 Bft) O-NO 74 0 min 0,000 mm 0,0 UV-I 0 W/m 17,9 C 24,7 C 12,9 km/h (3 Bft) 98,11 %
01.08.2018 23:28 25,1 C 27,8 C 23,3 C 65 % 1015,0 hPa 0,0 l/m 8,3 km/h (2 Bft) O-SO 103 0 min 0,000 mm 0,0 UV-I 0 W/m 18,0 C 24,6 C 12,9 km/h (3 Bft) 95,74 %
01.08.2018 23:30 25,0 C 27,8 C 23,3 C 65 % 1015,0 hPa 0,0 l/m 8,0 km/h (2 Bft) O 94 0 min 0,000 mm 0,0 UV-I 0 W/m 17,9 C 24,6 C 11,3 km/h (2 Bft) 100,00 %
01.08.2018 23:32 24,9 C 27,8 C 23,3 C 65 % 1015,1 hPa 0,0 l/m 7,9 km/h (2 Bft) O-NO 69 0 min 0,000 mm 0,0 UV-I 0 W/m 17,9 C 24,5 C 11,3 km/h (2 Bft) 100,00 %
01.08.2018 23:34 24,9 C 27,8 C 23,3 C 65 % 1015,1 hPa 0,0 l/m 8,8 km/h (2 Bft) O 86 0 min 0,000 mm 0,0 UV-I 0 W/m 17,9 C 24,3 C 12,9 km/h (3 Bft) 100,00 %
01.08.2018 23:36 24,8 C 27,8 C 23,3 C 66 % 1015,1 hPa 0,0 l/m 9,5 km/h (2 Bft) O-NO 76 0 min 0,000 mm 0,0 UV-I 0 W/m 18,0 C 24,0 C 12,9 km/h (3 Bft) 100,00 %
01.08.2018 23:39 24,9 C 27,8 C 23,3 C 66 % 1015,1 hPa 0,0 l/m 8,9 km/h (2 Bft) O 101 0 min 0,000 mm 0,0 UV-I 0 W/m 18,1 C 24,3 C 14,5 km/h (3 Bft) 97,30 %
01.08.2018 23:40 24,9 C 27,8 C 23,3 C 66 % 1015,1 hPa 0,0 l/m 6,8 km/h (2 Bft) O 82 0 min 0,000 mm 0,0 UV-I 0 W/m 18,1 C 24,8 C 9,7 km/h (2 Bft) 100,00 %
01.08.2018 23:42 24,9 C 27,8 C 23,9 C 65 % 1015,1 hPa 0,0 l/m 8,9 km/h (2 Bft) O-NO 78 0 min 0,000 mm 0,0 UV-I 0 W/m 17,9 C 24,3 C 12,9 km/h (3 Bft) 97,87 %
01.08.2018 23:44 25,0 C 27,8 C 23,3 C 65 % 1015,1 hPa 0,0 l/m 9,0 km/h (2 Bft) O-NO 78 0 min 0,000 mm 0,0 UV-I 0 W/m 17,9 C 24,4 C 12,9 km/h (3 Bft) 95,74 %
01.08.2018 23:46 25,0 C 27,8 C 23,9 C 65 % 1015,2 hPa 0,0 l/m 9,0 km/h (2 Bft) O-NO 70 0 min 0,000 mm 0,0 UV-I 0 W/m 17,9 C 24,4 C 14,5 km/h (3 Bft) 98,00 %
01.08.2018 23:48 25,0 C 27,8 C 23,9 C 65 % 1015,1 hPa 0,0 l/m 9,2 km/h (2 Bft) O 94 0 min 0,000 mm 0,0 UV-I 0 W/m 17,9 C 24,3 C 14,5 km/h (3 Bft) 97,87 %
01.08.2018 23:50 25,0 C 27,8 C 23,9 C 65 % 1015,2 hPa 0,0 l/m 8,4 km/h (2 Bft) O-NO 64 0 min 0,000 mm 0,0 UV-I 0 W/m 17,9 C 24,5 C 14,5 km/h (3 Bft) 97,87 %
01.08.2018 23:52 25,0 C 27,8 C 23,9 C 66 % 1015,2 hPa 0,0 l/m 7,8 km/h (2 Bft) O 79 0 min 0,000 mm 0,0 UV-I 0 W/m 18,2 C 24,6 C 11,3 km/h (2 Bft) 95,74 %
01.08.2018 23:54 25,0 C 27,8 C 23,9 C 66 % 1015,3 hPa 0,0 l/m 7,4 km/h (2 Bft) O-NO 62 0 min 0,000 mm 0,0 UV-I 0 W/m 18,2 C 24,7 C 11,3 km/h (2 Bft) 95,74 %
01.08.2018 23:56 24,9 C 27,8 C 23,9 C 66 % 1015,2 hPa 0,0 l/m 9,1 km/h (2 Bft) O-NO 78 0 min 0,000 mm 0,0 UV-I 0 W/m 18,1 C 24,2 C 12,9 km/h (3 Bft) 97,87 %
01.08.2018 23:58 24,9 C 27,8 C 23,9 C 66 % 1015,3 hPa 0,0 l/m 7,8 km/h (2 Bft) O-NO 63 0 min 0,000 mm 0,0 UV-I 0 W/m 18,1 C 24,5 C 11,3 km/h (2 Bft) 95,74 %
_ Min-Zeit 05:58 04:46 05:36 17:34 18:36 - 02:14 - - - - - - 17:46 05:58 02:14 16:38
Minimum _ 18,4 C 26,7 C 16,7 C 31 % 1013,0 hPa - 0,0 km/h (0 Bft) - - - - - - 14,1 C 18,4 C 0,0 km/h (0 Bft) 89,36 %
_ Max-Zeit 16:28 16:16 13:16 05:58 10:20 00:00 01:22 - - 17:19 13:00 12:54 12:56 11:40 16:28 01:20 00:44
Maximum _ 34,0 C 28,9 C 45,6 C 83 % 1015,7 hPa 0,0 l/m 15,0 km/h
O (3 Bft)
- - 3 min 0,610 mm 6,1 UV-I 826 W/m 18,8 C 34,0 C 22,5 km/h
O-NO (4 Bft)
100,00 %
Durchschnitt _ 26,5 C 27,5 C 29,8 C 57 % 1014,5 hPa #0,0 l/m 5,4 km/h (1 Bft) S-SW - #13:54 h #5,842 mm 3,4 UV-I 455 W/m 16,5 C 26,4 C 8,7 km/h (2 Bft) 97,12 %